[[{"header":{"parameterUnit":"m.s-1","parameterCategory":1,"la1":31.0,"la2":29.5877,"lo1":-88.7671,"lo2":-86.6584,"dy":0.0162,"dx":0.0185,"nx":115,"ny":88,"refTime":"2023-08-01T18:00:00:Z","depth":0,"parameterNumber":2,"parameterNumberName":"U-component_of_WINDS"},"data":[0.0,0.0,0.0,0.0,0.0,0.0,0.0,0.0,0.0,0.0,0.0,0.0,0.0,0.0,0.0,0.0,0.0,0.0,0.0,0.0,0.0,0.0,0.0,0.0,0.0,0.0,0.0,0.0,0.0,0.0,0.0,0.0,0.0,0.0,0.0,0.0,0.0,0.0,0.0,0.0,0.0,0.0,0.0,0.0,0.0,0.0,0.0,0.0,0.0,0.0,0.0,0.0,0.0,0.0,0.0,0.0,0.0,0.0,0.0,0.0,0.0,0.0,0.0,0.0,0.0,0.0,0.0,0.0,0.0,0.0,0.0,0.0,0.0,0.0,0.0,0.0,0.0,0.0,0.0,0.0,0.0,0.0,0.0,0.0,0.0,0.0,0.0,0.0,0.0,0.0,0.0,0.0,0.0,0.0,0.0,0.0,0.0,0.0,0.0,0.0,0.0,0.0,0.0,0.0,0.0,0.0,0.0,0.0,0.0,0.0,0.0,0.0,0.0,0.0,0.0,0.0,0.0,0.0,0.0,0.0,0.0,0.0,0.0,0.0,0.0,0.0,0.0,0.0,0.0,0.0,0.0,0.0,0.0,0.0,0.0,0.0,0.0,0.0,0.0,0.0,0.0,0.0,0.0,0.0,0.0,0.0,0.0,0.0,0.0,0.0,0.0,0.0,0.0,0.0,0.0,0.0,0.0,0.0,0.0,0.0,0.0,0.0,0.0,0.0,0.0,0.0,0.0,0.0,0.0,0.0,0.0,0.0,0.0,0.0,0.0,0.0,0.0,0.0,0.0,0.0,0.0,0.0,0.0,0.0,0.0,0.0,0.0,0.0,0.0,0.0,0.0,0.0,0.0,0.0,0.0,0.0,0.0,0.0,0.0,0.0,0.0,0.0,0.0,0.0,0.0,0.0,0.0,0.0,0.0,0.0,0.0,0.0,0.0,0.0,0.0,0.0,0.0,0.0,0.0,0.0,0.0,0.0,0.0,0.0,0.0,0.0,0.0,0.0,0.0,0.0,0.0,0.0,0.0,0.0,0.0,0.0,0.0,0.0,0.0,0.0,0.0,0.0,0.0,0.0,0.0,0.0,0.0,0.0,0.0,0.0,0.0,0.0,0.0,0.0,0.0,0.0,0.0,0.0,0.0,0.0,0.0,0.0,0.0,0.0,0.0,0.0,0.0,0.0,0.0,0.0,0.0,0.0,0.0,0.0,0.0,0.0,0.0,0.0,0.0,0.0,0.0,0.0,0.0,0.0,0.0,0.0,0.0,0.0,0.0,0.0,0.0,0.0,0.0,0.0,0.0,0.0,0.0,0.0,0.0,0.0,0.0,0.0,0.0,0.0,0.0,0.0,0.0,0.0,0.0,0.0,0.0,0.0,0.0,0.0,0.0,0.0,0.0,0.0,0.0,0.0,0.0,0.0,0.0,0.0,0.0,0.0,0.0,0.0,0.0,0.0,0.0,0.0,0.0,0.0,0.0,0.0,0.0,0.0,0.0,0.0,0.0,0.0,0.0,0.0,0.0,0.0,0.0,0.0,0.0,0.0,0.0,0.0,0.0,0.0,0.0,0.0,0.0,0.0,0.0,0.0,0.0,0.0,0.0,0.0,0.0,0.0,0.0,0.0,0.0,0.0,0.0,0.0,0.0,0.0,0.0,0.0,0.0,0.0,0.0,0.0,0.0,0.0,0.0,0.0,0.0,0.0,0.0,0.0,0.0,0.0,0.0,0.0,0.0,0.0,0.0,0.0,0.0,0.0,0.0,0.0,0.0,0.0,0.0,0.0,0.0,0.0,0.0,0.0,0.0,0.0,0.0,0.0,0.0,0.0,0.0,0.0,0.0,0.0,0.0,0.0,0.0,0.0,0.0,0.0,0.0,0.0,0.0,0.0,0.0,0.0,0.0,0.0,0.0,0.0,0.0,0.0,0.0,0.0,0.0,0.0,0.0,0.0,0.0,0.0,0.0,0.0,0.0,0.0,0.0,0.0,0.0,0.0,0.0,0.0,0.0,0.0,0.0,0.0,0.0,0.0,0.0,0.0,0.0,0.0,0.0,0.0,0.0,0.0,0.0,0.0,0.0,0.0,0.0,0.0,0.0,0.0,0.0,0.0,0.0,0.0,0.0,0.0,0.0,0.0,0.0,0.0,0.0,0.0,0.0,0.0,0.0,0.0,0.0,0.0,0.0,0.0,0.0,0.0,0.0,0.0,0.0,0.0,0.0,0.0,0.0,0.0,0.0,0.0,0.0,0.0,0.0,0.0,0.0,0.0,0.0,0.0,0.0,0.0,0.0,0.0,0.0,0.0,0.0,0.0,0.0,0.0,0.0,0.0,0.0,0.0,0.0,0.0,0.0,0.0,0.0,0.0,0.0,0.0,0.0,0.0,0.0,0.0,0.0,0.0,0.0,0.0,0.0,0.0,0.0,0.0,0.0,0.0,0.0,0.0,0.0,0.0,0.0,0.0,0.0,0.0,0.0,0.0,0.0,0.0,0.0,0.0,0.0,0.0,0.0,0.0,0.0,0.0,0.0,0.0,0.0,0.0,0.0,0.0,0.0,0.0,0.0,0.0,0.0,0.0,0.0,0.0,0.0,0.0,0.0,0.0,0.0,0.0,0.0,0.0,0.0,0.0,0.0,0.0,0.0,0.0,0.0,0.0,0.0,0.0,0.0,0.0,0.0,0.0,0.0,0.0,0.0,0.0,0.0,0.0,0.0,0.0,0.0,0.0,0.0,0.0,0.0,0.0,0.0,0.0,0.0,0.0,0.0,0.0,0.0,0.0,0.0,0.0,0.0,0.0,0.0,0.0,0.0,0.0,0.0,0.0,0.0,0.0,0.0,0.0,0.0,0.0,0.0,0.0,0.0,0.0,0.0,0.0,0.0,0.0,0.0,0.0,0.0,0.0,0.0,0.0,0.0,0.0,0.0,0.0,0.0,0.0,0.0,0.0,0.0,0.0,0.0,0.0,0.0,0.0,0.0,0.0,0.0,0.0,0.0,0.0,0.0,0.0,0.0,0.0,0.0,0.0,0.0,0.0,0.0,0.0,0.0,0.0,0.0,0.0,0.0,0.0,0.0,0.0,0.0,0.0,0.0,0.0,0.0,0.0,0.0,0.0,0.0,0.0,0.0,0.0,0.0,0.0,0.0,0.0,0.0,0.0,0.0,0.0,0.0,0.0,0.0,0.0,0.0,0.0,0.0,0.0,0.0,0.0,0.0,0.0,0.0,0.0,0.0,0.0,0.0,0.0,0.0,0.0,0.0,0.0,0.0,0.0,0.0,0.0,0.0,0.0,0.0,0.0,0.0,0.0,0.0,0.0,0.0,0.0,0.0,0.0,0.0,0.0,0.0,0.0,0.0,0.0,0.0,0.0,0.0,0.0,0.0,0.0,0.0,0.0,0.0,0.0,0.0,0.0,0.0,0.0,0.0,0.0,0.0,0.0,0.0,0.0,0.0,0.0,0.0,0.0,0.0,0.0,0.0,0.0,0.0,0.0,0.0,0.0,0.0,0.0,0.0,0.0,0.0,0.0,0.0,0.0,0.0,0.0,0.0,0.0,0.0,0.0,0.0,0.0,0.0,0.0,0.0,0.0,0.0,0.0,0.0,0.0,0.0,0.0,0.0,0.0,0.0,0.0,0.0,0.0,0.0,0.0,0.0,0.0,0.0,0.0,0.0,0.0,0.0,0.0,0.0,0.0,0.0,0.0,0.0,0.0,0.0,0.0,0.0,0.0,0.0,0.0,0.0,0.0,0.0,0.0,0.0,0.0,0.0,0.0,0.0,0.0,0.0,0.0,0.0,0.0,0.0,0.0,0.0,0.0,0.0,0.0,0.0,0.0,0.0,0.0,0.0,0.0,0.0,0.0,0.0,0.0,0.0,0.0,0.0,0.0,0.0,0.0,0.0,0.0,0.0,0.0,0.0,0.0,0.0,0.0,0.0,0.0,0.0,0.0,0.0,0.0,0.0,0.0,0.0,0.0,0.0,0.0,0.0,0.0,0.0,0.0,0.0,0.0,0.0,0.0,0.0,0.0,0.0,0.0,0.0,0.0,0.0,0.0,0.0,0.0,0.0,0.0,0.0,0.0,0.0,0.0,0.0,0.0,0.0,0.0,0.0,0.0,0.0,0.0,0.0,0.0,0.0,0.0,0.0,0.0,0.0,0.0,0.0,0.0,0.0,0.0,0.0,0.0,0.0,0.0,0.0,0.0,0.0,0.0,0.0,0.0,0.0,0.0,0.0,0.0,0.0,0.0,0.0,0.0,-1.0933,0.0,0.0,0.0,0.0,0.0,0.0,0.0,0.0,0.0,0.0,0.0,0.0,0.0,0.0,0.0,0.0,0.0,0.0,0.0,0.0,0.0,0.0,0.0,0.0,0.0,0.0,0.0,0.0,0.0,0.0,0.0,0.0,0.0,0.0,0.0,0.0,0.0,0.0,0.0,0.0,0.0,0.0,0.0,0.0,0.0,0.0,0.0,0.0,0.0,0.0,0.0,0.0,0.0,0.0,0.0,0.0,0.0,0.0,0.0,0.0,0.0,0.0,0.0,0.0,0.0,0.0,0.0,0.0,0.0,0.0,0.0,0.0,0.0,0.0,0.0,0.0,0.0,0.0,0.0,0.0,0.0,0.0,0.0,0.0,0.0,0.0,0.0,0.0,0.0,0.0,0.0,0.0,0.0,0.0,0.0,0.0,0.0,0.0,0.0,0.0,0.0,0.0,0.0,0.0,0.0,0.0,0.0,0.0,0.0,0.0,-1.1185,-1.1059,-1.1435,-1.1498,-1.124,0.0,0.0,0.0,0.0,0.0,0.0,0.0,0.0,0.0,0.0,0.0,0.0,0.0,0.0,0.0,0.0,0.0,0.0,0.0,0.0,0.0,0.0,0.0,0.0,0.0,0.0,0.0,0.0,0.0,0.0,0.0,0.0,0.0,0.0,0.0,0.0,0.0,0.0,0.0,0.0,0.0,0.0,0.0,0.0,0.0,0.0,0.0,0.0,0.0,0.0,0.0,0.0,0.0,0.0,0.0,0.0,0.0,0.0,0.0,0.0,0.0,0.0,0.0,0.0,0.0,0.0,0.0,0.0,0.0,0.0,0.0,0.0,0.0,0.0,0.0,0.0,0.0,0.0,0.0,0.0,0.0,0.0,0.0,0.0,0.0,0.0,0.0,0.0,0.0,0.0,0.0,0.0,0.0,0.0,0.0,0.0,0.0,0.0,0.0,0.0,0.0,0.0,0.0,0.0,0.0,0.0,0.0,0.0,0.0,0.0,0.0,0.0,-1.1428,-1.156,-1.1498,0.0,0.0,0.0,0.0,0.0,0.0,0.0,0.0,0.0,0.0,0.0,0.0,0.0,0.0,0.0,0.0,0.0,0.0,0.0,0.0,0.0,0.0,0.0,0.0,0.0,0.0,0.0,0.0,0.0,0.0,0.0,0.0,0.0,0.0,0.0,0.0,0.0,0.0,0.0,0.0,0.0,0.0,0.0,0.0,0.0,0.0,0.0,0.0,0.0,0.0,0.0,0.0,0.0,0.0,0.0,0.0,0.0,0.0,0.0,0.0,0.0,0.0,0.0,0.0,0.0,0.0,0.0,0.0,0.0,0.0,0.0,0.0,0.0,0.0,0.0,0.0,0.0,0.0,0.0,0.0,0.0,0.0,0.0,0.0,0.0,0.0,0.0,0.0,0.0,0.0,0.0,0.0,0.0,0.0,0.0,0.0,0.0,0.0,0.0,0.0,0.0,0.0,0.0,0.0,0.0,0.0,0.0,0.0,0.0,0.0,-1.0401,-1.0401,-1.117,0.0,-1.1365,0.0,0.0,0.0,0.0,0.0,0.0,0.0,0.0,0.0,0.0,0.0,0.0,0.0,0.0,0.0,0.0,0.0,0.0,0.0,0.0,0.0,0.0,0.0,0.0,0.0,0.0,0.0,0.0,0.0,0.0,0.0,0.0,0.0,0.0,0.0,0.0,0.0,0.0,0.0,0.0,0.0,0.0,0.0,0.0,0.0,0.0,0.0,0.0,0.0,0.0,0.0,0.0,0.0,0.0,0.0,0.0,0.0,0.0,0.0,0.0,0.0,0.0,0.0,0.0,0.0,0.0,0.0,0.0,0.0,0.0,0.0,0.0,0.0,0.0,0.0,0.0,0.0,0.0,0.0,0.0,0.0,0.0,0.0,0.0,0.0,0.0,0.0,0.0,0.0,0.0,0.0,0.0,0.0,0.0,0.0,0.0,0.0,0.0,0.0,0.0,0.0,0.0,0.0,0.0,0.0,0.0,0.0,0.0,0.0,0.0,-1.0856,-1.0408,-1.1178,-1.1567,0.0,0.0,0.0,0.0,0.0,0.0,0.0,0.0,0.0,0.0,0.0,0.0,0.0,0.0,0.0,0.0,0.0,0.0,0.0,0.0,0.0,0.0,0.0,0.0,0.0,0.0,0.0,0.0,0.0,0.0,0.0,0.0,0.0,0.0,0.0,0.0,0.0,0.0,0.0,0.0,0.0,0.0,0.0,0.0,0.0,0.0,0.0,0.0,0.0,0.0,0.0,0.0,0.0,0.0,0.0,0.0,0.0,0.0,0.0,0.0,0.0,0.0,0.0,0.0,0.0,0.0,0.0,0.0,0.0,0.0,0.0,0.0,0.0,0.0,0.0,0.0,0.0,0.0,0.0,0.0,0.0,0.0,0.0,0.0,0.0,0.0,0.0,0.0,0.0,0.0,0.0,0.0,0.0,0.0,0.0,0.0,0.0,0.0,0.0,0.0,0.0,0.0,0.0,0.0,0.0,0.0,0.0,0.0,0.0,0.0,-1.073,-1.08,-1.0288,-1.0926,-1.1303,-1.131,0.0,0.0,0.0,0.0,0.0,0.0,0.0,0.0,0.0,0.0,0.0,0.0,0.0,0.0,0.0,0.0,0.0,0.0,0.0,0.0,0.0,0.0,0.0,0.0,0.0,0.0,0.0,0.0,0.0,0.0,0.0,0.0,0.0,0.0,0.0,0.0,0.0,0.0,0.0,0.0,0.0,0.0,0.0,0.0,0.0,0.0,0.0,0.0,0.0,0.0,0.0,0.0,0.0,0.0,0.0,0.0,0.0,0.0,0.0,0.0,0.0,0.0,0.0,0.0,0.0,0.0,0.0,0.0,0.0,0.0,0.0,0.0,0.0,0.0,0.0,0.0,0.0,0.0,0.0,0.0,0.0,0.0,0.0,0.0,0.0,0.0,0.0,0.0,0.0,0.0,0.0,0.0,0.0,0.0,0.0,0.0,0.0,0.0,0.0,0.0,0.0,0.0,0.0,0.0,0.0,0.0,0.0,0.0,-0.9582,-0.9582,-0.9582,-0.9582,-1.0225,-1.0548,0.0,0.0,0.0,0.0,0.0,0.0,0.0,0.0,0.0,0.0,0.0,0.0,0.0,0.0,0.0,0.0,0.0,0.0,0.0,0.0,0.0,0.0,0.0,0.0,0.0,0.0,0.0,0.0,0.0,0.0,0.0,0.0,0.0,0.0,0.0,0.0,0.0,0.0,0.0,0.0,0.0,0.0,0.0,0.0,0.0,0.0,0.0,0.0,0.0,0.0,0.0,0.0,0.0,0.0,0.0,0.0,0.0,0.0,0.0,0.0,0.0,0.0,0.0,0.0,0.0,0.0,0.0,0.0,0.0,0.0,0.0,0.0,0.0,0.0,0.0,0.0,0.0,0.0,0.0,0.0,0.0,0.0,0.0,0.0,0.0,0.0,0.0,0.0,0.0,0.0,0.0,0.0,0.0,0.0,0.0,0.0,0.0,0.0,0.0,0.0,0.0,0.0,0.0,0.0,0.0,0.0,0.0,0.0,0.0,-0.8877,-0.8877,-0.9064,-0.9518,-0.9773,-0.9837,0.0,0.0,0.0,0.0,0.0,0.0,0.0,0.0,0.0,0.0,0.0,0.0,0.0,0.0,0.0,0.0,0.0,0.0,0.0,0.0,0.0,0.0,0.0,0.0,0.0,0.0,0.0,0.0,0.0,0.0,0.0,0.0,0.0,0.0,0.0,0.0,0.0,0.0,0.0,0.0,0.0,0.0,0.0,0.0,0.0,0.0,0.0,0.0,0.0,0.0,0.0,0.0,0.0,0.0,0.0,0.0,0.0,0.0,0.0,0.0,0.0,0.0,0.0,0.0,0.0,0.0,0.0,0.0,0.0,0.0,0.0,0.0,0.0,0.0,0.0,0.0,0.0,0.0,0.0,0.0,0.0,0.0,0.0,0.0,0.0,0.0,0.0,0.0,0.0,0.0,0.0,0.0,0.0,0.0,0.0,0.0,0.0,0.0,0.0,0.0,0.0,0.0,0.0,0.0,0.0,0.0,0.0,0.0,0.0,-0.849,0.0,-0.8355,-0.8807,-0.9069,-0.9192,0.0,0.0,0.0,0.0,0.0,0.0,0.0,0.0,0.0,0.0,0.0,0.0,0.0,0.0,0.0,0.0,0.0,0.0,0.0,0.0,0.0,0.0,0.0,0.0,0.0,0.0,0.0,0.0,0.0,0.0,0.0,0.0,0.0,0.0,0.0,0.0,0.0,0.0,0.0,0.0,0.0,0.0,0.0,0.0,0.0,0.0,0.0,0.0,0.0,0.0,0.0,0.0,0.0,0.0,0.0,0.0,0.0,0.0,0.0,0.0,0.0,0.0,0.0,0.0,0.0,0.0,0.0,0.0,0.0,0.0,0.0,0.0,0.0,0.0,0.0,0.0,0.0,0.0,0.0,0.0,0.0,0.0,0.0,0.0,0.0,0.0,0.0,0.0,0.0,0.0,0.0,0.0,0.0,0.0,0.0,0.0,0.0,0.0,0.0,0.0,0.0,0.0,0.0,0.0,0.0,0.0,0.0,0.0,-0.8994,-0.8484,-0.7847,-0.7526,-0.7521,-0.8166,-0.849,0.0,0.0,0.0,0.0,0.0,0.0,0.0,0.0,0.0,0.0,0.0,0.0,0.0,0.0,0.0,0.0,0.0,0.0,0.0,0.0,0.0,0.0,0.0,0.0,0.0,0.0,0.0,0.0,0.0,0.0,0.0,0.0,0.0,0.0,0.0,0.0,0.0,0.0,0.0,0.0,0.0,0.0,0.0,0.0,0.0,0.0,0.0,0.0,0.0,0.0,0.0,0.0,0.0,0.0,0.0,0.0,0.0,0.0,0.0,0.0,0.0,0.0,0.0,0.0,0.0,0.0,0.0,0.0,0.0,0.0,0.0,0.0,0.0,0.0,0.0,0.0,0.0,0.0,0.0,0.0,0.0,0.0,0.0,0.0,0.0,0.0,0.0,0.0,0.0,0.0,0.0,0.0,0.0,0.0,0.0,0.0,0.0,0.0,0.0,0.0,0.0,0.0,0.0,0.0,0.0,0.0,0.0,0.0,0.0,-0.7782,-0.7587,-0.7526,-0.7526,-0.7717,-0.7847,0.0,0.0,0.0,0.0,0.0,0.0,0.0,0.0,0.0,0.0,0.0,0.0,0.0,0.0,0.0,0.0,0.0,0.0,0.0,0.0,0.0,0.0,0.0,0.0,0.0,0.0,0.0,0.0,0.0,0.0,0.0,0.0,0.0,0.0,0.0,0.0,0.0,0.0,0.0,0.0,0.0,0.0,0.0,0.0,0.0,0.0,0.0,0.0,0.0,0.0,0.0,0.0,0.0,0.0,0.0,0.0,0.0,0.0,0.0,0.0,0.0,0.0,0.0,0.0,0.0,0.0,0.0,0.0,0.0,0.0,0.0,0.0,0.0,0.0,0.0,0.0,0.0,0.0,0.0,0.0,0.0,0.0,0.0,0.0,0.0,0.0,0.0,0.0,0.0,0.0,0.0,0.0,0.0,0.0,0.0,0.0,0.0,0.0,0.0,0.0,0.0,0.0,0.0,0.0,0.0,0.0,0.0,0.0,0.0,-0.7396,-0.7396,-0.733,-0.7265,-0.7456,-0.7456,-0.7396,0.0,0.0,0.0,0.0,0.0,0.0,0.0,0.0,0.0,0.0,0.0,0.0,0.0,0.0,0.0,0.0,0.0,0.0,0.0,0.0,0.0,0.0,0.0,0.0,0.0,0.0,0.0,0.0,0.0,0.0,0.0,0.0,0.0,0.0,0.0,0.0,0.0,0.0,0.0,0.0,0.0,0.0,0.0,0.0,0.0,0.0,0.0,0.0,0.0,0.0,0.0,0.0,0.0,0.0,0.0,0.0,0.0,0.0,0.0,0.0,0.0,0.0,0.0,0.0,0.0,0.0,0.0,0.0,0.0,0.0,0.0,0.0,0.0,0.0,0.0,0.0,0.0,0.0,0.0,0.0,0.0,0.0,0.0,0.0,0.0,0.0,0.0,0.0,0.0,0.0,0.0,0.0,0.0,0.0,0.0,0.0,0.0,0.0,0.0,0.0,0.0,0.0,0.0,0.0,0.0,0.0,0.0,0.0,-0.7204,-0.7204,-0.7138,-0.6946,-0.733,-0.7396,0.0,0.0,0.0,0.0,0.0,0.0,0.0,0.0,0.0,0.0,0.0,0.0,0.0,0.0,0.0,0.0,0.0,0.0,0.0,0.0,0.0,0.0,0.0,0.0,0.0,0.0,0.0,0.0,0.0,0.0,0.0,0.0,0.0,0.0,0.0,0.0,0.0,0.0,0.0,0.0,0.0,0.0,0.0,0.0,0.0,0.0,0.0,0.0,0.0,0.0,0.0,0.0,0.0,0.0,0.0,0.0,0.0,0.0,0.0,0.0,0.0,0.0,0.0,0.0,0.0,0.0,0.0,0.0,0.0,0.0,0.0,0.0,0.0,0.0,0.0,0.0,0.0,0.0,0.0,0.0,0.0,0.0,0.0,0.0,0.0,0.0,0.0,0.0,0.0,0.0,0.0,0.0,0.0,0.0,0.0,0.0,0.0,0.0,0.0,0.0,0.0,0.0,0.0,0.0,0.0,0.0,0.0,0.0,0.0,-0.7007,-0.6946,-0.7073,-0.733,-0.7456,-0.7456,0.0,0.0,0.0,0.0,0.0,0.0,0.0,0.0,0.0,0.0,0.0,0.0,0.0,0.0,0.0,0.0,0.0,0.0,0.0,0.0,0.0,0.0,0.0,0.0,0.0,0.0,0.0,0.0,0.0,0.0,0.0,0.0,0.0,0.0,0.0,0.0,0.0,0.0,0.0,0.0,0.0,0.0,0.0,0.0,0.0,0.0,0.0,0.0,0.0,0.0,0.0,0.0,0.0,0.0,0.0,0.0,0.0,0.0,0.0,0.0,0.0,0.0,0.0,0.0,0.0,0.0,0.0,0.0,0.0,0.0,0.0,0.0,0.0,0.0,0.0,0.0,0.0,0.0,0.0,0.0,0.0,0.0,0.0,0.0,0.0,0.0,0.0,0.0,0.0,0.0,0.0,0.0,0.0,0.0,0.0,0.0,0.0,0.0,0.0,0.0,0.0,0.0,0.0,0.0,0.0,0.0,0.0,0.0,-0.7073,-0.6881,-0.7007,-0.7138,-0.7396,-0.7396,-0.7396,0.0,0.0,0.0,0.0,0.0,0.0,0.0,0.0,0.0,0.0,0.0,0.0,0.0,0.0,0.0,0.0,0.0,0.0,0.0,0.0,0.0,0.0,0.0,0.0,0.0,0.0,0.0,0.0,0.0,0.0,0.0,0.0,0.0,0.0,0.0,0.0,0.0,0.0,0.0,0.0,0.0,0.0,0.0,0.0,0.0,0.0,0.0,0.0,0.0,0.0,0.0,0.0,0.0,0.0,0.0,0.0,0.0,0.0,0.0,0.0,0.0,0.0,0.0,0.0,0.0,0.0,0.0,0.0,0.0,0.0,0.0,0.0,0.0,0.0,0.0,0.0,0.0,0.0,0.0,0.0,0.0,0.0,0.0,0.0,0.0,0.0,0.0,0.0,0.0,0.0,0.0,0.0,0.0,0.0,0.0,0.0,0.0,0.0,0.0,0.0,0.0,0.0,0.0,0.0,0.0,0.0,0.0,0.0,-0.726,-0.6881,-0.7073,-0.7134,-0.7199,-0.7199,-0.7199,0.0,0.0,0.0,0.0,0.0,0.0,0.0,0.0,0.0,0.0,0.0,0.0,0.0,0.0,0.0,0.0,0.0,0.0,0.0,0.0,0.0,0.0,0.0,0.0,0.0,0.0,0.0,0.0,0.0,0.0,0.0,0.0,0.0,0.0,0.0,0.0,0.0,0.0,0.0,0.0,0.0,0.0,0.0,0.0,0.0,0.0,0.0,0.0,0.0,0.0,0.0,0.0,0.0,0.0,0.0,0.0,0.0,0.0,0.0,0.0,0.0,0.0,0.0,0.0,0.0,0.0,0.0,0.0,0.0,0.0,0.0,0.0,0.0,0.0,0.0,0.0,0.0,0.0,0.0,0.0,0.0,0.0,0.0,0.0,0.0,0.0,0.0,0.0,0.0,0.0,0.0,0.0,0.0,0.0,0.0,0.0,0.0,0.0,0.0,0.0,0.0,0.0,0.0,0.0,0.0,0.0,0.0,0.0,-0.6802,-0.6741,-0.6806,-0.6876,-0.6946,-0.6946,-0.7012,0.0,0.0,0.0,0.0,0.0,0.0,0.0,0.0,0.0,0.0,0.0,0.0,0.0,0.0,0.0,0.0,0.0,0.0,0.0,0.0,0.0,0.0,0.0,0.0,0.0,0.0,0.0,0.0,0.0,0.0,0.0,0.0,0.0,0.0,0.0,0.0,0.0,0.0,0.0,0.0,0.0,0.0,0.0,0.0,0.0,0.0,0.0,0.0,-0.6163,0.0,0.0,0.0,0.0,0.0,0.0,0.0,0.0,0.0,0.0,0.0,0.0,0.0,0.0,0.0,0.0,0.0,0.0,0.0,0.0,0.0,0.0,0.0,0.0,0.0,0.0,0.0,0.0,0.0,0.0,0.0,0.0,0.0,0.0,0.0,0.0,0.0,0.0,0.0,0.0,0.0,0.0,0.0,0.0,0.0,0.0,0.0,0.0,0.0,0.0,0.0,0.0,0.0,0.0,0.0,0.0,0.0,0.0,0.0,-0.6741,-0.6741,-0.6741,-0.6741,-0.6811,-0.6745,-0.6811,0.0,0.0,0.0,0.0,0.0,0.0,0.0,0.0,0.0,0.0,0.0,0.0,0.0,0.0,0.0,0.0,0.0,0.0,0.0,0.0,0.0,0.0,0.0,0.0,0.0,0.0,0.0,0.0,0.0,0.0,0.0,0.0,0.0,0.0,0.0,0.0,0.0,0.0,0.0,0.0,0.0,0.0,0.0,0.0,0.0,0.0,0.0,0.0,0.0,0.0,0.0,0.0,0.0,0.0,0.0,0.0,0.0,0.0,0.0,0.0,0.0,0.0,0.0,0.0,0.0,0.0,0.0,0.0,0.0,0.0,0.0,0.0,0.0,0.0,0.0,0.0,0.0,0.0,0.0,0.0,0.0,0.0,0.0,0.0,0.0,0.0,0.0,0.0,0.0,0.0,0.0,0.0,0.0,0.0,0.0,0.0,0.0,0.0,0.0,0.0,0.0,0.0,0.0,0.0,0.0,0.0,0.0,-0.6884,-0.6897,-0.6764,-0.6759,-0.6764,-0.6759,-0.6564,-0.6635,-0.6901,0.0,0.0,0.0,0.0,0.0,0.0,0.0,0.0,0.0,0.0,0.0,0.0,0.0,0.0,0.0,0.0,0.0,0.0,0.0,0.0,0.0,0.0,0.0,0.0,0.0,0.0,0.0,0.0,0.0,0.0,0.0,0.0,0.0,0.0,0.0,0.0,0.0,0.0,-1.0507,-1.0793,0.0,0.0,0.0,0.0,0.0,0.0,0.0,0.0,-0.6001,0.0,0.0,0.0,0.0,0.0,0.0,0.0,0.0,0.0,0.0,0.0,0.0,0.0,0.0,0.0,0.0,0.0,0.0,0.0,0.0,0.0,0.0,0.0,0.0,0.0,0.0,0.0,0.0,0.0,0.0,0.0,0.0,0.0,0.0,0.0,0.0,0.0,0.0,0.0,0.0,0.0,0.0,0.0,0.0,0.0,0.0,0.0,0.0,0.0,0.0,0.0,0.0,0.0,0.0,0.0,0.0,-0.6844,-0.6929,-0.6933,-0.6933,-0.6933,-0.6933,-0.6933,-0.6933,-0.6937,-0.6991,0.0,0.0,0.0,0.0,0.0,0.0,0.0,0.0,0.0,0.0,0.0,0.0,0.0,0.0,0.0,0.0,0.0,0.0,0.0,0.0,0.0,0.0,0.0,0.0,0.0,0.0,0.0,0.0,0.0,0.0,0.0,0.0,0.0,0.0,0.0,0.0,0.0,0.0,0.0,-1.0521,-1.0096,0.0,0.0,0.0,0.0,0.0,0.0,0.0,0.0,-0.6261,0.0,0.0,0.0,0.0,0.0,0.0,0.0,0.0,0.0,0.0,0.0,0.0,0.0,0.0,0.0,0.0,0.0,0.0,0.0,0.0,0.0,0.0,0.0,0.0,0.0,0.0,0.0,0.0,0.0,0.0,0.0,0.0,0.0,0.0,0.0,0.0,0.0,0.0,0.0,0.0,0.0,0.0,0.0,0.0,0.0,0.0,0.0,0.0,0.0,0.0,0.0,0.0,0.0,0.0,0.0,-0.7032,-0.7049,-0.7019,-0.7019,-0.7019,-0.7019,-0.7019,-0.7019,-0.7019,0.0,0.0,0.0,0.0,0.0,0.0,0.0,0.0,0.0,0.0,0.0,0.0,0.0,0.0,0.0,0.0,0.0,0.0,0.0,0.0,0.0,0.0,0.0,0.0,0.0,0.0,0.0,0.0,0.0,0.0,0.0,0.0,0.0,0.0,0.0,0.0,0.0,0.0,0.0,0.0,-1.049,-0.9979,-0.9195,0.0,0.0,0.0,0.0,0.0,0.0,-0.6742,-0.6294,0.0,0.0,0.0,0.0,0.0,0.0,0.0,0.0,0.0,0.0,0.0,0.0,0.0,0.0,0.0,0.0,0.0,0.0,0.0,0.0,0.0,0.0,0.0,0.0,0.0,0.0,0.0,0.0,0.0,0.0,0.0,0.0,0.0,0.0,0.0,0.0,0.0,0.0,0.0,0.0,0.0,0.0,0.0,0.0,0.0,0.0,0.0,0.0,0.0,0.0,0.0,0.0,0.0,0.0,0.0,-0.7284,-0.7182,-0.713,-0.713,-0.713,-0.7058,-0.713,-0.7134,-0.7134,0.0,0.0,0.0,0.0,0.0,0.0,0.0,0.0,0.0,0.0,0.0,0.0,0.0,0.0,0.0,0.0,0.0,0.0,0.0,0.0,0.0,0.0,0.0,0.0,0.0,0.0,0.0,0.0,0.0,0.0,0.0,0.0,0.0,0.0,0.0,0.0,0.0,0.0,0.0,0.0,0.0,-0.9748,-0.9267,-0.8646,0.0,0.0,0.0,0.0,-0.8127,-0.7064,0.0,0.0,0.0,0.0,0.0,0.0,0.0,0.0,0.0,0.0,0.0,0.0,0.0,0.0,0.0,0.0,0.0,0.0,0.0,0.0,0.0,0.0,0.0,0.0,0.0,0.0,0.0,0.0,0.0,0.0,0.0,0.0,0.0,0.0,0.0,0.0,0.0,0.0,0.0,0.0,0.0,0.0,0.0,0.0,0.0,0.0,0.0,0.0,0.0,0.0,0.0,0.0,0.0,0.0,0.0,0.0,-0.7703,-0.7568,-0.7419,-0.7423,-0.7419,-0.7419,-0.7423,-0.7419,-0.7419,0.0,0.0,0.0,0.0,0.0,0.0,0.0,0.0,0.0,0.0,0.0,0.0,0.0,0.0,0.0,0.0,0.0,0.0,0.0,0.0,0.0,0.0,0.0,0.0,0.0,0.0,0.0,0.0,0.0,0.0,0.0,0.0,0.0,0.0,0.0,0.0,0.0,0.0,0.0,0.0,0.0,-0.8902,-0.9374,-0.8902,-0.8429,0.0,0.0,-0.7756,-0.7657,-0.7265,0.0,0.0,0.0,0.0,0.0,0.0,0.0,0.0,0.0,0.0,0.0,0.0,0.0,0.0,0.0,0.0,0.0,0.0,0.0,0.0,0.0,0.0,0.0,0.0,0.0,0.0,0.0,0.0,0.0,0.0,0.0,0.0,0.0,0.0,0.0,0.0,0.0,0.0,0.0,0.0,0.0,0.0,0.0,0.0,0.0,0.0,0.0,0.0,0.0,0.0,0.0,0.0,0.0,0.0,0.0,-0.7522,-0.7593,-0.752,-0.748,-0.748,-0.748,-0.748,-0.748,-0.748,-0.748,0.0,0.0,0.0,0.0,0.0,0.0,0.0,0.0,0.0,0.0,0.0,0.0,0.0,0.0,0.0,0.0,0.0,0.0,0.0,0.0,0.0,0.0,0.0,0.0,0.0,0.0,0.0,0.0,0.0,0.0,0.0,0.0,0.0,0.0,0.0,0.0,0.0,0.0,0.0,0.0,0.0,0.0,-0.9484,-0.8947,0.0,0.0,0.0,-0.7852,-0.8301,0.0,0.0,0.0,0.0,0.0,0.0,0.0,0.0,0.0,0.0,0.0,0.0,0.0,0.0,0.0,0.0,0.0,0.0,0.0,0.0,0.0,0.0,0.0,0.0,0.0,0.0,0.0,0.0,0.0,0.0,0.0,0.0,0.0,0.0,0.0,0.0,0.0,0.0,0.0,0.0,0.0,0.0,0.0,0.0,0.0,0.0,0.0,0.0,0.0,0.0,0.0,0.0,0.0,0.0,0.0,0.0,0.0,-0.7561,-0.7557,-0.748,-0.748,-0.748,-0.748,-0.748,-0.748,0.0,0.0,0.0,0.0,0.0,0.0,0.0,0.0,0.0,0.0,0.0,0.0,0.0,0.0,0.0,0.0,0.0,0.0,0.0,0.0,0.0,0.0,0.0,0.0,0.0,0.0,0.0,-0.7526,0.0,0.0,0.0,0.0,0.0,0.0,0.0,0.0,0.0,0.0,0.0,0.0,0.0,0.0,-0.9285,-0.9484,-0.9087,-0.8888,0.0,0.0,-0.7982,-0.863,-0.7787,-0.7077,0.0,0.0,0.0,0.0,0.0,0.0,0.0,0.0,0.0,0.0,0.0,0.0,0.0,0.0,0.0,0.0,0.0,0.0,0.0,0.0,0.0,0.0,0.0,0.0,0.0,0.0,0.0,0.0,0.0,0.0,0.0,0.0,0.0,0.0,0.0,0.0,0.0,0.0,0.0,0.0,0.0,0.0,0.0,0.0,0.0,0.0,0.0,0.0,0.0,0.0,0.0,0.0,0.0,0.0,0.0,-0.7799,-0.7561,-0.748,-0.748,-0.748,-0.748,-0.748,-0.748,-0.748,0.0,0.0,0.0,0.0,0.0,0.0,0.0,0.0,0.0,0.0,0.0,0.0,0.0,0.0,0.0,0.0,0.0,0.0,0.0,0.0,0.0,0.0,0.0,0.0,0.0,0.0,0.0,0.0,0.0,0.0,0.0,0.0,0.0,0.0,0.0,0.0,0.0,0.0,0.0,0.0,0.0,-0.8818,-0.942,-0.9484,-0.935,0.0,0.0,-0.8382,-0.8117,-0.7722,-0.726,-0.6806,0.0,0.0,0.0,0.0,0.0,0.0,0.0,0.0,0.0,0.0,0.0,0.0,0.0,0.0,0.0,0.0,0.0,0.0,0.0,0.0,0.0,0.0,0.0,0.0,0.0,0.0,0.0,0.0,0.0,0.0,0.0,0.0,0.0,0.0,0.0,0.0,0.0,0.0,0.0,0.0,0.0,0.0,0.0,0.0,0.0,0.0,0.0,0.0,0.0,0.0,0.0,0.0,0.0,-0.7561,-0.7799,-0.7638,-0.7561,-0.7718,-0.7561,-0.7561,-0.7642,-0.7561,-0.748,0.0,0.0,0.0,0.0,0.0,0.0,0.0,0.0,0.0,0.0,0.0,0.0,0.0,0.0,0.0,0.0,0.0,0.0,0.0,0.0,0.0,0.0,0.0,0.0,0.0,0.0,0.0,0.0,-0.7526,-0.7787,-0.8447,0.0,0.0,0.0,0.0,0.0,0.0,0.0,0.0,0.0,0.0,-0.9151,-0.9151,-0.9215,0.0,0.0,-0.8376,-0.8117,-0.8047,-0.7722,-0.7391,-0.7195,-0.7003,0.0,0.0,0.0,0.0,0.0,0.0,0.0,0.0,0.0,0.0,0.0,0.0,0.0,0.0,0.0,0.0,0.0,0.0,0.0,0.0,0.0,0.0,0.0,0.0,0.0,0.0,0.0,0.0,0.0,0.0,0.0,0.0,0.0,0.0,0.0,0.0,0.0,0.0,0.0,0.0,0.0,0.0,0.0,0.0,0.0,0.0,0.0,0.0,0.0,0.0,0.0,0.0,-0.7721,-0.7882,-0.7725,-0.7721,-0.7886,-0.7721,-0.7721,-0.7807,-0.7725,-0.7638,0.0,0.0,0.0,0.0,0.0,0.0,0.0,0.0,0.0,0.0,0.0,0.0,0.0,0.0,0.0,0.0,0.0,0.0,0.0,0.0,0.0,0.0,0.0,0.0,0.0,0.0,0.0,0.0,-0.7587,-0.7857,-0.8452,0.0,0.0,0.0,0.0,0.0,0.0,0.0,0.0,0.0,0.0,-0.9498,-0.9234,-0.9311,-0.9173,-0.8589,-0.845,-0.8251,-0.8046,-0.7846,-0.764,-0.7712,0.0,0.0,0.0,0.0,0.0,0.0,0.0,0.0,0.0,0.0,0.0,0.0,0.0,0.0,0.0,0.0,0.0,0.0,0.0,0.0,0.0,0.0,0.0,0.0,0.0,0.0,0.0,0.0,0.0,0.0,-0.3295,0.0,0.0,0.0,0.0,0.0,0.0,0.0,0.0,0.0,0.0,0.0,0.0,0.0,0.0,0.0,0.0,0.0,0.0,0.0,0.0,0.0,0.0,-0.7996,-0.8,-0.7988,-0.7992,-0.7996,-0.8,-0.7992,-0.7992,-0.8,-0.8,-0.7992,0.0,0.0,0.0,0.0,0.0,0.0,0.0,0.0,0.0,0.0,0.0,0.0,0.0,0.0,0.0,0.0,0.0,0.0,0.0,0.0,0.0,0.0,0.0,0.0,0.0,0.0,-0.754,-0.7792,-0.8132,0.0,0.0,0.0,0.0,0.0,0.0,0.0,0.0,0.0,0.0,-0.9868,-0.9823,-0.9719,-1.0031,-0.98,-0.8764,-0.8904,-0.8899,-0.8192,-0.8061,-0.807,0.0,0.0,0.0,0.0,0.0,0.0,0.0,0.0,0.0,0.0,0.0,0.0,0.0,0.0,0.0,0.0,0.0,0.0,0.0,0.0,0.0,0.0,0.0,0.0,0.0,0.0,0.0,-0.389,-0.3961,0.0,0.0,0.0,0.0,0.0,0.0,0.0,0.0,0.0,0.0,0.0,-0.6479,-0.7257,0.0,0.0,0.0,0.0,0.0,0.0,0.0,0.0,0.0,0.0,0.0,0.0,-0.8094,-0.8185,-0.8094,-0.8094,-0.8185,-0.8267,-0.8267,-0.8185,-0.8349,-0.8513,-0.8673,0.0,0.0,0.0,0.0,0.0,0.0,0.0,0.0,0.0,0.0,0.0,0.0,0.0,0.0,0.0,0.0,0.0,0.0,0.0,0.0,0.0,0.0,0.0,0.0,0.0,-0.7872,0.0,0.0,0.0,0.0,0.0,0.0,0.0,0.0,0.0,0.0,0.0,-1.003,-1.0119,-1.0131,-0.9949,-0.948,-0.9486,-0.927,0.0,0.0,0.0,0.0,0.0,0.0,0.0,0.0,0.0,0.0,0.0,0.0,0.0,0.0,-0.7112,-0.6282,-0.6073,-0.6003,-0.5863,0.0,0.0,0.0,0.0,0.0,0.0,0.0,0.0,0.0,0.0,0.0,0.0,0.0,0.0,-0.4784,0.0,-0.5294,0.0,0.0,0.0,0.0,0.0,0.0,0.0,0.0,-0.7234,-0.7243,-0.6874,-0.7549,-0.7845,0.0,-0.7959,-0.7992,0.0,0.0,0.0,0.0,0.0,0.0,0.0,0.0,-0.8291,-0.8383,-0.8291,-0.8291,-0.8468,-0.8552,-0.8632,-0.8636,-0.88,-0.8963,-0.9131,-0.9215,-0.9183,0.0,0.0,0.0,0.0,0.0,0.0,0.0,0.0,0.0,0.0,0.0,0.0,0.0,0.0,0.0,0.0,0.0,0.0,0.0,0.0,0.0,0.0,0.0,-0.808,0.0,0.0,0.0,0.0,0.0,0.0,0.0,0.0,0.0,-1.0042,-1.0087,-1.0154,-1.0249,-1.0119,-0.9859,-0.9299,0.0,0.0,0.0,0.0,0.0,0.0,0.0,-0.8297,-0.8297,-0.8006,-0.7788,-0.7788,-0.7788,-0.7934,-0.8292,0.0,0.0,-0.6968,-0.6805,-0.6734,-0.652,-0.6082,-0.5801,-0.5801,-0.5378,-0.504,0.0,0.0,0.0,0.0,0.0,0.0,0.0,0.0,-0.4873,-0.4876,0.0,-0.496,0.0,0.0,0.0,0.0,0.0,-0.7679,0.0,0.0,-0.7923,-0.8008,-0.8004,-0.8016,-0.802,-0.802,-0.8032,-0.8126,-0.828,-0.8117,0.0,0.0,0.0,0.0,0.0,0.0,-0.8572,-0.856,-0.856,-0.8652,-0.8907,-0.8903,-0.899,-0.934,-0.9253,-0.9336,-0.9345,-0.9501,-0.9511,-0.9329,-0.9489,0.0,0.0,0.0,0.0,0.0,0.0,0.0,0.0,0.0,0.0,0.0,0.0,0.0,0.0,0.0,0.0,0.0,0.0,0.0,0.0,-0.8099,0.0,0.0,0.0,0.0,0.0,0.0,0.0,0.0,0.0,0.0,-1.0189,-0.995,-0.982,-1.0052,0.0,0.0,0.0,0.0,-0.9609,-0.8846,-0.9013,-0.916,-0.877,-0.8694,-0.8694,-0.8694,0.0,0.0,-0.8699,-0.8699,-0.8689,-0.8699,-0.868,-0.8426,-0.7538,-0.7343,-0.7191,-0.6765,-0.6618,-0.6531,-0.6527,-0.6437,-0.6425,-0.6521,0.0,0.0,0.0,0.0,-0.5661,-0.5967,-0.65,-0.6342,-0.6266,-0.6349,-0.6381,0.0,0.0,0.0,0.0,0.0,0.0,-0.7702,-0.7784,-0.791,-0.8012,-0.8016,-0.815,-0.8211,-0.8219,-0.8345,-0.8434,-0.8483,-0.8434,-0.8406,-0.841,0.0,0.0,0.0,0.0,-0.8572,-0.8572,-0.8572,-0.8652,-0.8656,-0.9003,-0.9345,-0.9781,-0.9432,-0.9432,-0.9777,-0.9868,-0.984,-0.978,-0.9866,0.0,0.0,0.0,0.0,0.0,0.0,0.0,0.0,0.0,0.0,0.0,0.0,0.0,0.0,0.0,0.0,0.0,0.0,0.0,-0.8524,-0.8524,-0.8524,0.0,0.0,0.0,0.0,0.0,0.0,0.0,0.0,0.0,-1.0018,-0.9939,-0.9892,0.0,0.0,-0.9697,-0.9387,-0.9397,-0.9316,-0.878,-0.878,0.0,0.0,-0.8703,-0.8703,-0.8703,-0.8703,-0.8703,-0.8703,-0.8703,-0.8703,-0.8703,-0.8703,-0.858,-0.8407,-0.83,-0.8221,-0.8071,-0.7668,-0.7281,-0.7273,-0.6893,-0.6527,-0.7472,-0.6896,-0.6893,-0.6896,-0.6741,-0.6662,-0.6828,-0.7224,-0.7141,-0.7062,-0.7066,-0.717,-0.7215,-0.7219,-0.7237,0.0,0.0,0.0,-0.7708,-0.7625,-0.803,-0.8231,-0.8066,-0.8345,-0.8402,-0.8406,-0.8511,-0.8572,-0.8572,-0.8633,-0.8666,-0.8666,0.0,0.0,-0.8572,-0.8572,-0.8572,-0.8572,-0.8572,-0.8652,-0.874,-0.9087,-0.9432,-0.9689,-0.9432,-0.9437,-0.9864,-0.9864,-0.9864,-1.0038,-1.0038,-0.9894,0.0,0.0,0.0,0.0,0.0,0.0,0.0,0.0,0.0,0.0,0.0,-0.8703,-0.8703,0.0,0.0,0.0,-0.8703,-0.8703,-0.8703,-0.8703,0.0,0.0,0.0,0.0,0.0,0.0,0.0,-0.9199,-0.9306,-0.9463,-0.9458,-0.9463,-0.9463,-0.962,-0.9544,-0.9311,-0.9089,0.0,-0.9013,-0.8775,-0.8703,-0.8703,-0.8703,-0.8774,-0.8855,-0.8935,-0.8949,-0.8949,-0.8944,-0.8944,-0.8921,-0.885,-0.8831,-0.8798,-0.8718,-0.8703,-0.8703,-0.8703,-0.8374,-0.8062,-0.8058,-0.7673,-0.7379,-0.8044,-0.8057,-0.7974,-0.7875,-0.7694,-0.7608,-0.7525,-0.7281,-0.7278,-0.7281,-0.7281,-0.7296,-0.7307,-0.7239,-0.7318,0.0,-0.7329,-0.7731,-0.78,-0.7629,-0.8325,-0.8492,-0.822,-0.8512,-0.8609,-0.8609,-0.8605,-0.8609,-0.8621,-0.8771,-0.8844,-0.884,-0.8686,-0.8609,-0.8609,-0.8613,-0.8609,-0.8609,-0.8617,-0.8697,-0.8958,-0.913,-0.9297,-0.9284,-0.9284,-0.9362,-0.9602,-0.9607,-0.9689,-0.9951,-0.9951,-1.0038,-1.0038,0.0,0.0,0.0,0.0,0.0,0.0,0.0,0.0,0.0,0.0,0.0,0.0,0.0,0.0,0.0,-0.8713,0.0,-0.8703,-0.8703,0.0,0.0,0.0,-0.8703,-0.8727,-0.8727,-0.8732,-0.8751,0.0,0.0,-0.8823,-0.8827,-0.8904,-0.9372,-0.9047,-0.8732,-0.8751,-0.8765,-0.8751,-0.8779,-0.876,-0.8755,-0.8798,-0.893,-0.91,-0.9252,-0.9322,-0.9299,-0.9294,-0.9299,-0.9237,-0.9077,-0.9048,-0.8996,-0.8789,-0.8784,-0.8751,-0.877,-0.8722,-0.8699,-0.8609,-0.8599,-0.8585,-0.8215,-0.8159,-0.8163,-0.8013,-0.7694,-0.7357,-0.7109,-0.7026,-0.695,-0.6864,-0.6874,-0.6908,-0.7022,-0.7121,-0.7121,-0.7121,-0.7212,-0.7428,-0.7712,-0.7891,-0.8325,-0.8493,-0.8407,-0.8814,-0.8874,-0.8686,-0.8874,-0.8974,-0.897,-0.9011,-0.9031,-0.9031,-0.8991,-0.897,-0.897,-0.897,-0.897,-0.897,-0.8974,-0.9062,-0.9238,-0.9154,-0.9266,-0.949,-0.9298,-0.9318,-0.9354,-0.9519,-0.9602,-0.9689,-0.9859,-1.0038,-1.0038,-1.0038,0.0,0.0,0.0,0.0,0.0,0.0,0.0,0.0,0.0,-0.9176,-0.9176,0.0,-0.911,0.0,-0.8798,-0.8703,-0.8703,-0.8703,0.0,0.0,-0.8703,-0.8765,-0.8926,-0.8944,-0.9006,-0.9162,-0.9176,-0.9412,-1.0131,-0.9572,-0.9497,-1.0211,-0.9513,-0.9001,-0.9143,-0.9176,-0.9171,-0.9167,-0.9157,-0.9176,-0.9171,-0.9214,-0.9271,-0.9313,-0.9327,-0.9322,-0.9322,-0.9322,-0.9304,-0.9261,-0.9252,-0.9228,-0.9176,-0.9176,-0.9171,-0.9152,-0.8926,-0.8703,-0.8703,-0.8708,-0.8708,-0.843,-0.8246,-0.8159,-0.7964,-0.7785,-0.7386,-0.7151,-0.7062,-0.6895,-0.6895,-0.6902,-0.6987,-0.7105,-0.7241,-0.7241,-0.7278,-0.7343,-0.7528,-0.7709,-0.7807,-0.8165,-0.8574,-0.8938,-0.9406,-0.9731,-1.0093,-0.9917,-0.9736,-0.9736,-0.9447,-0.921,-0.9214,-0.9291,-0.9332,-0.9328,-0.9177,-0.9096,-0.9096,-0.9554,-1.001,-1.0653,-1.0565,-1.06,-1.0844,-1.0658,-1.0695,-1.0939,-1.0396,-1.0219,-1.03,-1.005,-0.9823,-0.9911,-1.0003,-1.0038,0.0,0.0,0.0,0.0,0.0,0.0,0.0,0.0,0.0,0.0,0.0,-0.928,-0.9167,-0.9048,-0.8978,-0.8978,-0.8978,-0.9135,-0.9526,-0.9213,-0.9187,-0.9702,-0.9397,-0.92,-0.9308,-0.9322,-0.9486,-0.9969,-0.9644,-0.9524,-1.011,-0.9697,-0.9304,-0.9313,-0.9322,-0.9322,-0.9322,-0.9322,-0.9365,-0.9445,-0.9464,-0.9502,-0.9582,-0.9606,-0.9601,-0.9606,-0.9606,-0.9573,-0.9493,-0.9464,-0.9431,-0.9351,-0.9322,-0.9322,-0.9294,-0.9143,-0.8996,-0.8978,-0.8982,-0.8978,-0.852,-0.8243,-0.7966,-0.7872,-0.7851,-0.759,-0.7385,-0.7197,-0.72,-0.7197,-0.7197,-0.7197,-0.7272,-0.74,-0.74,-0.7472,-0.7597,-0.7782,-0.7875,-0.7879,-0.8265,-0.8836,-0.9579,-1.0063,-1.0631,-1.1374,-1.0817,-1.045,-1.045,-0.9875,-0.9673,-0.9682,-0.9841,-1.0015,-1.0002,-0.9697,-0.9443,-0.9165,-0.9992,-1.091,-1.1841,-1.1841,-1.201,-1.2145,-1.1973,-1.2059,-1.2392,-1.1201,-1.0739,-1.1181,-1.0291,-0.9897,-1.0074,-1.0157,-1.0125,0.0,-1.0038,0.0,0.0,0.0,0.0,0.0,0.0,0.0,0.0,-0.9558,-0.9365,-0.9365,-0.9337,-0.9322,-0.9322,-0.9322,-0.9648,-1.0369,-0.9811,-0.9658,-1.0416,-0.9856,-0.9374,-0.9567,-0.9485,-0.9485,-0.9983,-0.9732,-0.9644,-1.0312,-1.0258,-1.0104,-0.978,-0.9591,-0.9436,-0.9403,-0.9403,-0.9511,-0.9644,-0.9686,-0.9738,-0.9986,-1.0005,-1.0038,-1.0014,-1.0014,-0.9889,-0.9729,-0.9686,-0.9625,-0.9431,-0.9412,-0.9417,-0.9431,-0.9335,-0.9297,-0.9308,-0.9285,-0.9322,-0.8243,-0.7966,-0.7875,-0.7782,-0.7684,-0.7633,-0.7512,-0.7512,-0.7512,-0.7512,-0.7512,-0.7512,-0.7533,-0.7556,-0.7556,-0.757,-0.7597,-0.76,-0.8157,-0.9177,-0.942,-0.9585,-0.9685,-1.0417,-1.0192,-0.9409,-0.9612,-0.9811,-0.9816,-1.052,-1.0821,-1.0826,-1.1741,-1.215,-1.2145,0.0,0.0,0.0,-0.9718,-0.9913,-1.0104,-1.0104,-1.0026,-0.9966,-0.9962,0.0,-0.9837,-0.9705,-1.0062,-1.1002,-1.078,0.0,0.0,0.0,0.0,0.0,0.0,0.0,0.0,0.0,0.0,0.0,-0.9856,-0.9919,-1.001,-0.9686,-0.9582,-0.9498,-0.9426,-0.9322,-0.9322,-0.9322,-0.9404,-0.9486,-0.9409,-0.9471,-0.9721,-0.9666,-0.9892,-1.083,-1.0343,-1.0756,-1.2596,-1.1945,-1.1533,-1.2753,-1.2602,-1.2161,-1.2012,-1.0735,-0.9904,-0.9833,-0.9971,-0.9919,-0.9889,-0.9971,-0.9971,-1.0033,-1.0038,-1.0038,-1.0038,-1.0038,-1.0038,-0.988,-0.9894,-0.988,-0.9828,-0.9919,-0.9809,-0.9828,-0.9651,-0.9473,-0.9316,-0.9322,-0.9322,-0.8197,0.0,-0.7911,-0.8197,0.0,-0.8579,-0.8864,-0.9332,-0.8128,-0.7879,-0.834,-0.7785,-0.7921,-0.8456,-0.8456,-0.8504,-0.8579,-0.9152,-0.944,-0.9531,-0.9627,-0.9672,-0.9672,-1.0835,-1.1272,-1.117,-1.1663,-1.1868,-1.1965,-1.1955,-1.195,-1.1945,-1.2436,-1.2732,-1.2732,-1.2732,-1.215,-1.1179,-1.1179,-1.1179,-1.1082,-1.1179,-1.1127,-1.1221,0.0,0.0,0.0,0.0,0.0,0.0,0.0,0.0,0.0,0.0,0.0,-1.1412,-1.1218,-1.1241,-1.1316,-1.1311,-1.0945,-1.011,-1.0849,-1.0977,-1.0033,-0.9856,-0.9795,-0.9795,-0.9696,-0.963,-0.9634,-1.0045,-1.0465,-1.0872,-1.0955,-1.1171,-1.1539,-1.1229,-1.1118,-1.1466,-1.1413,-1.1752,-1.3039,-1.2601,-1.2345,-1.3118,-1.2863,-1.2522,-1.2339,-1.1832,-1.1316,-1.1311,-1.1316,-1.1149,-1.0722,-1.0636,-1.0467,-1.012,-1.0038,-1.0038,-1.0038,-1.0038,-1.0038,-1.0038,-1.0038,-0.9951,-0.9864,-0.9864,-0.9951,-0.9689,-0.9602,-0.9552,-0.9333,-0.9381,-0.9466,-0.8237,-0.8038,-0.8038,-0.8531,-0.9312,-0.9312,-0.9805,-1.0565,0.0,0.0,0.0,-0.8611,-0.8779,-0.9665,-0.9477,-0.9466,-0.9604,-1.0293,-1.0293,-0.9608,-0.9608,-0.9702,-0.9998,-1.1268,-1.2334,-1.3312,-1.3806,-1.4004,-1.3998,-1.3318,-1.3022,-1.3022,-1.3119,-1.3216,-1.321,-1.321,-1.3113,-1.3022,-1.2829,-1.2732,-1.2732,-1.2732,-1.2823,-1.3022,-1.2829,-1.2732,-1.2727,-1.1778,-1.1192,-1.1156,-1.1189,-1.1248,-1.1323,-1.1882,-1.2187,-1.2265,-1.2091,-1.2037,-1.2152,-1.2146,-1.1655,-1.0509,-1.1685,-1.1826,-1.0366,-1.0371,-1.0381,-1.0207,-1.0381,-1.0376,-1.0207,-1.0809,-1.158,-1.2334,-1.2248,-1.2328,-1.2936,-1.2345,-1.1752,-1.1929,-1.2015,-1.2277,-1.2613,-1.2778,-1.2851,-1.2863,-1.2954,-1.2784,-1.2522,-1.2516,-1.2345,-1.2339,-1.2254,-1.2169,-1.1666,-1.1413,-1.1154,-1.0554,-1.0467,-1.0381,-1.0381,-1.0207,-1.0125,-1.012,-1.0038,-0.9777,-0.9602,-0.9689,-0.9694,-0.9345,-0.9345,-0.9432,-0.9345,-0.9428,-0.9497,-0.8041,-0.8038,-0.8038,-0.8038,-0.8237,-0.8237,-0.8333,-0.8623,-1.004,-1.0794,-1.0891,-1.0794,-1.0807,-1.0928,-0.9955,-0.9583,-0.9509,-0.8825,-0.8821,0.0,-0.9608,-1.0194,-1.1268,-1.176,-1.2145,-1.2436,-1.2829,-1.2926,-1.3022,-1.3703,-1.41,-1.4196,-1.4962,-1.5343,-1.5343,-1.5343,-1.4962,-1.41,-1.3221,-1.2732,-1.2732,-1.2732,-1.2732,-1.2732,-1.2732,-1.2344,-1.1463,-1.2114,-1.2017,-1.1258,-1.1808,-1.1874,-1.1337,-1.1208,-1.0799,-1.0246,-1.0223,-1.0131,-0.9966,-0.9956,-1.0632,-1.2139,-1.1581,-1.1225,-1.1508,-1.2049,-1.1997,-1.1235,-1.1746,-1.1997,-1.1235,-1.1154,-1.1235,-1.1235,-1.0463,-1.0202,-1.1144,-1.0549,-1.0636,-1.1929,-1.1327,-1.1666,-1.3027,-1.3294,-1.3555,-1.4146,-1.4062,-1.423,-1.3971,-1.3033,-1.218,-1.21,-1.21,-1.2009,-1.1923,-1.1929,-1.1666,-1.1757,-1.1499,-1.1327,-1.1327,-1.0809,-1.0381,-1.0463,-0.9946,-0.9519,-0.9345,-0.9349,-0.9349,-0.9262,-0.9174,-0.9087,-0.9262,-0.9174,-0.9087,-0.8279,-0.8282,-0.8279,-0.8582,-0.9188,-1.0403,-1.1309,-1.1913,-1.292,-1.2475,-1.1179,-1.0587,-1.0681,-1.1077,-1.0096,-0.9608,-0.9608,-1.0288,-1.019,-0.9706,-1.0783,-1.1077,-1.0877,-1.215,-1.292,-1.3204,-1.3986,-1.437,-1.4376,-1.4867,-1.5064,-1.5159,-1.554,-1.5825,-1.5825,-1.5825,-1.5547,-1.5064,-1.4094,-1.3318,-1.2732,-1.2732,-1.2732,-1.2732,-1.2732,-1.2533,-1.2047,-1.2441,-1.2533,-1.2052,-1.2918,-1.325,-1.2953,-1.3105,-1.324,-1.3049,-1.2831,-1.2802,-1.2771,-1.2064,-1.182,-1.2286,-1.2883,-1.3139,-1.3065,-1.2123,-1.1569,-1.1671,-1.166,-1.1574,-1.1666,-1.21,-1.2272,-1.2277,-1.2174,-1.2345,-1.2595,-1.2345,-1.2345,-1.296,-1.2863,-1.3027,-1.388,-1.4062,-1.4146,-1.4482,-1.4489,-1.4412,-1.4419,-1.3737,-1.3222,-1.3379,-1.3118,-1.2516,-1.21,-1.1499,-1.1068,-1.0641,-1.0554,-1.0549,-1.0554,-1.0125,-1.0125,-1.0463,-0.9864,-0.9519,-0.9694,-0.9519,-0.9262,-0.8915,-0.8911,-0.8911,-0.8915,-0.8828,-0.8911,-0.8482,-0.8482,-0.8793,-0.9518,-1.0655,-1.2314,-1.355,-1.4384,-1.4587,-1.3551,-1.1831,-1.1015,-1.1312,-1.1905,-1.0915,-1.0523,-1.0721,-1.1905,-1.1608,-1.0423,-1.1811,-1.2003,-1.1208,-1.2888,-1.3963,-1.4546,-1.5531,-1.6025,-1.6032,-1.6025,-1.6025,-1.6025,-1.6032,-1.5992,-1.5932,-1.5925,-1.5899,-1.5743,-1.5064,-1.4286,-1.3409,-1.3403,-1.3403,-1.3409,-1.3409,-1.3312,-1.3119,-1.3312,-1.321,-1.2823,-1.3709,-1.4202,-1.3992,-1.4477,-1.4827,-1.4993,-1.4812,-1.4741,-1.4843,-1.3764,-1.2748,-1.2159,-1.3718,-1.4663,-1.418,-1.2441,-1.1516,-1.2123,-1.1918,-1.1837,-1.2272,-1.2869,-1.3307,-1.33,-1.3626,-1.3711,-1.3971,-1.3802,-1.3717,-1.3737,-1.3893,-1.3886,-1.4055,-1.4314,-1.4489,-1.4321,-1.4213,-1.4182,-1.4188,-1.4229,-1.4446,-1.4498,-1.407,-1.3385,-1.2534,-1.2015,-1.1348,-1.0517,-1.046,-1.0587,-1.0436,-1.0102,-0.9832,-1.0377,-0.9791,-0.9429,-0.9758,-0.9542,-0.9007,-0.874,-0.874,-0.874,-0.8652,-0.8656,-0.874,-0.8486,-0.8689,-0.9638,-1.0763,-1.1817,-1.2127,-1.2339,-1.254,-1.3254,-1.3539,-1.3389,-1.4213,-1.4511,-1.4624,-1.3469,-1.295,-1.2853,-1.2357,-1.1937,-1.1732,-1.1952,-1.2664,-1.3746,-1.4167,-1.4998,-1.6195,-1.6494,-1.6573,-1.6573,-1.6587,-1.6613,-1.6627,-1.662,-1.648,-1.6266,-1.6233,-1.6099,-1.5838,-1.573,-1.5635,-1.5534,-1.554,-1.554,-1.554,-1.5534,-1.5057,-1.4196,-1.5057,-1.4663,-1.3017,-1.3806,-1.3902,-1.3022,-1.2995,-1.2984,-1.308,-1.3052,-1.2857,-1.2819,-1.2503,-1.2387,-1.2274,-1.3188,-1.4212,-1.4817,-1.3916,-1.33,-1.3379,-1.3913,-1.3848,-1.3385,-1.3234,-1.3253,-1.3187,-1.257,-1.1923,-1.282,-1.21,-1.1923,-1.2796,-1.3107,-1.2881,-1.3278,-1.3809,-1.4213,-1.4267,-1.4448,-1.4482,-1.4496,-1.4649,-1.479,-1.4831,-1.4456,-1.407,-1.3711,-1.3841,-1.328,-1.3455,-1.3142,-1.2503,-1.2086,-1.1263,-1.0499,-1.0553,-0.9609,-0.907,-0.9123,-0.8771,-0.8773,-0.873,-0.8718,-0.8673,-0.8576,-0.8584,-0.8761,-0.9815,-0.9919,-1.0988,-1.2167,-1.3239,-1.3345,-1.3657,-1.4395,-1.4721,-1.4926,-1.4931,-1.5356,-1.508,-1.4083,-1.3038,-1.2628,-1.2628,-1.2833,-1.2525,-1.2221,-1.334,-1.4151,-1.4355,-1.5178,-1.5998,-1.6607,-1.6707,-1.6707,-1.6707,-1.6707,-1.6707,-1.6707,-1.6707,-1.6647,-1.6533,-1.6526,-1.6386,-1.6106,-1.6092,-1.6012,-1.5845,-1.5825,-1.5825,-1.5825,-1.5825,-1.5635,-1.5255,-1.5635,-1.5445,-1.4663,-1.4962,-1.4962,-1.4567,-1.4567,-1.4567,-1.4567,-1.4567,-1.4518,-1.4502,-1.439,-1.4334,-1.4334,-1.4562,-1.4865,-1.5369,-1.4819,-1.4391,-1.4304,-1.4151,-1.4057,-1.4239,-1.4239,-1.4138,-1.4145,-1.3705,-1.3611,-1.3982,-1.3699,-1.3705,-1.3975,-1.4063,-1.4057,-1.4063,-1.4427,-1.4609,-1.4609,-1.4723,-1.4776,-1.4796,-1.4897,-1.495,-1.4937,-1.4736,-1.4366,-1.3963,-1.3258,-1.3129,-1.3112,-1.2788,-1.2581,-1.2456,-1.1563,-1.0736,-1.1211,-1.0039,-0.9351,-0.9802,-0.9217,-0.8881,-0.8865,-0.8865,-0.8852,-0.8739,-0.8714,-0.8775,-1.0891,-1.1324,-1.2417,-1.3614,-1.46,-1.4708,-1.5131,-1.5885,-1.5885,-1.5885,-1.5885,-1.5885,-1.5253,-1.4199,-1.333,-1.3018,-1.3127,-1.3855,-1.3746,-1.333,-1.4888,-1.5403,-1.5088,-1.6024,-1.6649,-1.6947,-1.6961,-1.6954,-1.6947,-1.6947,-1.6947,-1.6947,-1.6947,-1.6907,-1.6834,-1.6827,-1.668,-1.6413,-1.6393,-1.6246,-1.5999,-1.5945,-1.5912,-1.5838,-1.5825,-1.5825,-1.5825,-1.5825,-1.5825,-1.5825,-1.5825,-1.5825,-1.5825,-1.5825,-1.5832,-1.573,-1.5737,-1.5635,-1.5648,-1.5648,-1.5648,-1.5743,-1.5544,-1.5338,-1.5504,-1.5245,-1.5035,-1.493,-1.4368,-1.433,-1.479,-1.4784,-1.4784,-1.4784,-1.4874,-1.4874,-1.4854,-1.4963,-1.4943,-1.506,-1.491,-1.506,-1.4963,-1.4943,-1.4923,-1.493,-1.5017,-1.5084,-1.5104,-1.5157,-1.5224,-1.5197,-1.5204,-1.4936,-1.4088,-1.3724,-1.3047,-1.2951,-1.3141,-1.2704,-1.2379,-1.1568,-1.0637,-1.0844,-0.9978,-0.9626,-0.9707,-0.9332,-0.9104,-0.9194,-0.9279,-0.933,-0.9462,-0.9345,-0.9293,-1.1324,-1.2417,-1.3619,-1.4702,-1.5785,-1.5779,-1.5779,-1.5885,-1.5885,-1.5885,-1.5885,-1.5885,-1.5873,-1.5713,-1.5476,-1.5624,-1.5624,-1.56,-1.5589,-1.5589,-1.6037,-1.6374,-1.6592,-1.7028,-1.7331,-1.7468,-1.7462,-1.7482,-1.7502,-1.7522,-1.7542,-1.7528,-1.7495,-1.7388,-1.7168,-1.7128,-1.6987,-1.672,-1.6687,-1.6547,-1.6279,-1.6246,-1.6099,-1.5885,-1.5832,-1.5825,-1.5825,-1.5825,-1.5825,-1.5825,-1.5825,-1.5825,-1.5825,-1.5825,-1.5737,-1.5547,-1.554,-1.5356,-1.5178,-1.5178,-1.5389,-1.5612,-1.5356,-1.5146,-1.5114,-1.5082,-1.5063,-1.5121,-1.4975,-1.4878,-1.4657,-1.4527,-1.4417,-1.4404,-1.4546,-1.4643,-1.4624,-1.4876,-1.4977,-1.501,-1.5044,-1.507,-1.5017,-1.506,-1.503,-1.5084,-1.5224,-1.5378,-1.5404,-1.5591,-1.5698,-1.5718,-1.5691,-1.5598,-1.5026,-1.4637,-1.4813,-1.4714,-1.4074,-1.3637,-1.3059,-1.241,-1.1516,-1.0794,-1.0857,-1.0482,-0.9789,-0.9354,-0.9185,-0.9349,-0.9823,-1.005,-1.0102,-1.0362,-1.0301,-1.3614,-1.4691,-1.5131,-1.5565,-1.5885,-1.5885,-1.5885,-1.5885,-1.5885,-1.5885,-1.5885,-1.5885,-1.5885,-1.5885,-1.5885,-1.5885,-1.5885,-1.5885,-1.5998,-1.6211,-1.6424,-1.6743,-1.706,-1.7279,-1.7477,-1.7589,-1.7589,-1.7589,-1.7589,-1.7589,-1.7589,-1.7589,-1.7589,-1.7522,-1.7442,-1.7428,-1.7281,-1.7021,-1.6987,-1.6847,-1.656,-1.6373,-1.6213,-1.6112,-1.5925,-1.5825,-1.5825,-1.5825,-1.5825,-1.5825,-1.5825,-1.5825,-1.5825,-1.5635,-1.5452,-1.5267,-1.5267,-1.5172,-1.5083,-1.5083,-1.5185,-1.5293,-1.5191,-1.4968,-1.4758,-1.4867,-1.5083,-1.5083,-1.4892,-1.476,-1.4754,-1.4684,-1.4784,-1.4784,-1.4865,-1.4939,-1.4965,-1.5058,-1.5065,-1.5065,-1.5245,-1.5425,-1.5392,-1.5511,-1.5518,-1.5524,-1.5611,-1.5651,-1.5678,-1.5778,-1.5825,-1.5825,-1.5825,-1.5765,-1.5605,-1.5524,-1.5471,-1.5524,-1.5201,-1.5006,-1.4549,-1.389,-1.3086,-1.2404,-1.2214,-1.1616,-1.0899,-0.9938,-0.9748,-0.9669,-1.014,-1.0527,-1.0683,-1.0947,-1.087,-1.5137,-1.5885,-1.5885,-1.5885,-1.5885,-1.5885,-1.5885,-1.5885,-1.5885,-1.5885,-1.5885,-1.5885,-1.5885,-1.5885,-1.5885,-1.5885,-1.5885,-1.5885,-1.5998,-1.6217,-1.6524,-1.6849,-1.706,-1.7371,-1.7589,-1.7589,-1.7589,-1.7589,-1.7589,-1.7589,-1.7589,-1.7589,-1.7589,-1.7589,-1.7589,-1.7589,-1.7475,-1.7315,-1.7392,-1.7148,-1.6847,-1.656,-1.6359,-1.6246,-1.5979,-1.5825,-1.5825,-1.5825,-1.573,-1.573,-1.5737,-1.5642,-1.5553,-1.5452,-1.5267,-1.4987,-1.4981,-1.4892,-1.4885,-1.479,-1.4783,-1.4885,-1.479,-1.4675,-1.4364,-1.4675,-1.479,-1.479,-1.4694,-1.4592,-1.4592,-1.4682,-1.479,-1.4885,-1.4885,-1.4987,-1.4981,-1.5077,-1.507,-1.5146,-1.5229,-1.5439,-1.5553,-1.5629,-1.5622,-1.573,-1.5737,-1.5825,-1.5825,-1.5825,-1.5825,-1.5825,-1.5825,-1.5825,-1.5745,-1.5705,-1.5705,-1.5664,-1.5677,-1.5717,-1.554,-1.4968,-1.4484,-1.3998,-1.3414,-1.2732,-1.1858,-1.0792,-1.0306,-1.0113,-1.0351,-1.083,-1.1187,-1.1542,-1.1657,-1.5891,-1.5885,-1.5885,-1.5885,-1.5885,-1.5885,-1.5885,-1.5885,-1.5885,-1.5885,-1.5885,-1.5885,-1.5885,-1.5885,-1.5885,-1.5885,-1.5885,-1.5885,-1.5891,-1.5998,-1.6524,-1.673,-1.6836,-1.7371,-1.7589,-1.7589,-1.7589,-1.7589,-1.7589,-1.7589,-1.7589,-1.7589,-1.7589,-1.7589,-1.7589,-1.7582,-1.7582,-1.7549,-1.7535,-1.7422,-1.7154,-1.686,-1.658,-1.6313,-1.6019,-1.5852,-1.5832,-1.5825,-1.573,-1.5547,-1.554,-1.5356,-1.5172,-1.5083,-1.4981,-1.479,-1.4688,-1.4592,-1.44,-1.4394,-1.4394,-1.44,-1.4292,-1.4394,-1.4292,-1.4394,-1.4394,-1.44,-1.4394,-1.4298,-1.4298,-1.44,-1.4394,-1.4298,-1.4592,-1.4694,-1.479,-1.4885,-1.5083,-1.5089,-1.5083,-1.5083,-1.5178,-1.5363,-1.5452,-1.554,-1.5635,-1.573,-1.573,-1.573,-1.5825,-1.5825,-1.5825,-1.5825,-1.5825,-1.5825,-1.5818,-1.5818,-1.5724,-1.5737,-1.5445,-1.4968,-1.4867,-1.4382,-1.4094,-1.3414,-1.2926,-1.1955,-1.1175,-1.0984,-1.117,-1.1268,-1.1803,-1.2245,-1.2956,-1.5885,-1.5885,-1.5885,-1.5885,-1.5885,-1.5885,-1.5885,-1.5885,-1.5885,-1.5885,-1.5885,-1.5885,-1.5885,-1.5885,-1.5885,-1.5885,-1.5885,-1.5885,-1.5998,-1.6211,-1.6524,-1.6842,-1.706,-1.7371,-1.7589,-1.7589,-1.7589,-1.7589,-1.7589,-1.7589,-1.7589,-1.7589,-1.7589,-1.7589,-1.7589,-1.7589,-1.7589,-1.7589,-1.7589,-1.7528,-1.7428,-1.7161,-1.6867,-1.658,-1.6286,-1.5949,-1.5655,-1.5635,-1.554,-1.5452,-1.5356,-1.5077,-1.4885,-1.479,-1.4694,-1.4496,-1.4394,-1.4394,-1.4298,-1.4298,-1.4298,-1.4298,-1.4298,-1.4298,-1.4298,-1.4298,-1.4298,-1.4298,-1.4298,-1.4298,-1.4298,-1.4298,-1.4298,-1.4298,-1.44,-1.4496,-1.449,-1.4496,-1.4592,-1.479,-1.479,-1.4892,-1.5083,-1.5172,-1.5172,-1.5261,-1.5458,-1.5642,-1.5642,-1.573,-1.5825,-1.5825,-1.5825,-1.5825,-1.5825,-1.5825,-1.5825,-1.5825,-1.5825,-1.573,-1.5445,-1.5255,-1.5153,-1.4956,-1.458,-1.4286,-1.3703,-1.3022,-1.2242,-1.156,-1.1365,-1.1755,-1.2436,-1.2926,-1.3318,-1.5885,-1.5885,-1.5885,-1.5885,-1.5885,-1.5885,-1.5885,-1.5885,-1.5885,-1.5885,-1.5885,-1.5885,-1.5885,-1.5885,-1.5885,-1.5885,-1.5885,-1.5885,-1.5998,-1.6217,-1.6424,-1.6736,-1.706,-1.7477,-1.7589,-1.7589,-1.7589,-1.7589,-1.7589,-1.7589,-1.7589,-1.7589,-1.7589,-1.7589,-1.7589,-1.7589,-1.7589,-1.7589,-1.7589,-1.7589,-1.7528,-1.7198,-1.6912,-1.652,-1.6236,-1.5751,-1.5382,-1.5261,-1.5159,-1.5166,-1.4975,-1.4688,-1.4592,-1.4592,-1.4496,-1.4394,-1.4298,-1.4298,-1.4298,-1.4298,-1.4298,-1.4298,-1.4298,-1.4298,-1.4298,-1.4298,-1.4298,-1.4298,-1.4298,-1.4298,-1.4298,-1.4298,-1.4298,-1.4298,-1.4298,-1.4298,-1.4298,-1.4298,-1.4394,-1.4496,-1.4592,-1.4598,-1.479,-1.4885,-1.4987,-1.4981,-1.5261,-1.5547,-1.5547,-1.5642,-1.5737,-1.5825,-1.5825,-1.5825,-1.5825,-1.5825,-1.5825,-1.5825,-1.5825,-1.5825,-1.5635,-1.5635,-1.5534,-1.5439,-1.5248,-1.5153,-1.4669,-1.3896,-1.3125,-1.2436,-1.1658,-1.1853,-1.2344,-1.2635,-1.3022,-1.5885,-1.5885,-1.5885,-1.5885,-1.5885,-1.5885,-1.5885,-1.5885,-1.5885,-1.5885,-1.5885,-1.5885,-1.5885,-1.5885,-1.5885,-1.5885,-1.5885,-1.5885,-1.5885,-1.5998,-1.6211,-1.6424,-1.6842,-1.7371,-1.7589,-1.7589,-1.7589,-1.7589,-1.7589,-1.7589,-1.7589,-1.7589,-1.7589,-1.7589,-1.7589,-1.7589,-1.7589,-1.7589,-1.7589,-1.7589,-1.7569,-1.7036,-1.6632,-1.6345,-1.5879,-1.5401,-1.5127,-1.4879,-1.4688,-1.4694,-1.4496,-1.4394,-1.4298,-1.4298,-1.4298,-1.4298,-1.4298,-1.4298,-1.4298,-1.4298,-1.4298,-1.4298,-1.4298,-1.4298,-1.4298,-1.4298,-1.4298,-1.4298,-1.4298,-1.4298,-1.4298,-1.4298,-1.4298,-1.4298,-1.4298,-1.4298,-1.4298,-1.4298,-1.4298,-1.4298,-1.4298,-1.4298,-1.4394,-1.4592,-1.4688,-1.4783,-1.5064,-1.5261,-1.5452,-1.5547,-1.5737,-1.5832,-1.5825,-1.5825,-1.5825,-1.5825,-1.5825,-1.5825,-1.5825,-1.5825,-1.5825,-1.5825,-1.5825,-1.573,-1.573,-1.573,-1.554,-1.4765,-1.3902,-1.3125,-1.2635,-1.215,-1.2247,-1.2732,-1.3409,-1.5885,-1.5885,-1.5885,-1.5885,-1.5885,-1.5885,-1.5885,-1.5885,-1.5885,-1.5885,-1.5885,-1.5885,-1.5885,-1.5885,-1.5885,-1.5885,-1.5885,-1.5885,-1.5885,-1.5885,-1.5998,-1.6424,-1.6955,-1.7378,-1.7589,-1.7589,-1.7589,-1.7589,-1.7589,-1.7589,-1.7589,-1.7589,-1.7589,-1.7589,-1.7589,-1.7589,-1.7589,-1.7589,-1.7589,-1.7582,-1.7575,-1.72,-1.6821,-1.6257,-1.5927,-1.5436,-1.4852,-1.4592,-1.44,-1.4394,-1.4304,-1.4298,-1.4298,-1.4298,-1.4298,-1.4298,-1.4298,-1.4298,-1.4298,-1.4298,-1.4298,-1.4298,-1.4298,-1.4298,-1.4298,-1.4298,-1.4298,-1.4298,-1.4298,-1.4298,-1.4298,-1.4298,-1.4298,-1.4298,-1.4298,-1.4298,-1.4298,-1.4298,-1.4298,-1.4298,-1.4298,-1.4298,-1.4298,-1.4394,-1.4394,-1.4496,-1.4688,-1.507,-1.5261,-1.5445,-1.5635,-1.573,-1.5825,-1.5825,-1.5825,-1.5825,-1.5825,-1.5825,-1.5825,-1.5825,-1.5825,-1.5825,-1.5825,-1.5825,-1.573,-1.573,-1.573,-1.5439,-1.4669,-1.3902,-1.3607,-1.3221,-1.3022,-1.3221,-1.4088,-1.5885,-1.5885,-1.5885,-1.5885,-1.5885,-1.5885,-1.5885,-1.5885,-1.5885,-1.5885,-1.5885,-1.5885,-1.5885,-1.5885,-1.5885,-1.5885,-1.5885,-1.5885,-1.5885,-1.5891,-1.6004,-1.643,-1.6955,-1.7272,-1.7483,-1.7589,-1.7589,-1.7589,-1.7589,-1.7589,-1.7589,-1.7589,-1.7589,-1.7589,-1.7589,-1.7589,-1.7589,-1.7589,-1.7483,-1.7483,-1.7378,-1.6944,-1.6452,-1.596,-1.5607,-1.5115,-1.4557,-1.4394,-1.4394,-1.44,-1.44,-1.4298,-1.4298,-1.4298,-1.4298,-1.4298,-1.4298,-1.4298,-1.4298,-1.4298,-1.4298,-1.4298,-1.4298,-1.4298,-1.4298,-1.4298,-1.4298,-1.4298,-1.4298,-1.4298,-1.4298,-1.4298,-1.4298,-1.4298,-1.4298,-1.4298,-1.4298,-1.4298,-1.4298,-1.4298,-1.4298,-1.4298,-1.4298,-1.4298,-1.4298,-1.44,-1.4592,-1.479,-1.5077,-1.5356,-1.5534,-1.573,-1.5825,-1.5825,-1.5825,-1.5825,-1.5825,-1.5825,-1.5825,-1.5825,-1.5825,-1.5825,-1.5825,-1.5825,-1.5825,-1.5825,-1.5825,-1.5825,-1.5439,-1.4867,-1.458,-1.4196,-1.3806,-1.38,-1.4675,-1.5885,-1.5885,-1.5885,-1.5885,-1.5885,-1.5885,-1.5885,-1.5885,-1.5885,-1.5885,-1.5885,-1.5885,-1.5885,-1.5885,-1.5885,-1.5885,-1.5885,-1.5885,-1.5885,-1.5998,-1.6105,-1.6424,-1.663,-1.7067,-1.7279,-1.7483,-1.7589,-1.7589,-1.7589,-1.7589,-1.7582,-1.7582,-1.7589,-1.7582,-1.7589,-1.7589,-1.7582,-1.7483,-1.7384,-1.7127,-1.695,-1.6365,-1.5894,-1.5538,-1.4967,-1.4674,-1.4364,-1.4298,-1.4394,-1.4592,-1.4394,-1.4298,-1.4298,-1.4298,-1.4298,-1.4298,-1.4298,-1.4298,-1.4298,-1.4298,-1.4298,-1.4298,-1.4298,-1.4298,-1.4298,-1.4298,-1.4298,-1.4298,-1.4298,-1.4298,-1.4298,-1.4298,-1.4298,-1.4298,-1.4298,-1.4298,-1.4298,-1.4298,-1.4298,-1.4298,-1.4298,-1.4298,-1.4298,-1.4298,-1.4298,-1.4298,-1.4496,-1.4694,-1.4981,-1.5267,-1.5547,-1.573,-1.5825,-1.5825,-1.5825,-1.5825,-1.5825,-1.5825,-1.5825,-1.5825,-1.5825,-1.5825,-1.5825,-1.5825,-1.5825,-1.5825,-1.5825,-1.573,-1.5635,-1.535,-1.4777,-1.449,-1.4298,-1.4484,-1.5153,-1.5885,-1.5885,-1.5885,-1.5885,-1.5885,-1.5885,-1.5885,-1.5885,-1.5885,-1.5885,-1.5885,-1.5885,-1.5885,-1.5885,-1.5885,-1.5885,-1.5885,-1.5885,-1.5885,-1.5885,-1.5998,-1.6105,-1.6424,-1.6855,-1.7179,-1.7279,-1.7483,-1.7582,-1.7582,-1.7378,-1.7378,-1.7582,-1.7483,-1.7378,-1.7582,-1.7589,-1.7483,-1.7272,-1.7173,-1.6963,-1.6593,-1.6172,-1.5692,-1.5245,-1.4643,-1.4389,-1.4322,-1.4298,-1.4298,-1.4388,-1.4298,-1.4298,-1.4298,-1.4298,-1.4298,-1.4298,-1.4298,-1.4298,-1.4298,-1.4298,-1.4298,-1.4298,-1.4298,-1.4298,-1.4298,-1.4316,-1.431,-1.4298,-1.4298,-1.4358,-1.4364,-1.4322,-1.4328,-1.4334,-1.4316,-1.4298,-1.4298,-1.4298,-1.4298,-1.4298,-1.4298,-1.4298,-1.4298,-1.4298,-1.4298,-1.4298,-1.44,-1.4592,-1.4885,-1.5178,-1.5458,-1.573,-1.5825,-1.5825,-1.5825,-1.5825,-1.5825,-1.5825,-1.5825,-1.5825,-1.5825,-1.5825,-1.5825,-1.5825,-1.5825,-1.5825,-1.5825,-1.573,-1.573,-1.535,-1.5064,-1.4968,-1.4873,-1.5159,-1.535,-1.5885,-1.5885,-1.5885,-1.5885,-1.5885,-1.5885,-1.5885,-1.5885,-1.5885,-1.5885,-1.5885,-1.5885,-1.5885,-1.5885,-1.5885,-1.5885,-1.5885,-1.5885,-1.5885,-1.5885,-1.5885,-1.5998,-1.6105,-1.6537,-1.6855,-1.6955,-1.706,-1.7265,-1.7272,-1.7279,-1.7384,-1.7582,-1.749,-1.7483,-1.7582,-1.7589,-1.749,-1.7173,-1.706,-1.6765,-1.6329,-1.586,-1.5456,-1.4967,-1.4552,-1.4298,-1.4298,-1.4298,-1.4298,-1.4298,-1.4298,-1.4298,-1.4298,-1.4298,-1.4298,-1.4298,-1.4298,-1.4298,-1.4298,-1.4298,-1.4298,-1.4304,-1.4304,-1.4298,-1.4346,-1.4401,-1.4497,-1.4521,-1.46,-1.4678,-1.4672,-1.4539,-1.4509,-1.4467,-1.437,-1.431,-1.4298,-1.4298,-1.4298,-1.4298,-1.4298,-1.4298,-1.4298,-1.4298,-1.4298,-1.4298,-1.4496,-1.4688,-1.4981,-1.5267,-1.5452,-1.573,-1.573,-1.5825,-1.5825,-1.5825,-1.5825,-1.5825,-1.5825,-1.5825,-1.5825,-1.5825,-1.5825,-1.5825,-1.5825,-1.5825,-1.5825,-1.573,-1.573,-1.5635,-1.5445,-1.535,-1.535,-1.554,-1.5642,-1.5885,-1.5885,-1.5885,-1.5885,-1.5885,-1.5885,-1.5885,-1.5885,-1.5885,-1.5885,-1.5885,-1.5885,-1.5885,-1.5885,-1.5885,-1.5885,-1.5885,-1.5885,-1.5885,-1.5885,-1.5885,-1.5885,-1.5992,-1.6211,-1.6318,-1.6524,-1.6736,-1.6955,-1.7067,-1.7067,-1.7166,-1.7483,-1.7477,-1.7371,-1.7483,-1.7483,-1.7384,-1.6961,-1.6743,-1.6474,-1.6082,-1.5676,-1.524,-1.4775,-1.4449,-1.431,-1.4298,-1.4298,-1.4298,-1.4298,-1.4298,-1.4298,-1.4298,-1.4298,-1.4298,-1.4298,-1.4298,-1.4298,-1.4298,-1.4304,-1.431,-1.4334,-1.437,-1.4413,-1.4491,-1.4648,-1.4745,-1.4829,-1.4908,-1.5034,-1.5083,-1.4902,-1.4763,-1.4678,-1.4485,-1.4364,-1.4304,-1.4298,-1.4298,-1.4298,-1.4298,-1.4298,-1.4298,-1.4394,-1.4394,-1.4394,-1.4592,-1.4879,-1.5077,-1.5363,-1.5547,-1.573,-1.573,-1.5825,-1.5825,-1.5825,-1.5825,-1.5825,-1.5825,-1.5825,-1.5825,-1.5825,-1.5825,-1.5825,-1.5825,-1.5825,-1.5825,-1.5825,-1.5825,-1.5825,-1.573,-1.5635,-1.5635,-1.5832,-1.6021,-1.5885,-1.5885,-1.5885,-1.5885,-1.5885,-1.5885,-1.5885,-1.5885,-1.5885,-1.5885,-1.5885,-1.5885,-1.5992,-1.5885,-1.5885,-1.5885,-1.5992,-1.5992,-1.5891,-1.5885,-1.5885,-1.5885,-1.5885,-1.5992,-1.5998,-1.6099,-1.6411,-1.6736,-1.6743,-1.6636,-1.6855,-1.7166,-1.7054,-1.7054,-1.7272,-1.7279,-1.7067,-1.663,-1.6393,-1.6194,-1.5731,-1.5487,-1.5234,-1.4757,-1.4467,-1.434,-1.4304,-1.4298,-1.4298,-1.4298,-1.4298,-1.4298,-1.4298,-1.4298,-1.4298,-1.4298,-1.4298,-1.4298,-1.4298,-1.4316,-1.4437,-1.4576,-1.4642,-1.4862,-1.5008,-1.5117,-1.5052,-1.5089,-1.5113,-1.5143,-1.5113,-1.5083,-1.4944,-1.4793,-1.466,-1.4539,-1.4383,-1.431,-1.4304,-1.4298,-1.4298,-1.4298,-1.4298,-1.4394,-1.449,-1.4586,-1.4879,-1.507,-1.5261,-1.5452,-1.554,-1.573,-1.5825,-1.5825,-1.5825,-1.5825,-1.5825,-1.5825,-1.5825,-1.5825,-1.5825,-1.5825,-1.5825,-1.5825,-1.5825,-1.5825,-1.5825,-1.5825,-1.5825,-1.5825,-1.5825,-1.5825,-1.5927,-1.5927,-1.6123,-1.6305,-1.6318,-1.6211,-1.6105,-1.6111,-1.5998,-1.5885,-1.5891,-1.5998,-1.5998,-1.5998,-1.6205,-1.6099,-1.5992,-1.6199,-1.6205,-1.6105,-1.6105,-1.5998,-1.5891,-1.5885,-1.5885,-1.5885,-1.5885,-1.5885,-1.5992,-1.6205,-1.6418,-1.6424,-1.643,-1.6643,-1.6961,-1.6842,-1.6842,-1.7067,-1.706,-1.6749,-1.6305,-1.6194,-1.5965,-1.5499,-1.5396,-1.5083,-1.4793,-1.4588,-1.4449,-1.431,-1.4298,-1.4298,-1.4298,-1.4298,-1.4298,-1.4298,-1.4298,-1.4298,-1.4298,-1.4298,-1.4298,-1.434,-1.4413,-1.4594,-1.4702,-1.4829,-1.4962,-1.522,-1.5318,-1.5348,-1.5463,-1.5511,-1.5517,-1.5535,-1.539,-1.5252,-1.5113,-1.4908,-1.4684,-1.4527,-1.4401,-1.4352,-1.434,-1.4316,-1.4316,-1.4298,-1.449,-1.4688,-1.4879,-1.5077,-1.5261,-1.5547,-1.5635,-1.5635,-1.573,-1.5825,-1.5825,-1.5825,-1.5825,-1.5825,-1.5825,-1.5825,-1.5825,-1.5825,-1.5825,-1.5825,-1.5825,-1.5825,-1.5825,-1.5825,-1.5825,-1.5825,-1.5825,-1.5832,-1.5832,-1.6028,-1.6123,-1.6312,-1.6624,-1.663,-1.643,-1.6324,-1.6324,-1.6105,-1.6099,-1.6105,-1.6324,-1.6318,-1.6099,-1.6411,-1.6411,-1.6205,-1.6418,-1.653,-1.6324,-1.6324,-1.6217,-1.6004,-1.5885,-1.5885,-1.5885,-1.5885,-1.5885,-1.5885,-1.5891,-1.5998,-1.6211,-1.6217,-1.6537,-1.6749,-1.6736,-1.6736,-1.6855,-1.6743,-1.643,-1.6256,-1.6026,-1.5793,-1.5517,-1.5318,-1.5095,-1.4865,-1.4781,-1.46,-1.4443,-1.4328,-1.4304,-1.4298,-1.4298,-1.4298,-1.4298,-1.4298,-1.4298,-1.4298,-1.4298,-1.4298,-1.4364,-1.4552,-1.4714,-1.4835,-1.5052,-1.5179,-1.5318,-1.5505,-1.565,-1.5843,-1.5861,-1.5837,-1.5783,-1.5692,-1.5553,-1.5409,-1.5119,-1.4847,-1.4769,-1.466,-1.4625,-1.4576,-1.4491,-1.4443,-1.4533,-1.4771,-1.5064,-1.5159,-1.5356,-1.5452,-1.5642,-1.573,-1.573,-1.573,-1.5825,-1.5825,-1.5825,-1.5825,-1.5825,-1.5825,-1.5825,-1.5825,-1.5825,-1.5825,-1.5825,-1.5825,-1.5825,-1.5825,-1.5825,-1.5825,-1.5825,-1.5825,-1.5832,-1.5933,-1.6123,-1.6319,-1.6602,-1.6524,-1.6324,-1.6524,-1.653,-1.6324,-1.6524,-1.6624,-1.6624,-1.6624,-1.6624,-1.6518,-1.673,-1.673,-1.663,-1.6624,-1.673,-1.663,-1.643,-1.6324,-1.6217,-1.6105,-1.5992,-1.5885,-1.5885,-1.5998,-1.5891,-1.5891,-1.5885,-1.5998,-1.6004,-1.6111,-1.643,-1.643,-1.643,-1.653,-1.6424,-1.6217,-1.5992,-1.5949,-1.5801,-1.5747,-1.5535,-1.5415,-1.5246,-1.5004,-1.4721,-1.4618,-1.4455,-1.4334,-1.4298,-1.4298,-1.4298,-1.4298,-1.4298,-1.4298,-1.4298,-1.4298,-1.4304,-1.434,-1.4594,-1.4835,-1.5016,-1.5282,-1.5535,-1.5662,-1.5734,-1.5819,-1.5861,-1.5885,-1.5885,-1.5885,-1.5855,-1.5722,-1.559,-1.5403,-1.5209,-1.5095,-1.4989,-1.4967,-1.5109,-1.5053,-1.488,-1.4883,-1.5108,-1.5445,-1.554,-1.554,-1.573,-1.573,-1.5825,-1.5825,-1.5825,-1.5825,-1.5825,-1.5825,-1.5825,-1.5825,-1.5825,-1.5825,-1.5825,-1.5825,-1.5825,-1.5825,-1.5825,-1.5825,-1.5825,-1.5825,-1.5825,-1.5825,-1.5832,-1.5933,-1.6028,-1.613,-1.6508,-1.6798,-1.716,-1.7054,-1.6948,-1.6961,-1.6855,-1.6736,-1.6723,-1.673,-1.6955,-1.6842,-1.6836,-1.7047,-1.7265,-1.7153,-1.7054,-1.6955,-1.6955,-1.6855,-1.6643,-1.6424,-1.6311,-1.6205,-1.5998,-1.5998,-1.6111,-1.6111,-1.6004,-1.5998,-1.5998,-1.6004,-1.5998,-1.6217,-1.6211,-1.6311,-1.6418,-1.6211,-1.6105,-1.6062,-1.5852,-1.5584,-1.5499,-1.5475,-1.5433,-1.53,-1.5191,-1.5004,-1.4751,-1.463,-1.4437,-1.4358,-1.4298,-1.4298,-1.4298,-1.4298,-1.4298,-1.4298,-1.4298,-1.4298,-1.4346,-1.4702,-1.4944,-1.5167,-1.5451,-1.5759,-1.5873,-1.5885,-1.5885,-1.5885,-1.5885,-1.5885,-1.5885,-1.5885,-1.5831,-1.5728,-1.5602,-1.5603,-1.5542,-1.5358,-1.5306,-1.557,-1.5706,-1.5534,-1.5344,-1.5377,-1.5593,-1.554,-1.5635,-1.573,-1.5825,-1.5825,-1.5825,-1.5825,-1.5825,-1.5825,-1.5825,-1.5825,-1.5825,-1.5825,-1.5825,-1.5825,-1.5825,-1.5825,-1.5825,-1.5825,-1.5825,-1.5825,-1.5825,-1.5825,-1.5832,-1.6021,-1.613,-1.6319,-1.6508,-1.6697,-1.6979,-1.7589,-1.7582,-1.7384,-1.7285,-1.7173,-1.7054,-1.6942,-1.6942,-1.7166,-1.7166,-1.7047,-1.7371,-1.7589,-1.7589,-1.7378,-1.7272,-1.7272,-1.7279,-1.6961,-1.6743,-1.6524,-1.6418,-1.6211,-1.6217,-1.6318,-1.6324,-1.6211,-1.6211,-1.6217,-1.6111,-1.6111,-1.6217,-1.6111,-1.6211,-1.6418,-1.6318,-1.6105,-1.6092,-1.584,-1.5565,-1.5451,-1.5541,-1.5487,-1.5427,-1.5372,-1.5288,-1.489,-1.4721,-1.4576,-1.4358,-1.4298,-1.4298,-1.4298,-1.4298,-1.4298,-1.4298,-1.4298,-1.4298,-1.4449,-1.4727,-1.504,-1.527,-1.5547,-1.5861,-1.5879,-1.5885,-1.5885,-1.5885,-1.5885,-1.5885,-1.5885,-1.5885,-1.598,-1.5919,-1.5834,-1.5971,-1.5995,-1.5956,-1.5915,-1.6043,-1.6175,-1.6247,-1.6019,-1.5829,-1.5767,-1.5662,-1.573,-1.5825,-1.5825,-1.5825,-1.5825,-1.5825,-1.5825,-1.5825,-1.5825,-1.5825,-1.5825,-1.5825,-1.5825,-1.5825,-1.5825,-1.5825,-1.5825,-1.5825,-1.5825,-1.5927,-1.5927,-1.5927,-1.5927,-1.6123,-1.6319,-1.6602,-1.6798,-1.6979,-1.7073,-1.7589,-1.7589,-1.7589,-1.7378,-1.7279,-1.7477,-1.7477,-1.7477,-1.7582,-1.7483,-1.7477,-1.7582,-1.7589,-1.7589,-1.7589,-1.7589,-1.7589,-1.7279,-1.7173,-1.706,-1.6842,-1.663,-1.6424,-1.6424,-1.6524,-1.6424,-1.6424,-1.6424,-1.6324,-1.6318,-1.6105,-1.5998,-1.6111,-1.6217,-1.643,-1.6424,-1.6211,-1.6211,-1.5925,-1.5925,-1.587,-1.5807,-1.5795,-1.5753,-1.5596,-1.5366,-1.5089,-1.4883,-1.4642,-1.4377,-1.4316,-1.4298,-1.4298,-1.4298,-1.4298,-1.4298,-1.4298,-1.4298,-1.4419,-1.4727,-1.5046,-1.5252,-1.5541,-1.5885,-1.5885,-1.5885,-1.5885,-1.5885,-1.5885,-1.5885,-1.5885,-1.5885,-1.6105,-1.608,-1.6137,-1.633,-1.651,-1.6516,-1.6586,-1.6665,-1.6651,-1.6744,-1.652,-1.6321,-1.6029,-1.5916,-1.5737,-1.5825,-1.5825,-1.5825,-1.5825,-1.5825,-1.5825,-1.5825,-1.5825,-1.5825,-1.5825,-1.5825,-1.5825,-1.5825,-1.5825,-1.5825,-1.5825,-1.5832,-1.5832,-1.5927,-1.6123,-1.6218,-1.6312,-1.6319,-1.6508,-1.6791,-1.6972,-1.716,-1.7153,-1.7589,-1.7589,-1.7589,-1.7582,-1.7483,-1.7582,-1.7589,-1.7589,-1.7589,-1.7589,-1.7589,-1.7589,-1.7589,-1.7589,-1.7589,-1.7589,-1.7589,-1.7483,-1.7384,-1.7279,-1.7166,-1.6948,-1.6736,-1.663,-1.6624,-1.6524,-1.653,-1.653,-1.653,-1.653,-1.6424,-1.6324,-1.6324,-1.6424,-1.653,-1.6636,-1.6636,-1.6418,-1.6311,-1.6311,-1.6105,-1.6111,-1.6111,-1.5867,-1.5831,-1.5602,-1.5354,-1.5101,-1.4835,-1.4594,-1.4407,-1.434,-1.4316,-1.4316,-1.4298,-1.4298,-1.4298,-1.4298,-1.4352,-1.4678,-1.4986,-1.5378,-1.5668,-1.5885,-1.5885,-1.5885,-1.5885,-1.5885,-1.5885,-1.5992,-1.5891,-1.6105,-1.6217,-1.6324,-1.653,-1.6743,-1.6849,-1.6955,-1.7035,-1.7049,-1.712,-1.7178,-1.7014,-1.6727,-1.6433,-1.6166,-1.5979,-1.5825,-1.5825,-1.5825,-1.5825,-1.5825,-1.5825,-1.5825,-1.5825,-1.5825,-1.5825,-1.5825,-1.5825,-1.5825,-1.5825,-1.5825,-1.5825,-1.5832,-1.5927,-1.6123,-1.6312,-1.6508,-1.6602,-1.6697,-1.6791,-1.6979,-1.716,-1.7239,-1.7239,-1.7589,-1.7589,-1.7589,-1.7589,-1.7589,-1.7589,-1.7589,-1.7589,-1.7589,-1.7589,-1.7589,-1.7589,-1.7589,-1.7589,-1.7589,-1.7589,-1.7589,-1.7589,-1.7483,-1.7483,-1.7378,-1.7265,-1.7054,-1.6849,-1.6842,-1.6842,-1.6743,-1.6743,-1.6849,-1.6849,-1.6636,-1.653,-1.6537,-1.6636,-1.6736,-1.6955,-1.706,-1.673,-1.6624,-1.6624,-1.6424,-1.6424,-1.6324,-1.6205,-1.608,-1.5834,-1.5615,-1.5397,-1.5101,-1.4835,-1.4618,-1.4455,-1.4401,-1.4352,-1.431,-1.4304,-1.4304,-1.431,-1.4383,-1.4556,-1.4915,-1.5421,-1.5716,-1.5855,-1.5885,-1.5992,-1.5998,-1.6105,-1.6105,-1.6099,-1.6092,-1.6318,-1.6537,-1.6643,-1.6749,-1.6955,-1.7166,-1.7272,-1.7371,-1.7417,-1.7508,-1.7455,-1.7228,-1.6901,-1.642,-1.6146,-1.5945,-1.5825,-1.5825,-1.5825,-1.5825,-1.5825,-1.5825,-1.5825,-1.5825,-1.5825,-1.5825,-1.5825,-1.5825,-1.5825,-1.5825,-1.5825,-1.5927,-1.6021,-1.6123,-1.6319,-1.6508,-1.6791,-1.6885,-1.6979,-1.7066,-1.716,-1.7153,-1.7239,-1.7333,-1.7589,-1.7589,-1.7589,-1.7589,-1.7589,-1.7589,-1.7589,-1.7589,-1.7589,-1.7589,-1.7589,-1.7589,-1.7589,-1.7589,-1.7589,-1.7589,-1.7589,-1.7589,-1.7589,-1.7589,-1.7589,-1.7378,-1.7272,-1.7166,-1.706,-1.7173,-1.7067,-1.7067,-1.7179,-1.7166,-1.6955,-1.6849,-1.6849,-1.6961,-1.673,-1.706,-1.706,-1.673,-1.673,-1.673,-1.673,-1.6736,-1.663,-1.6524,-1.6418,-1.6187,-1.5928,-1.5683,-1.5499,-1.5303,-1.5047,-1.4918,-1.4887,-1.4607,-1.4522,-1.4497,-1.4473,-1.4449,-1.4358,-1.4706,-1.5047,-1.5366,-1.5658,-1.5834,-1.5931,-1.6056,-1.6256,-1.6187,-1.6355,-1.6599,-1.6611,-1.6736,-1.6849,-1.6961,-1.7067,-1.7166,-1.7378,-1.7483,-1.7589,-1.7582,-1.7582,-1.7535,-1.7341,-1.7034,-1.6453,-1.6106,-1.5905,-1.5825,-1.5825,-1.5825,-1.5825,-1.5825,-1.5825,-1.5825,-1.5825,-1.5825,-1.5825,-1.5825,-1.5825,-1.5825,-1.5832,-1.5927,-1.6021,-1.6123,-1.6312,-1.6501,-1.669,-1.6979,-1.7066,-1.7066,-1.7153,-1.7239,-1.7333,-1.7333,-1.7333,-1.7589,-1.7589,-1.7589,-1.7589,-1.7589,-1.7589,-1.7589,-1.7589,-1.7589,-1.7589,-1.7589,-1.7589,-1.7589,-1.7589,-1.7589,-1.7589,-1.7589,-1.7589,-1.7589,-1.7589,-1.7589,-1.7582,-1.7483,-1.7279,-1.7179,-1.7179,-1.7179,-1.7179,-1.7179,-1.7378,-1.7272,-1.7166,-1.7166,-1.7173,-1.7265,-1.7371,-1.7371,-1.7265,-1.7265,-1.7265,-1.706,-1.706,-1.6955,-1.6736,-1.663,-1.6467,-1.6361,-1.6131,-1.5987,-1.5856,-1.5626,-1.5488,-1.547,-1.5301,-1.5301,-1.5406,-1.5413,-1.5432,-1.5388,-1.5417,-1.5041,-1.5293,-1.5589,-1.5859,-1.5682,-1.5875,-1.6066,-1.6327,-1.6488,-1.6545,-1.6673,-1.6942,-1.7067,-1.7173,-1.7279,-1.7378,-1.7582,-1.7589,-1.7589,-1.7589,-1.7582,-1.7295,-1.7068,-1.6954,-1.6486,-1.6079,-1.5865,-1.5825,-1.5825,-1.5825,-1.5825,-1.5825,-1.5825,-1.5825,-1.5825,-1.5825,-1.5825,-1.5832,-1.5825,-1.5825,-1.5832,-1.6021,-1.6123,-1.6312,-1.6501,-1.6683,-1.6871,-1.7066,-1.7153,-1.7239,-1.7333,-1.7333,-1.7333,-1.7333,-1.7333,-1.7589,-1.7589,-1.7589,-1.7589,-1.7589,-1.7589,-1.7589,-1.7589,-1.7589,-1.7589,-1.7589,-1.7589,-1.7589,-1.7589,-1.7589,-1.7589,-1.7589,-1.7589,-1.7589,-1.7589,-1.7589,-1.7582,-1.7483,-1.7384,-1.7279,-1.7279,-1.7285,-1.7285,-1.7384,-1.7483,-1.7477,-1.7378,-1.7384,-1.7378,-1.7477,-1.7582,-1.7582,-1.7589,-1.7477,-1.7483,-1.7378,-1.7272,-1.7272,-1.7054,-1.6948,-1.6829,-1.6791,-1.6584,-1.6456,-1.638,-1.624,-1.617,-1.6145,-1.6074,-1.6042,-1.6017,-1.6017,-1.6004,-1.5834,-1.5992,-1.5531,-1.5163,-1.5714,-1.5891,-1.5733,-1.5967,-1.6138,-1.6247,-1.6459,-1.6613,-1.6885,-1.7167,-1.7272,-1.7384,-1.7378,-1.7582,-1.7582,-1.7589,-1.7589,-1.7589,-1.7542,-1.7201,-1.684,-1.67,-1.6486,-1.6146,-1.5825,-1.5825,-1.5825,-1.5825,-1.5825,-1.5825,-1.5825,-1.5825,-1.5825,-1.5825,-1.5825,-1.5927,-1.5927,-1.5927,-1.6211,-1.64,-1.6407,-1.6407,-1.6777,-1.6965,-1.7059,-1.7239,-1.7239,-1.7239,-1.7333,-1.7333,-1.7333,-1.7333,-1.7333,-1.7555,-1.7569,-1.7562,-1.7562,-1.7582,-1.7589,-1.7589,-1.7589,-1.7589,-1.7589,-1.7589,-1.7589,-1.7589,-1.7589,-1.7589,-1.7589,-1.7589,-1.7589,-1.7589,-1.7589,-1.7589,-1.7589,-1.7589,-1.7384,-1.7378,-1.7483,-1.7378,-1.7384,-1.7582,-1.7582,-1.7582,-1.7582,-1.7589,-1.7589,-1.7589,-1.7589,-1.7589,-1.7589,-1.7589,-1.7589,-1.7483,-1.7589,-1.7483,-1.7371,-1.7272,-1.7166,-1.7147,-1.7002,-1.6785,-1.6714,-1.6573,-1.6477,-1.6356,-1.619,-1.61,-1.6068,-1.6201,-1.6233,-1.6259,-1.6451,-1.624,-1.5847,-1.6126,-1.6113,-1.61,-1.6117,-1.6397,-1.6603,-1.6741,-1.7032,-1.7241,-1.7415,-1.7589,-1.7589,-1.7589,-1.7589,-1.7589,-1.7589,-1.7589,-1.7589,-1.7589,-1.7321,-1.686,-1.6633,-1.6473,-1.6099,-1.5825,-1.5825,-1.5825,-1.5825,-1.5825,-1.5825,-1.5825,-1.5825,-1.5825,-1.5832,-1.5927,-1.6021,-1.6211,-1.6211,-1.6494,-1.6683,-1.669,-1.6784,-1.7059,-1.7246,-1.7239,-1.7239,-1.7239,-1.7333,-1.7333,-1.7333,-1.7333,-1.7333,-1.7333,-1.7074,-1.7268,-1.7275,-1.7388,-1.7575,-1.7589,-1.7589,-1.7589,-1.7589,-1.7589,-1.7589,-1.7589,-1.7589,-1.7589,-1.7589,-1.7589,-1.7589,-1.7589,-1.7589,-1.7589,-1.7589,-1.7589,-1.7589,-1.7483,-1.7483,-1.7589,-1.7483,-1.7483,-1.7589,-1.7589,-1.7589,-1.7589,-1.7589,-1.7589,-1.7589,-1.7589,-1.7589,-1.7589,-1.7589,-1.7589,-1.7589,-1.7589,-1.7589,-1.7589,-1.7483,-1.7483,-1.7378,-1.7378,-1.7265,-1.7219,-1.7292,-1.7246,-1.7226,-1.7166,-1.7127,-1.7133,-1.714,-1.7133,-1.7127,-1.7231,-1.7028,-1.6632,-1.6813,-1.6432,-1.6296,-1.6345,-1.6619,-1.6806,-1.6945,-1.7154,-1.7288,-1.7455,-1.7569,-1.7589,-1.7589,-1.7589,-1.7589,-1.7589,-1.7589,-1.7575,-1.7575,-1.7288,-1.684,-1.6633,-1.644,-1.6046,-1.5825,-1.5825,-1.5825,-1.5825,-1.5825,-1.5825,-1.5825,-1.5825,-1.5927,-1.5933,-1.6028,-1.6218,-1.6407,-1.6501,-1.6588,-1.6777,-1.6878,-1.6965,-1.7153,-1.7239,-1.7333,-1.7333,-1.7333,-1.7333,-1.7333,-1.7333,-1.7333,-1.7333,-1.7333,-1.6807,-1.6967,-1.6974,-1.7141,-1.7402,-1.7535,-1.7589,-1.7589,-1.7589,-1.7589,-1.7589,-1.7589,-1.7589,-1.7589,-1.7589,-1.7589,-1.7589,-1.7589,-1.7589,-1.7589,-1.7589,-1.7589,-1.7589,-1.7589,-1.7589,-1.7589,-1.7589,-1.7589,-1.7589,-1.7589,-1.7589,-1.7589,-1.7589,-1.7589,-1.7589,-1.7589,-1.7589,-1.7589,-1.7589,-1.7589,-1.7589,-1.7589,-1.7589,-1.7589,-1.7589,-1.7589,-1.7589,-1.7589,-1.7589,-1.7589,-1.7589,-1.7582,-1.7582,-1.7569,-1.7569,-1.7542,-1.7542,-1.7528,-1.7522,-1.7542,-1.7455,-1.7368,-1.7308,-1.7131,-1.6823,-1.6711,-1.6779,-1.6887,-1.7054,-1.7208,-1.7368,-1.7502,-1.7549,-1.7589,-1.7589,-1.7589,-1.7589,-1.7589,-1.7575,-1.7562,-1.7395,-1.7141,-1.6887,-1.668,-1.6413,-1.6025,-1.5825,-1.5825,-1.5825,-1.5825,-1.5825,-1.5825,-1.5825,-1.5832,-1.5933,-1.6123,-1.6312,-1.6407,-1.6697,-1.6784,-1.6777,-1.6864,-1.7059,-1.7153,-1.7239,-1.7239,-1.7333,-1.7333,-1.7333,-1.7333,-1.7333,-1.7333,-1.7333,-1.7333,-1.7333,-1.6647,-1.6673,-1.6693,-1.6881,-1.7128,-1.7375,-1.7475,-1.7522,-1.7508,-1.7555,-1.7575,-1.7589,-1.7589,-1.7589,-1.7589,-1.7589,-1.7589,-1.7589,-1.7589,-1.7589,-1.7589,-1.7589,-1.7589,-1.7589,-1.7589,-1.7589,-1.7589,-1.7589,-1.7589,-1.7589,-1.7589,-1.7589,-1.7589,-1.7589,-1.7589,-1.7589,-1.7589,-1.7589,-1.7589,-1.7589,-1.7589,-1.7589,-1.7589,-1.7589,-1.7589,-1.7589,-1.7589,-1.7589,-1.7589,-1.7589,-1.7589,-1.7589,-1.7589,-1.7589,-1.7589,-1.7589,-1.7589,-1.7589,-1.7589,-1.7589,-1.7589,-1.7555,-1.7582,-1.7502,-1.7198,-1.7032,-1.7081,-1.7081,-1.7241,-1.7308,-1.7435,-1.7522,-1.7569,-1.7589,-1.7589,-1.7589,-1.7589,-1.7528,-1.7428,-1.7375,-1.7194,-1.6941,-1.668,-1.6453,-1.6397,-1.5959,-1.5927,-1.5927,-1.592,-1.592,-1.592,-1.5825,-1.5825,-1.5927,-1.6123,-1.6312,-1.6501,-1.6697,-1.6885,-1.7066,-1.7052,-1.7145,-1.7239,-1.7239,-1.7239,-1.7239,-1.7333,-1.7333,-1.7333,-1.7326,-1.7326,-1.7326,-1.7326,-1.7333,-1.7333,-1.6172,-1.6393,-1.6613,-1.6754,-1.6814,-1.6881,-1.6927,-1.6941,-1.7168,-1.7361,-1.7549,-1.7575,-1.7589,-1.7589,-1.7589,-1.7589,-1.7589,-1.7589,-1.7589,-1.7589,-1.7589,-1.7589,-1.7589,-1.7589,-1.7589,-1.7589,-1.7589,-1.7589,-1.7589,-1.7589,-1.7589,-1.7589,-1.7589,-1.7589,-1.7589,-1.7589,-1.7589,-1.7589,-1.7589,-1.7589,-1.7589,-1.7589,-1.7589,-1.7589,-1.7589,-1.7589,-1.7589,-1.7589,-1.7589,-1.7589,-1.7589,-1.7589,-1.7589,-1.7589,-1.7589,-1.7589,-1.7589,-1.7589,-1.7589,-1.7589,-1.7589,-1.7589,-1.7589,-1.7589,-1.7528,-1.7422,-1.7368,-1.7382,-1.7395,-1.7435,-1.7468,-1.7535,-1.7589,-1.7589,-1.7555,-1.7555,-1.7549,-1.7408,-1.7261,-1.7121,-1.6967,-1.6734,-1.6466,-1.637,-1.6209,-1.6177,-1.6164,-1.6123,-1.6305,-1.6305,-1.6109,-1.6015,-1.5832,-1.5927,-1.6218,-1.6407,-1.669,-1.6878,-1.7066,-1.7246,-1.7333,-1.7333,-1.7333,-1.7333,-1.7333,-1.7333,-1.7333,-1.7333,-1.7333,-1.7333,-1.7426,-1.752,-1.752,-1.752,-1.7426,-1.5925,-1.6106,-1.6393,-1.6513,-1.654,-1.6647,-1.6707,-1.6734,-1.6887,-1.7041,-1.7241,-1.7442,-1.7582,-1.7582,-1.7589,-1.7589,-1.7589,-1.7589,-1.7589,-1.7589,-1.7589,-1.7589,-1.7589,-1.7589,-1.7589,-1.7589,-1.7589,-1.7589,-1.7589,-1.7589,-1.7589,-1.7589,-1.7589,-1.7589,-1.7589,-1.7589,-1.7589,-1.7589,-1.7589,-1.7589,-1.7589,-1.7589,-1.7589,-1.7589,-1.7589,-1.7589,-1.7589,-1.7589,-1.7589,-1.7589,-1.7589,-1.7589,-1.7589,-1.7589,-1.7589,-1.7589,-1.7589,-1.7589,-1.7589,-1.7589,-1.7589,-1.7589,-1.7589,-1.7589,-1.7589,-1.7495,-1.7495,-1.7502,-1.7502,-1.7528,-1.7528,-1.7582,-1.7589,-1.7589,-1.7408,-1.7295,-1.7181,-1.7027,-1.6954,-1.6907,-1.6727,-1.6513,-1.6377,-1.6305,-1.6266,-1.6225,-1.6231,-1.64,-1.6588,-1.6683,-1.6494,-1.6298,-1.6204,-1.6305,-1.6595,-1.6784,-1.6878,-1.7059,-1.7246,-1.7239,-1.7333,-1.7333,-1.7333,-1.7333,-1.7333,-1.7333,-1.7333,-1.7333,-1.7434,-1.7527,-1.7621,-1.7628,-1.7714,-1.7714,-1.7714,-1.5927,-1.5879,-1.6106,-1.6219,-1.6253,-1.6473,-1.6567,-1.6587,-1.6627,-1.6647,-1.674,-1.7215,-1.7455,-1.7528,-1.7582,-1.7589,-1.7589,-1.7589,-1.7589,-1.7589,-1.7589,-1.7589,-1.7589,-1.7589,-1.7589,-1.7589,-1.7589,-1.7589,-1.7589,-1.7589,-1.7589,-1.7589,-1.7589,-1.7589,-1.7589,-1.7589,-1.7589,-1.7589,-1.7589,-1.7589,-1.7589,-1.7589,-1.7589,-1.7589,-1.7589,-1.7589,-1.7589,-1.7542,-1.7542,-1.7508,-1.7482,-1.7475,-1.7522,-1.7535,-1.7589,-1.7589,-1.7589,-1.7589,-1.7589,-1.7589,-1.7589,-1.7589,-1.7589,-1.7589,-1.7589,-1.7589,-1.7589,-1.7589,-1.7589,-1.7589,-1.7589,-1.7589,-1.7589,-1.7555,-1.7328,-1.7114,-1.6947,-1.676,-1.6714,-1.6687,-1.6466,-1.6259,-1.6312,-1.6239,-1.6279,-1.6333,-1.6407,-1.6588,-1.6676,-1.6864,-1.677,-1.677,-1.6676,-1.6871,-1.6979,-1.6979,-1.7066,-1.7153,-1.7239,-1.7333,-1.7333,-1.7333,-1.7333,-1.7333,-1.7333,-1.7333,-1.7333,-1.7426,-1.7527,-1.7721,-1.7908,-1.8001,-1.79,-1.7994,-1.7908,-1.6305,-1.6137,-1.5994,-1.5919,-1.5932,-1.5992,-1.5992,-1.6039,-1.6266,-1.6353,-1.6545,-1.6693,-1.6981,-1.7241,-1.7495,-1.7582,-1.7589,-1.7589,-1.7589,-1.7589,-1.7589,-1.7589,-1.7589,-1.7589,-1.7589,-1.7589,-1.7589,-1.7589,-1.7589,-1.7589,-1.7589,-1.7589,-1.7589,-1.7589,-1.7589,-1.7589,-1.7589,-1.7589,-1.7589,-1.7589,-1.7589,-1.7589,-1.7589,-1.7589,-1.7589,-1.7589,-1.7535,-1.7341,-1.7268,-1.7235,-1.7241,-1.7241,-1.7328,-1.7442,-1.7522,-1.7589,-1.7589,-1.7589,-1.7589,-1.7589,-1.7589,-1.7589,-1.7589,-1.7589,-1.7589,-1.7589,-1.7589,-1.7589,-1.7589,-1.7589,-1.7589,-1.7589,-1.7582,-1.7549,-1.7395,-1.7228,-1.7061,-1.68,-1.6607,-1.642,-1.6172,-1.6238,-1.6245,-1.6347,-1.6536,-1.6602,-1.6791,-1.6965,-1.7052,-1.7052,-1.7145,-1.7052,-1.7052,-1.7059,-1.7073,-1.7073,-1.7066,-1.7246,-1.7333,-1.7333,-1.7333,-1.7333,-1.7333,-1.7333,-1.7333,-1.7333,-1.7333,-1.7527,-1.7628,-1.7815,-1.8195,-1.8381,-1.828,-1.8179,-1.8187]},{"header":{"parameterUnit":"m.s-1","parameterCategory":1,"la1":31.0,"la2":29.5877,"lo1":-88.7671,"lo2":-86.6584,"dy":0.0162,"dx":0.0185,"nx":115,"ny":88,"refTime":"2023-08-01T18:00:00:Z","depth":0,"parameterNumber":3,"parameterNumberName":"V-component_of_WINDS"},"data":[0.0,0.0,0.0,0.0,0.0,0.0,0.0,0.0,0.0,0.0,0.0,0.0,0.0,0.0,0.0,0.0,0.0,0.0,0.0,0.0,0.0,0.0,0.0,0.0,0.0,0.0,0.0,0.0,0.0,0.0,0.0,0.0,0.0,0.0,0.0,0.0,0.0,0.0,0.0,0.0,0.0,0.0,0.0,0.0,0.0,0.0,0.0,0.0,0.0,0.0,0.0,0.0,0.0,0.0,0.0,0.0,0.0,0.0,0.0,0.0,0.0,0.0,0.0,0.0,0.0,0.0,0.0,0.0,0.0,0.0,0.0,0.0,0.0,0.0,0.0,0.0,0.0,0.0,0.0,0.0,0.0,0.0,0.0,0.0,0.0,0.0,0.0,0.0,0.0,0.0,0.0,0.0,0.0,0.0,0.0,0.0,0.0,0.0,0.0,0.0,0.0,0.0,0.0,0.0,0.0,0.0,0.0,0.0,0.0,0.0,0.0,0.0,0.0,0.0,0.0,0.0,0.0,0.0,0.0,0.0,0.0,0.0,0.0,0.0,0.0,0.0,0.0,0.0,0.0,0.0,0.0,0.0,0.0,0.0,0.0,0.0,0.0,0.0,0.0,0.0,0.0,0.0,0.0,0.0,0.0,0.0,0.0,0.0,0.0,0.0,0.0,0.0,0.0,0.0,0.0,0.0,0.0,0.0,0.0,0.0,0.0,0.0,0.0,0.0,0.0,0.0,0.0,0.0,0.0,0.0,0.0,0.0,0.0,0.0,0.0,0.0,0.0,0.0,0.0,0.0,0.0,0.0,0.0,0.0,0.0,0.0,0.0,0.0,0.0,0.0,0.0,0.0,0.0,0.0,0.0,0.0,0.0,0.0,0.0,0.0,0.0,0.0,0.0,0.0,0.0,0.0,0.0,0.0,0.0,0.0,0.0,0.0,0.0,0.0,0.0,0.0,0.0,0.0,0.0,0.0,0.0,0.0,0.0,0.0,0.0,0.0,0.0,0.0,0.0,0.0,0.0,0.0,0.0,0.0,0.0,0.0,0.0,0.0,0.0,0.0,0.0,0.0,0.0,0.0,0.0,0.0,0.0,0.0,0.0,0.0,0.0,0.0,0.0,0.0,0.0,0.0,0.0,0.0,0.0,0.0,0.0,0.0,0.0,0.0,0.0,0.0,0.0,0.0,0.0,0.0,0.0,0.0,0.0,0.0,0.0,0.0,0.0,0.0,0.0,0.0,0.0,0.0,0.0,0.0,0.0,0.0,0.0,0.0,0.0,0.0,0.0,0.0,0.0,0.0,0.0,0.0,0.0,0.0,0.0,0.0,0.0,0.0,0.0,0.0,0.0,0.0,0.0,0.0,0.0,0.0,0.0,0.0,0.0,0.0,0.0,0.0,0.0,0.0,0.0,0.0,0.0,0.0,0.0,0.0,0.0,0.0,0.0,0.0,0.0,0.0,0.0,0.0,0.0,0.0,0.0,0.0,0.0,0.0,0.0,0.0,0.0,0.0,0.0,0.0,0.0,0.0,0.0,0.0,0.0,0.0,0.0,0.0,0.0,0.0,0.0,0.0,0.0,0.0,0.0,0.0,0.0,0.0,0.0,0.0,0.0,0.0,0.0,0.0,0.0,0.0,0.0,0.0,0.0,0.0,0.0,0.0,0.0,0.0,0.0,0.0,0.0,0.0,0.0,0.0,0.0,0.0,0.0,0.0,0.0,0.0,0.0,0.0,0.0,0.0,0.0,0.0,0.0,0.0,0.0,0.0,0.0,0.0,0.0,0.0,0.0,0.0,0.0,0.0,0.0,0.0,0.0,0.0,0.0,0.0,0.0,0.0,0.0,0.0,0.0,0.0,0.0,0.0,0.0,0.0,0.0,0.0,0.0,0.0,0.0,0.0,0.0,0.0,0.0,0.0,0.0,0.0,0.0,0.0,0.0,0.0,0.0,0.0,0.0,0.0,0.0,0.0,0.0,0.0,0.0,0.0,0.0,0.0,0.0,0.0,0.0,0.0,0.0,0.0,0.0,0.0,0.0,0.0,0.0,0.0,0.0,0.0,0.0,0.0,0.0,0.0,0.0,0.0,0.0,0.0,0.0,0.0,0.0,0.0,0.0,0.0,0.0,0.0,0.0,0.0,0.0,0.0,0.0,0.0,0.0,0.0,0.0,0.0,0.0,0.0,0.0,0.0,0.0,0.0,0.0,0.0,0.0,0.0,0.0,0.0,0.0,0.0,0.0,0.0,0.0,0.0,0.0,0.0,0.0,0.0,0.0,0.0,0.0,0.0,0.0,0.0,0.0,0.0,0.0,0.0,0.0,0.0,0.0,0.0,0.0,0.0,0.0,0.0,0.0,0.0,0.0,0.0,0.0,0.0,0.0,0.0,0.0,0.0,0.0,0.0,0.0,0.0,0.0,0.0,0.0,0.0,0.0,0.0,0.0,0.0,0.0,0.0,0.0,0.0,0.0,0.0,0.0,0.0,0.0,0.0,0.0,0.0,0.0,0.0,0.0,0.0,0.0,0.0,0.0,0.0,0.0,0.0,0.0,0.0,0.0,0.0,0.0,0.0,0.0,0.0,0.0,0.0,0.0,0.0,0.0,0.0,0.0,0.0,0.0,0.0,0.0,0.0,0.0,0.0,0.0,0.0,0.0,0.0,0.0,0.0,0.0,0.0,0.0,0.0,0.0,0.0,0.0,0.0,0.0,0.0,0.0,0.0,0.0,0.0,0.0,0.0,0.0,0.0,0.0,0.0,0.0,0.0,0.0,0.0,0.0,0.0,0.0,0.0,0.0,0.0,0.0,0.0,0.0,0.0,0.0,0.0,0.0,0.0,0.0,0.0,0.0,0.0,0.0,0.0,0.0,0.0,0.0,0.0,0.0,0.0,0.0,0.0,0.0,0.0,0.0,0.0,0.0,0.0,0.0,0.0,0.0,0.0,0.0,0.0,0.0,0.0,0.0,0.0,0.0,0.0,0.0,0.0,0.0,0.0,0.0,0.0,0.0,0.0,0.0,0.0,0.0,0.0,0.0,0.0,0.0,0.0,0.0,0.0,0.0,0.0,0.0,0.0,0.0,0.0,0.0,0.0,0.0,0.0,0.0,0.0,0.0,0.0,0.0,0.0,0.0,0.0,0.0,0.0,0.0,0.0,0.0,0.0,0.0,0.0,0.0,0.0,0.0,0.0,0.0,0.0,0.0,0.0,0.0,0.0,0.0,0.0,0.0,0.0,0.0,0.0,0.0,0.0,0.0,0.0,0.0,0.0,0.0,0.0,0.0,0.0,0.0,0.0,0.0,0.0,0.0,0.0,0.0,0.0,0.0,0.0,0.0,0.0,0.0,0.0,0.0,0.0,0.0,0.0,0.0,0.0,0.0,0.0,0.0,0.0,0.0,0.0,0.0,0.0,0.0,0.0,0.0,0.0,0.0,0.0,0.0,0.0,0.0,0.0,0.0,0.0,0.0,0.0,0.0,0.0,0.0,0.0,0.0,0.0,0.0,0.0,0.0,0.0,0.0,0.0,0.0,0.0,0.0,0.0,0.0,0.0,0.0,0.0,0.0,0.0,0.0,0.0,0.0,0.0,0.0,0.0,0.0,0.0,0.0,0.0,0.0,0.0,0.0,0.0,0.0,0.0,0.0,0.0,0.0,0.0,0.0,0.0,0.0,0.0,0.0,0.0,0.0,0.0,0.0,0.0,0.0,0.0,0.0,0.0,0.0,0.0,0.0,0.0,0.0,0.0,0.0,0.0,0.0,0.0,0.0,0.0,0.0,0.0,0.0,0.0,0.0,0.0,0.0,0.0,0.0,0.0,0.0,0.0,0.0,0.0,0.0,0.0,0.0,0.0,0.0,0.0,0.0,0.0,0.0,0.0,0.0,0.0,0.0,0.0,0.0,0.0,0.0,0.0,0.0,0.0,0.0,0.0,0.0,0.0,0.0,0.0,0.0,0.0,0.0,0.0,0.0,0.0,0.0,0.0,0.0,0.0,0.0,0.0,0.0,0.0,0.0,0.0,0.0,0.0,0.0,0.0,0.0,0.0,0.0,0.0,0.0,0.0,0.0,0.0,0.0,0.0,0.0,0.0,0.0,0.0,0.0,0.0,0.0,0.0,0.0,0.0,0.0,0.0,0.0,0.0,0.0,0.0,0.0,0.0,0.0,0.0,0.0,0.0,0.0,0.0,0.0,0.0,0.0,0.0,0.0,0.0,0.0,0.0,0.0,0.0,0.0,0.0,0.0,0.0,0.0,0.0,0.0,0.0,-2.8858,0.0,0.0,0.0,0.0,0.0,0.0,0.0,0.0,0.0,0.0,0.0,0.0,0.0,0.0,0.0,0.0,0.0,0.0,0.0,0.0,0.0,0.0,0.0,0.0,0.0,0.0,0.0,0.0,0.0,0.0,0.0,0.0,0.0,0.0,0.0,0.0,0.0,0.0,0.0,0.0,0.0,0.0,0.0,0.0,0.0,0.0,0.0,0.0,0.0,0.0,0.0,0.0,0.0,0.0,0.0,0.0,0.0,0.0,0.0,0.0,0.0,0.0,0.0,0.0,0.0,0.0,0.0,0.0,0.0,0.0,0.0,0.0,0.0,0.0,0.0,0.0,0.0,0.0,0.0,0.0,0.0,0.0,0.0,0.0,0.0,0.0,0.0,0.0,0.0,0.0,0.0,0.0,0.0,0.0,0.0,0.0,0.0,0.0,0.0,0.0,0.0,0.0,0.0,0.0,0.0,0.0,0.0,0.0,0.0,0.0,-2.8761,-2.881,-2.8662,-2.8637,-2.8718,0.0,0.0,0.0,0.0,0.0,0.0,0.0,0.0,0.0,0.0,0.0,0.0,0.0,0.0,0.0,0.0,0.0,0.0,0.0,0.0,0.0,0.0,0.0,0.0,0.0,0.0,0.0,0.0,0.0,0.0,0.0,0.0,0.0,0.0,0.0,0.0,0.0,0.0,0.0,0.0,0.0,0.0,0.0,0.0,0.0,0.0,0.0,0.0,0.0,0.0,0.0,0.0,0.0,0.0,0.0,0.0,0.0,0.0,0.0,0.0,0.0,0.0,0.0,0.0,0.0,0.0,0.0,0.0,0.0,0.0,0.0,0.0,0.0,0.0,0.0,0.0,0.0,0.0,0.0,0.0,0.0,0.0,0.0,0.0,0.0,0.0,0.0,0.0,0.0,0.0,0.0,0.0,0.0,0.0,0.0,0.0,0.0,0.0,0.0,0.0,0.0,0.0,0.0,0.0,0.0,0.0,0.0,0.0,0.0,0.0,0.0,0.0,-2.8644,-2.8612,-2.8637,0.0,0.0,0.0,0.0,0.0,0.0,0.0,0.0,0.0,0.0,0.0,0.0,0.0,0.0,0.0,0.0,0.0,0.0,0.0,0.0,0.0,0.0,0.0,0.0,0.0,0.0,0.0,0.0,0.0,0.0,0.0,0.0,0.0,0.0,0.0,0.0,0.0,0.0,0.0,0.0,0.0,0.0,0.0,0.0,0.0,0.0,0.0,0.0,0.0,0.0,0.0,0.0,0.0,0.0,0.0,0.0,0.0,0.0,0.0,0.0,0.0,0.0,0.0,0.0,0.0,0.0,0.0,0.0,0.0,0.0,0.0,0.0,0.0,0.0,0.0,0.0,0.0,0.0,0.0,0.0,0.0,0.0,0.0,0.0,0.0,0.0,0.0,0.0,0.0,0.0,0.0,0.0,0.0,0.0,0.0,0.0,0.0,0.0,0.0,0.0,0.0,0.0,0.0,0.0,0.0,0.0,0.0,0.0,0.0,0.0,-2.8971,-2.8971,-2.8725,0.0,-2.8669,0.0,0.0,0.0,0.0,0.0,0.0,0.0,0.0,0.0,0.0,0.0,0.0,0.0,0.0,0.0,0.0,0.0,0.0,0.0,0.0,0.0,0.0,0.0,0.0,0.0,0.0,0.0,0.0,0.0,0.0,0.0,0.0,0.0,0.0,0.0,0.0,0.0,0.0,0.0,0.0,0.0,0.0,0.0,0.0,0.0,0.0,0.0,0.0,0.0,0.0,0.0,0.0,0.0,0.0,0.0,0.0,0.0,0.0,0.0,0.0,0.0,0.0,0.0,0.0,0.0,0.0,0.0,0.0,0.0,0.0,0.0,0.0,0.0,0.0,0.0,0.0,0.0,0.0,0.0,0.0,0.0,0.0,0.0,0.0,0.0,0.0,0.0,0.0,0.0,0.0,0.0,0.0,0.0,0.0,0.0,0.0,0.0,0.0,0.0,0.0,0.0,0.0,0.0,0.0,0.0,0.0,0.0,0.0,0.0,0.0,-2.8845,-2.8989,-2.8743,-2.863,0.0,0.0,0.0,0.0,0.0,0.0,0.0,0.0,0.0,0.0,0.0,0.0,0.0,0.0,0.0,0.0,0.0,0.0,0.0,0.0,0.0,0.0,0.0,0.0,0.0,0.0,0.0,0.0,0.0,0.0,0.0,0.0,0.0,0.0,0.0,0.0,0.0,0.0,0.0,0.0,0.0,0.0,0.0,0.0,0.0,0.0,0.0,0.0,0.0,0.0,0.0,0.0,0.0,0.0,0.0,0.0,0.0,0.0,0.0,0.0,0.0,0.0,0.0,0.0,0.0,0.0,0.0,0.0,0.0,0.0,0.0,0.0,0.0,0.0,0.0,0.0,0.0,0.0,0.0,0.0,0.0,0.0,0.0,0.0,0.0,0.0,0.0,0.0,0.0,0.0,0.0,0.0,0.0,0.0,0.0,0.0,0.0,0.0,0.0,0.0,0.0,0.0,0.0,0.0,0.0,0.0,0.0,0.0,0.0,0.0,-2.8892,-2.8887,-2.9052,-2.8839,-2.8694,-2.8712,0.0,0.0,0.0,0.0,0.0,0.0,0.0,0.0,0.0,0.0,0.0,0.0,0.0,0.0,0.0,0.0,0.0,0.0,0.0,0.0,0.0,0.0,0.0,0.0,0.0,0.0,0.0,0.0,0.0,0.0,0.0,0.0,0.0,0.0,0.0,0.0,0.0,0.0,0.0,0.0,0.0,0.0,0.0,0.0,0.0,0.0,0.0,0.0,0.0,0.0,0.0,0.0,0.0,0.0,0.0,0.0,0.0,0.0,0.0,0.0,0.0,0.0,0.0,0.0,0.0,0.0,0.0,0.0,0.0,0.0,0.0,0.0,0.0,0.0,0.0,0.0,0.0,0.0,0.0,0.0,0.0,0.0,0.0,0.0,0.0,0.0,0.0,0.0,0.0,0.0,0.0,0.0,0.0,0.0,0.0,0.0,0.0,0.0,0.0,0.0,0.0,0.0,0.0,0.0,0.0,0.0,0.0,0.0,-2.9272,-2.9272,-2.9272,-2.9272,-2.9075,-2.898,0.0,0.0,0.0,0.0,0.0,0.0,0.0,0.0,0.0,0.0,0.0,0.0,0.0,0.0,0.0,0.0,0.0,0.0,0.0,0.0,0.0,0.0,0.0,0.0,0.0,0.0,0.0,0.0,0.0,0.0,0.0,0.0,0.0,0.0,0.0,0.0,0.0,0.0,0.0,0.0,0.0,0.0,0.0,0.0,0.0,0.0,0.0,0.0,0.0,0.0,0.0,0.0,0.0,0.0,0.0,0.0,0.0,0.0,0.0,0.0,0.0,0.0,0.0,0.0,0.0,0.0,0.0,0.0,0.0,0.0,0.0,0.0,0.0,0.0,0.0,0.0,0.0,0.0,0.0,0.0,0.0,0.0,0.0,0.0,0.0,0.0,0.0,0.0,0.0,0.0,0.0,0.0,0.0,0.0,0.0,0.0,0.0,0.0,0.0,0.0,0.0,0.0,0.0,0.0,0.0,0.0,0.0,0.0,0.0,-2.9494,-2.9494,-2.9416,-2.9293,-2.9209,-2.9188,0.0,0.0,0.0,0.0,0.0,0.0,0.0,0.0,0.0,0.0,0.0,0.0,0.0,0.0,0.0,0.0,0.0,0.0,0.0,0.0,0.0,0.0,0.0,0.0,0.0,0.0,0.0,0.0,0.0,0.0,0.0,0.0,0.0,0.0,0.0,0.0,0.0,0.0,0.0,0.0,0.0,0.0,0.0,0.0,0.0,0.0,0.0,0.0,0.0,0.0,0.0,0.0,0.0,0.0,0.0,0.0,0.0,0.0,0.0,0.0,0.0,0.0,0.0,0.0,0.0,0.0,0.0,0.0,0.0,0.0,0.0,0.0,0.0,0.0,0.0,0.0,0.0,0.0,0.0,0.0,0.0,0.0,0.0,0.0,0.0,0.0,0.0,0.0,0.0,0.0,0.0,0.0,0.0,0.0,0.0,0.0,0.0,0.0,0.0,0.0,0.0,0.0,0.0,0.0,0.0,0.0,0.0,0.0,0.0,-2.9608,0.0,-2.9626,-2.9494,-2.9435,-2.9377,0.0,0.0,0.0,0.0,0.0,0.0,0.0,0.0,0.0,0.0,0.0,0.0,0.0,0.0,0.0,0.0,0.0,0.0,0.0,0.0,0.0,0.0,0.0,0.0,0.0,0.0,0.0,0.0,0.0,0.0,0.0,0.0,0.0,0.0,0.0,0.0,0.0,0.0,0.0,0.0,0.0,0.0,0.0,0.0,0.0,0.0,0.0,0.0,0.0,0.0,0.0,0.0,0.0,0.0,0.0,0.0,0.0,0.0,0.0,0.0,0.0,0.0,0.0,0.0,0.0,0.0,0.0,0.0,0.0,0.0,0.0,0.0,0.0,0.0,0.0,0.0,0.0,0.0,0.0,0.0,0.0,0.0,0.0,0.0,0.0,0.0,0.0,0.0,0.0,0.0,0.0,0.0,0.0,0.0,0.0,0.0,0.0,0.0,0.0,0.0,0.0,0.0,0.0,0.0,0.0,0.0,0.0,0.0,-2.9418,-2.9589,-2.9805,-2.9907,-2.9888,-2.9698,-2.9608,0.0,0.0,0.0,0.0,0.0,0.0,0.0,0.0,0.0,0.0,0.0,0.0,0.0,0.0,0.0,0.0,0.0,0.0,0.0,0.0,0.0,0.0,0.0,0.0,0.0,0.0,0.0,0.0,0.0,0.0,0.0,0.0,0.0,0.0,0.0,0.0,0.0,0.0,0.0,0.0,0.0,0.0,0.0,0.0,0.0,0.0,0.0,0.0,0.0,0.0,0.0,0.0,0.0,0.0,0.0,0.0,0.0,0.0,0.0,0.0,0.0,0.0,0.0,0.0,0.0,0.0,0.0,0.0,0.0,0.0,0.0,0.0,0.0,0.0,0.0,0.0,0.0,0.0,0.0,0.0,0.0,0.0,0.0,0.0,0.0,0.0,0.0,0.0,0.0,0.0,0.0,0.0,0.0,0.0,0.0,0.0,0.0,0.0,0.0,0.0,0.0,0.0,0.0,0.0,0.0,0.0,0.0,0.0,0.0,-2.9822,-2.9872,-2.9907,-2.9907,-2.9839,-2.9805,0.0,0.0,0.0,0.0,0.0,0.0,0.0,0.0,0.0,0.0,0.0,0.0,0.0,0.0,0.0,0.0,0.0,0.0,0.0,0.0,0.0,0.0,0.0,0.0,0.0,0.0,0.0,0.0,0.0,0.0,0.0,0.0,0.0,0.0,0.0,0.0,0.0,0.0,0.0,0.0,0.0,0.0,0.0,0.0,0.0,0.0,0.0,0.0,0.0,0.0,0.0,0.0,0.0,0.0,0.0,0.0,0.0,0.0,0.0,0.0,0.0,0.0,0.0,0.0,0.0,0.0,0.0,0.0,0.0,0.0,0.0,0.0,0.0,0.0,0.0,0.0,0.0,0.0,0.0,0.0,0.0,0.0,0.0,0.0,0.0,0.0,0.0,0.0,0.0,0.0,0.0,0.0,0.0,0.0,0.0,0.0,0.0,0.0,0.0,0.0,0.0,0.0,0.0,0.0,0.0,0.0,0.0,0.0,0.0,-2.994,-2.994,-2.9956,-2.9972,-2.9905,-2.9905,-2.994,0.0,0.0,0.0,0.0,0.0,0.0,0.0,0.0,0.0,0.0,0.0,0.0,0.0,0.0,0.0,0.0,0.0,0.0,0.0,0.0,0.0,0.0,0.0,0.0,0.0,0.0,0.0,0.0,0.0,0.0,0.0,0.0,0.0,0.0,0.0,0.0,0.0,0.0,0.0,0.0,0.0,0.0,0.0,0.0,0.0,0.0,0.0,0.0,0.0,0.0,0.0,0.0,0.0,0.0,0.0,0.0,0.0,0.0,0.0,0.0,0.0,0.0,0.0,0.0,0.0,0.0,0.0,0.0,0.0,0.0,0.0,0.0,0.0,0.0,0.0,0.0,0.0,0.0,0.0,0.0,0.0,0.0,0.0,0.0,0.0,0.0,0.0,0.0,0.0,0.0,0.0,0.0,0.0,0.0,0.0,0.0,0.0,0.0,0.0,0.0,0.0,0.0,0.0,0.0,0.0,0.0,0.0,0.0,-3.0007,-3.0007,-3.0022,-3.0087,-2.9956,-2.994,0.0,0.0,0.0,0.0,0.0,0.0,0.0,0.0,0.0,0.0,0.0,0.0,0.0,0.0,0.0,0.0,0.0,0.0,0.0,0.0,0.0,0.0,0.0,0.0,0.0,0.0,0.0,0.0,0.0,0.0,0.0,0.0,0.0,0.0,0.0,0.0,0.0,0.0,0.0,0.0,0.0,0.0,0.0,0.0,0.0,0.0,0.0,0.0,0.0,0.0,0.0,0.0,0.0,0.0,0.0,0.0,0.0,0.0,0.0,0.0,0.0,0.0,0.0,0.0,0.0,0.0,0.0,0.0,0.0,0.0,0.0,0.0,0.0,0.0,0.0,0.0,0.0,0.0,0.0,0.0,0.0,0.0,0.0,0.0,0.0,0.0,0.0,0.0,0.0,0.0,0.0,0.0,0.0,0.0,0.0,0.0,0.0,0.0,0.0,0.0,0.0,0.0,0.0,0.0,0.0,0.0,0.0,0.0,0.0,-3.0053,-3.0087,-3.0038,-2.9956,-2.9905,-2.9905,0.0,0.0,0.0,0.0,0.0,0.0,0.0,0.0,0.0,0.0,0.0,0.0,0.0,0.0,0.0,0.0,0.0,0.0,0.0,0.0,0.0,0.0,0.0,0.0,0.0,0.0,0.0,0.0,0.0,0.0,0.0,0.0,0.0,0.0,0.0,0.0,0.0,0.0,0.0,0.0,0.0,0.0,0.0,0.0,0.0,0.0,0.0,0.0,0.0,0.0,0.0,0.0,0.0,0.0,0.0,0.0,0.0,0.0,0.0,0.0,0.0,0.0,0.0,0.0,0.0,0.0,0.0,0.0,0.0,0.0,0.0,0.0,0.0,0.0,0.0,0.0,0.0,0.0,0.0,0.0,0.0,0.0,0.0,0.0,0.0,0.0,0.0,0.0,0.0,0.0,0.0,0.0,0.0,0.0,0.0,0.0,0.0,0.0,0.0,0.0,0.0,0.0,0.0,0.0,0.0,0.0,0.0,0.0,-3.0038,-3.0102,-3.0053,-3.0022,-2.994,-2.994,-2.994,0.0,0.0,0.0,0.0,0.0,0.0,0.0,0.0,0.0,0.0,0.0,0.0,0.0,0.0,0.0,0.0,0.0,0.0,0.0,0.0,0.0,0.0,0.0,0.0,0.0,0.0,0.0,0.0,0.0,0.0,0.0,0.0,0.0,0.0,0.0,0.0,0.0,0.0,0.0,0.0,0.0,0.0,0.0,0.0,0.0,0.0,0.0,0.0,0.0,0.0,0.0,0.0,0.0,0.0,0.0,0.0,0.0,0.0,0.0,0.0,0.0,0.0,0.0,0.0,0.0,0.0,0.0,0.0,0.0,0.0,0.0,0.0,0.0,0.0,0.0,0.0,0.0,0.0,0.0,0.0,0.0,0.0,0.0,0.0,0.0,0.0,0.0,0.0,0.0,0.0,0.0,0.0,0.0,0.0,0.0,0.0,0.0,0.0,0.0,0.0,0.0,0.0,0.0,0.0,0.0,0.0,0.0,0.0,-2.9953,-3.0102,-3.0038,-3.0003,-2.9988,-2.9988,-2.9988,0.0,0.0,0.0,0.0,0.0,0.0,0.0,0.0,0.0,0.0,0.0,0.0,0.0,0.0,0.0,0.0,0.0,0.0,0.0,0.0,0.0,0.0,0.0,0.0,0.0,0.0,0.0,0.0,0.0,0.0,0.0,0.0,0.0,0.0,0.0,0.0,0.0,0.0,0.0,0.0,0.0,0.0,0.0,0.0,0.0,0.0,0.0,0.0,0.0,0.0,0.0,0.0,0.0,0.0,0.0,0.0,0.0,0.0,0.0,0.0,0.0,0.0,0.0,0.0,0.0,0.0,0.0,0.0,0.0,0.0,0.0,0.0,0.0,0.0,0.0,0.0,0.0,0.0,0.0,0.0,0.0,0.0,0.0,0.0,0.0,0.0,0.0,0.0,0.0,0.0,0.0,0.0,0.0,0.0,0.0,0.0,0.0,0.0,0.0,0.0,0.0,0.0,0.0,0.0,0.0,0.0,0.0,0.0,-3.006,-3.0094,-3.0079,-3.0083,-3.0087,-3.0087,-3.0072,0.0,0.0,0.0,0.0,0.0,0.0,0.0,0.0,0.0,0.0,0.0,0.0,0.0,0.0,0.0,0.0,0.0,0.0,0.0,0.0,0.0,0.0,0.0,0.0,0.0,0.0,0.0,0.0,0.0,0.0,0.0,0.0,0.0,0.0,0.0,0.0,0.0,0.0,0.0,0.0,0.0,0.0,0.0,0.0,0.0,0.0,0.0,0.0,-3.4513,0.0,0.0,0.0,0.0,0.0,0.0,0.0,0.0,0.0,0.0,0.0,0.0,0.0,0.0,0.0,0.0,0.0,0.0,0.0,0.0,0.0,0.0,0.0,0.0,0.0,0.0,0.0,0.0,0.0,0.0,0.0,0.0,0.0,0.0,0.0,0.0,0.0,0.0,0.0,0.0,0.0,0.0,0.0,0.0,0.0,0.0,0.0,0.0,0.0,0.0,0.0,0.0,0.0,0.0,0.0,0.0,0.0,0.0,0.0,-3.0094,-3.0094,-3.0094,-3.0094,-3.0098,-3.0113,-3.0098,0.0,0.0,0.0,0.0,0.0,0.0,0.0,0.0,0.0,0.0,0.0,0.0,0.0,0.0,0.0,0.0,0.0,0.0,0.0,0.0,0.0,0.0,0.0,0.0,0.0,0.0,0.0,0.0,0.0,0.0,0.0,0.0,0.0,0.0,0.0,0.0,0.0,0.0,0.0,0.0,0.0,0.0,0.0,0.0,0.0,0.0,0.0,0.0,0.0,0.0,0.0,0.0,0.0,0.0,0.0,0.0,0.0,0.0,0.0,0.0,0.0,0.0,0.0,0.0,0.0,0.0,0.0,0.0,0.0,0.0,0.0,0.0,0.0,0.0,0.0,0.0,0.0,0.0,0.0,0.0,0.0,0.0,0.0,0.0,0.0,0.0,0.0,0.0,0.0,0.0,0.0,0.0,0.0,0.0,0.0,0.0,0.0,0.0,0.0,0.0,0.0,0.0,0.0,0.0,0.0,0.0,0.0,-3.0422,-3.0479,-3.0509,-3.049,-3.0509,-3.049,-3.0553,-3.0557,-3.0498,0.0,0.0,0.0,0.0,0.0,0.0,0.0,0.0,0.0,0.0,0.0,0.0,0.0,0.0,0.0,0.0,0.0,0.0,0.0,0.0,0.0,0.0,0.0,0.0,0.0,0.0,0.0,0.0,0.0,0.0,0.0,0.0,0.0,0.0,0.0,0.0,0.0,0.0,-3.4101,-3.3971,0.0,0.0,0.0,0.0,0.0,0.0,0.0,0.0,-3.2775,0.0,0.0,0.0,0.0,0.0,0.0,0.0,0.0,0.0,0.0,0.0,0.0,0.0,0.0,0.0,0.0,0.0,0.0,0.0,0.0,0.0,0.0,0.0,0.0,0.0,0.0,0.0,0.0,0.0,0.0,0.0,0.0,0.0,0.0,0.0,0.0,0.0,0.0,0.0,0.0,0.0,0.0,0.0,0.0,0.0,0.0,0.0,0.0,0.0,0.0,0.0,0.0,0.0,0.0,0.0,0.0,-3.1192,-3.1913,-3.2271,-3.2271,-3.2271,-3.2271,-3.2271,-3.2271,-3.229,-3.2199,0.0,0.0,0.0,0.0,0.0,0.0,0.0,0.0,0.0,0.0,0.0,0.0,0.0,0.0,0.0,0.0,0.0,0.0,0.0,0.0,0.0,0.0,0.0,0.0,0.0,0.0,0.0,0.0,0.0,0.0,0.0,0.0,0.0,0.0,0.0,0.0,0.0,0.0,0.0,-3.2623,-3.2266,0.0,0.0,0.0,0.0,0.0,0.0,0.0,0.0,-3.2588,0.0,0.0,0.0,0.0,0.0,0.0,0.0,0.0,0.0,0.0,0.0,0.0,0.0,0.0,0.0,0.0,0.0,0.0,0.0,0.0,0.0,0.0,0.0,0.0,0.0,0.0,0.0,0.0,0.0,0.0,0.0,0.0,0.0,0.0,0.0,0.0,0.0,0.0,0.0,0.0,0.0,0.0,0.0,0.0,0.0,0.0,0.0,0.0,0.0,0.0,0.0,0.0,0.0,0.0,0.0,-3.205,-3.2466,-3.2672,-3.2672,-3.2672,-3.2672,-3.2672,-3.2672,-3.2672,0.0,0.0,0.0,0.0,0.0,0.0,0.0,0.0,0.0,0.0,0.0,0.0,0.0,0.0,0.0,0.0,0.0,0.0,0.0,0.0,0.0,0.0,0.0,0.0,0.0,0.0,0.0,0.0,0.0,0.0,0.0,0.0,0.0,0.0,0.0,0.0,0.0,0.0,0.0,0.0,-3.2284,-3.1893,-3.2067,0.0,0.0,0.0,0.0,0.0,0.0,-3.1054,-3.1287,0.0,0.0,0.0,0.0,0.0,0.0,0.0,0.0,0.0,0.0,0.0,0.0,0.0,0.0,0.0,0.0,0.0,0.0,0.0,0.0,0.0,0.0,0.0,0.0,0.0,0.0,0.0,0.0,0.0,0.0,0.0,0.0,0.0,0.0,0.0,0.0,0.0,0.0,0.0,0.0,0.0,0.0,0.0,0.0,0.0,0.0,0.0,0.0,0.0,0.0,0.0,0.0,0.0,0.0,0.0,-3.2855,-3.3077,-3.3188,-3.3188,-3.3188,-3.3203,-3.3188,-3.3207,-3.3207,0.0,0.0,0.0,0.0,0.0,0.0,0.0,0.0,0.0,0.0,0.0,0.0,0.0,0.0,0.0,0.0,0.0,0.0,0.0,0.0,0.0,0.0,0.0,0.0,0.0,0.0,0.0,0.0,0.0,0.0,0.0,0.0,0.0,0.0,0.0,0.0,0.0,0.0,0.0,0.0,0.0,-3.1392,-3.1538,-3.1714,0.0,0.0,0.0,0.0,-2.981,-3.0,0.0,0.0,0.0,0.0,0.0,0.0,0.0,0.0,0.0,0.0,0.0,0.0,0.0,0.0,0.0,0.0,0.0,0.0,0.0,0.0,0.0,0.0,0.0,0.0,0.0,0.0,0.0,0.0,0.0,0.0,0.0,0.0,0.0,0.0,0.0,0.0,0.0,0.0,0.0,0.0,0.0,0.0,0.0,0.0,0.0,0.0,0.0,0.0,0.0,0.0,0.0,0.0,0.0,0.0,0.0,0.0,-3.3701,-3.4492,-3.4904,-3.4923,-3.4904,-3.4904,-3.4923,-3.4904,-3.4904,0.0,0.0,0.0,0.0,0.0,0.0,0.0,0.0,0.0,0.0,0.0,0.0,0.0,0.0,0.0,0.0,0.0,0.0,0.0,0.0,0.0,0.0,0.0,0.0,0.0,0.0,0.0,0.0,0.0,0.0,0.0,0.0,0.0,0.0,0.0,0.0,0.0,0.0,0.0,0.0,0.0,-2.9813,-2.9729,-2.9813,-2.9889,0.0,0.0,-2.999,-2.9874,-2.9972,0.0,0.0,0.0,0.0,0.0,0.0,0.0,0.0,0.0,0.0,0.0,0.0,0.0,0.0,0.0,0.0,0.0,0.0,0.0,0.0,0.0,0.0,0.0,0.0,0.0,0.0,0.0,0.0,0.0,0.0,0.0,0.0,0.0,0.0,0.0,0.0,0.0,0.0,0.0,0.0,0.0,0.0,0.0,0.0,0.0,0.0,0.0,0.0,0.0,0.0,0.0,0.0,0.0,0.0,0.0,-3.4642,-3.4606,-3.5002,-3.519,-3.519,-3.519,-3.519,-3.519,-3.519,-3.519,0.0,0.0,0.0,0.0,0.0,0.0,0.0,0.0,0.0,0.0,0.0,0.0,0.0,0.0,0.0,0.0,0.0,0.0,0.0,0.0,0.0,0.0,0.0,0.0,0.0,0.0,0.0,0.0,0.0,0.0,0.0,0.0,0.0,0.0,0.0,0.0,0.0,0.0,0.0,0.0,0.0,0.0,-2.9407,-2.9493,0.0,0.0,0.0,-2.9823,-2.9681,0.0,0.0,0.0,0.0,0.0,0.0,0.0,0.0,0.0,0.0,0.0,0.0,0.0,0.0,0.0,0.0,0.0,0.0,0.0,0.0,0.0,0.0,0.0,0.0,0.0,0.0,0.0,0.0,0.0,0.0,0.0,0.0,0.0,0.0,0.0,0.0,0.0,0.0,0.0,0.0,0.0,0.0,0.0,0.0,0.0,0.0,0.0,0.0,0.0,0.0,0.0,0.0,0.0,0.0,0.0,0.0,0.0,-3.5193,-3.5174,-3.519,-3.519,-3.519,-3.519,-3.519,-3.519,0.0,0.0,0.0,0.0,0.0,0.0,0.0,0.0,0.0,0.0,0.0,0.0,0.0,0.0,0.0,0.0,0.0,0.0,0.0,0.0,0.0,0.0,0.0,0.0,0.0,0.0,0.0,-2.9907,0.0,0.0,0.0,0.0,0.0,0.0,0.0,0.0,0.0,0.0,0.0,0.0,0.0,0.0,-2.945,-2.9407,-2.9491,-2.9531,0.0,0.0,-2.9789,-2.9608,-2.9841,-3.0057,0.0,0.0,0.0,0.0,0.0,0.0,0.0,0.0,0.0,0.0,0.0,0.0,0.0,0.0,0.0,0.0,0.0,0.0,0.0,0.0,0.0,0.0,0.0,0.0,0.0,0.0,0.0,0.0,0.0,0.0,0.0,0.0,0.0,0.0,0.0,0.0,0.0,0.0,0.0,0.0,0.0,0.0,0.0,0.0,0.0,0.0,0.0,0.0,0.0,0.0,0.0,0.0,0.0,0.0,0.0,-3.5181,-3.5193,-3.519,-3.519,-3.519,-3.519,-3.519,-3.519,-3.519,0.0,0.0,0.0,0.0,0.0,0.0,0.0,0.0,0.0,0.0,0.0,0.0,0.0,0.0,0.0,0.0,0.0,0.0,0.0,0.0,0.0,0.0,0.0,0.0,0.0,0.0,0.0,0.0,0.0,0.0,0.0,0.0,0.0,0.0,0.0,0.0,0.0,0.0,0.0,0.0,0.0,-2.9532,-2.9427,-2.9407,-2.9429,0.0,0.0,-2.9719,-2.9773,-2.9857,-2.9953,-3.0079,0.0,0.0,0.0,0.0,0.0,0.0,0.0,0.0,0.0,0.0,0.0,0.0,0.0,0.0,0.0,0.0,0.0,0.0,0.0,0.0,0.0,0.0,0.0,0.0,0.0,0.0,0.0,0.0,0.0,0.0,0.0,0.0,0.0,0.0,0.0,0.0,0.0,0.0,0.0,0.0,0.0,0.0,0.0,0.0,0.0,0.0,0.0,0.0,0.0,0.0,0.0,0.0,0.0,-3.5193,-3.5181,-3.5176,-3.5193,-3.5179,-3.5193,-3.5193,-3.5196,-3.5193,-3.519,0.0,0.0,0.0,0.0,0.0,0.0,0.0,0.0,0.0,0.0,0.0,0.0,0.0,0.0,0.0,0.0,0.0,0.0,0.0,0.0,0.0,0.0,0.0,0.0,0.0,0.0,0.0,0.0,-2.9907,-2.9841,-2.9701,0.0,0.0,0.0,0.0,0.0,0.0,0.0,0.0,0.0,0.0,-2.9471,-2.9471,-2.9451,0.0,0.0,-2.9701,-2.9773,-2.9771,-2.9857,-2.9921,-2.9969,-3.0034,0.0,0.0,0.0,0.0,0.0,0.0,0.0,0.0,0.0,0.0,0.0,0.0,0.0,0.0,0.0,0.0,0.0,0.0,0.0,0.0,0.0,0.0,0.0,0.0,0.0,0.0,0.0,0.0,0.0,0.0,0.0,0.0,0.0,0.0,0.0,0.0,0.0,0.0,0.0,0.0,0.0,0.0,0.0,0.0,0.0,0.0,0.0,0.0,0.0,0.0,0.0,0.0,-3.5938,-3.5923,-3.5957,-3.5938,-3.5942,-3.5938,-3.5938,-3.5959,-3.5957,-3.5935,0.0,0.0,0.0,0.0,0.0,0.0,0.0,0.0,0.0,0.0,0.0,0.0,0.0,0.0,0.0,0.0,0.0,0.0,0.0,0.0,0.0,0.0,0.0,0.0,0.0,0.0,0.0,0.0,-2.9872,-2.9842,-2.972,0.0,0.0,0.0,0.0,0.0,0.0,0.0,0.0,0.0,0.0,-2.9895,-3.0202,-3.0219,-3.0241,-3.0453,-3.0471,-3.0526,-3.056,-3.0612,-3.0644,-3.0646,0.0,0.0,0.0,0.0,0.0,0.0,0.0,0.0,0.0,0.0,0.0,0.0,0.0,0.0,0.0,0.0,0.0,0.0,0.0,0.0,0.0,0.0,0.0,0.0,0.0,0.0,0.0,0.0,0.0,0.0,-3.0703,0.0,0.0,0.0,0.0,0.0,0.0,0.0,0.0,0.0,0.0,0.0,0.0,0.0,0.0,0.0,0.0,0.0,0.0,0.0,0.0,0.0,0.0,-3.7617,-3.7636,-3.7578,-3.7597,-3.7617,-3.7636,-3.7597,-3.7597,-3.7636,-3.7636,-3.7597,0.0,0.0,0.0,0.0,0.0,0.0,0.0,0.0,0.0,0.0,0.0,0.0,0.0,0.0,0.0,0.0,0.0,0.0,0.0,0.0,0.0,0.0,0.0,0.0,0.0,0.0,-2.9964,-2.9859,-2.9829,0.0,0.0,0.0,0.0,0.0,0.0,0.0,0.0,0.0,0.0,-3.0597,-3.0918,-3.179,-3.1815,-3.1806,-3.2147,-3.2108,-3.209,-3.2257,-3.233,-3.2368,0.0,0.0,0.0,0.0,0.0,0.0,0.0,0.0,0.0,0.0,0.0,0.0,0.0,0.0,0.0,0.0,0.0,0.0,0.0,0.0,0.0,0.0,0.0,0.0,0.0,0.0,0.0,-3.2266,-3.2258,0.0,0.0,0.0,0.0,0.0,0.0,0.0,0.0,0.0,0.0,0.0,-3.4534,-3.5277,0.0,0.0,0.0,0.0,0.0,0.0,0.0,0.0,0.0,0.0,0.0,0.0,-3.7675,-3.7696,-3.7675,-3.7675,-3.7696,-3.7678,-3.7678,-3.7696,-3.766,-3.7623,-3.7566,0.0,0.0,0.0,0.0,0.0,0.0,0.0,0.0,0.0,0.0,0.0,0.0,0.0,0.0,0.0,0.0,0.0,0.0,0.0,0.0,0.0,0.0,0.0,0.0,0.0,-3.1572,0.0,0.0,0.0,0.0,0.0,0.0,0.0,0.0,0.0,0.0,0.0,-3.1098,-3.1377,-3.1414,-3.1555,-3.2004,-3.2023,-3.2066,0.0,0.0,0.0,0.0,0.0,0.0,0.0,0.0,0.0,0.0,0.0,0.0,0.0,0.0,-3.1752,-3.1947,-3.1987,-3.2,-3.2026,0.0,0.0,0.0,0.0,0.0,0.0,0.0,0.0,0.0,0.0,0.0,0.0,0.0,0.0,-3.2995,0.0,-3.2956,0.0,0.0,0.0,0.0,0.0,0.0,0.0,0.0,-3.5162,-3.5599,-3.6209,-3.6692,-3.691,0.0,-3.7445,-3.7597,0.0,0.0,0.0,0.0,0.0,0.0,0.0,0.0,-3.8592,-3.8612,-3.8592,-3.8592,-3.8594,-3.8575,-3.8537,-3.8556,-3.8499,-3.8441,-3.8402,-3.8382,-3.8249,0.0,0.0,0.0,0.0,0.0,0.0,0.0,0.0,0.0,0.0,0.0,0.0,0.0,0.0,0.0,0.0,0.0,0.0,0.0,0.0,0.0,0.0,0.0,-3.2406,0.0,0.0,0.0,0.0,0.0,0.0,0.0,0.0,0.0,-3.1136,-3.1511,-3.1961,-3.2259,-3.234,-3.2502,-3.2972,0.0,0.0,0.0,0.0,0.0,0.0,0.0,-3.3278,-3.3278,-3.3349,-3.3401,-3.3401,-3.3401,-3.3367,-3.3259,0.0,0.0,-3.2783,-3.2718,-3.2732,-3.2776,-3.2423,-3.2077,-3.2077,-3.1715,-3.1375,0.0,0.0,0.0,0.0,0.0,0.0,0.0,0.0,-3.31,-3.3119,0.0,-3.3186,0.0,0.0,0.0,0.0,0.0,-3.6126,0.0,0.0,-3.7273,-3.7674,-3.7655,-3.7712,-3.7731,-3.7731,-3.7789,-3.8228,-3.8954,-3.819,0.0,0.0,0.0,0.0,0.0,0.0,-4.0329,-4.0272,-4.0272,-4.0272,-4.0177,-4.0158,-4.0138,-4.0058,-4.0078,-4.0039,-4.0077,-3.996,-3.9616,-3.8857,-3.8778,0.0,0.0,0.0,0.0,0.0,0.0,0.0,0.0,0.0,0.0,0.0,0.0,0.0,0.0,0.0,0.0,0.0,0.0,0.0,0.0,-3.2482,0.0,0.0,0.0,0.0,0.0,0.0,0.0,0.0,0.0,0.0,-3.2073,-3.2045,-3.2371,-3.3138,0.0,0.0,0.0,0.0,-3.4649,-3.4832,-3.4849,-3.4791,-3.4851,-3.487,-3.487,-3.487,0.0,0.0,-3.4889,-3.4889,-3.4851,-3.4889,-3.4813,-3.4433,-3.2978,-3.2781,-3.2775,-3.2885,-3.2896,-3.2833,-3.2814,-3.2732,-3.2675,-3.5182,0.0,0.0,0.0,0.0,-3.4757,-3.4725,-3.4649,-3.4639,-3.4653,-3.4677,-3.5287,0.0,0.0,0.0,0.0,0.0,0.0,-3.7439,-3.7422,-3.7615,-3.7693,-3.7712,-3.8343,-3.8629,-3.8667,-3.926,-3.968,-3.9909,-3.968,-3.9546,-3.9565,0.0,0.0,0.0,0.0,-4.0329,-4.0329,-4.0329,-4.0272,-4.0291,-4.0195,-4.0077,-3.9973,-4.0057,-4.0057,-3.9954,-3.9951,-3.9838,-3.9591,-3.957,0.0,0.0,0.0,0.0,0.0,0.0,0.0,0.0,0.0,0.0,0.0,0.0,0.0,0.0,0.0,0.0,0.0,0.0,0.0,-3.4188,-3.4188,-3.4188,0.0,0.0,0.0,0.0,0.0,0.0,0.0,0.0,0.0,-3.3821,-3.3824,-3.3939,0.0,0.0,-3.4381,-3.473,-3.4768,-3.4769,-3.4889,-3.4889,0.0,0.0,-3.4908,-3.4908,-3.4908,-3.4908,-3.4908,-3.4908,-3.4908,-3.4908,-3.4908,-3.4908,-3.4737,-3.4357,-3.4243,-3.4242,-3.4277,-3.3889,-3.3535,-3.3497,-3.3138,-3.2814,-3.6728,-3.6324,-3.6305,-3.6324,-3.6373,-3.6387,-3.6396,-3.632,-3.6316,-3.6332,-3.6351,-3.6888,-3.7118,-3.7137,-3.767,0.0,0.0,0.0,-3.8314,-3.8331,-3.8607,-3.8725,-3.8779,-3.926,-3.9527,-3.9546,-4.0043,-4.0329,-4.0329,-4.0616,-4.0769,-4.0769,0.0,0.0,-4.0329,-4.0329,-4.0329,-4.0329,-4.0329,-4.0272,-4.0253,-4.0157,-4.0057,-3.9975,-4.0057,-4.0076,-3.9933,-3.9933,-3.9933,-3.9889,-3.9889,-3.9683,0.0,0.0,0.0,0.0,0.0,0.0,0.0,0.0,0.0,0.0,0.0,-3.4908,-3.4908,0.0,0.0,0.0,-3.4908,-3.4908,-3.4908,-3.4908,0.0,0.0,0.0,0.0,0.0,0.0,0.0,-3.4033,-3.4429,-3.471,-3.4691,-3.471,-3.471,-3.4687,-3.4708,-3.4751,-3.483,0.0,-3.4849,-3.487,-3.4908,-3.4908,-3.4908,-3.5192,-3.5514,-3.5836,-3.5893,-3.5893,-3.5874,-3.5874,-3.578,-3.5495,-3.542,-3.5287,-3.4965,-3.4908,-3.4908,-3.4908,-3.4546,-3.4239,-3.422,-3.3908,-3.3633,-3.7846,-3.7903,-3.7921,-3.7861,-3.7819,-3.7816,-3.7833,-3.7901,-3.7881,-3.7901,-3.7901,-3.7977,-3.8035,-3.8127,-3.8092,0.0,-3.815,-3.8867,-3.9212,-3.9246,-4.0022,-4.0386,-4.0403,-4.0482,-4.0501,-4.0501,-4.0482,-4.0501,-4.0559,-4.1266,-4.1609,-4.159,-4.0864,-4.0501,-4.0501,-4.052,-4.0501,-4.0501,-4.054,-4.0482,-4.0406,-4.0347,-4.0269,-4.0212,-4.0212,-4.0153,-3.9996,-4.0015,-3.9975,-3.9911,-3.9911,-3.9889,-3.9889,0.0,0.0,0.0,0.0,0.0,0.0,0.0,0.0,0.0,0.0,0.0,0.0,0.0,0.0,0.0,-3.4946,0.0,-3.4908,-3.4908,0.0,0.0,0.0,-3.4908,-3.5003,-3.5003,-3.5022,-3.5097,0.0,0.0,-3.5059,-3.5078,-3.5059,-3.4977,-3.4982,-3.5022,-3.5097,-3.5154,-3.5097,-3.5211,-3.5135,-3.5116,-3.5287,-3.5817,-3.65,-3.7106,-3.739,-3.7296,-3.7277,-3.7296,-3.7049,-3.6405,-3.6291,-3.6083,-3.5249,-3.523,-3.5097,-3.5173,-3.4984,-3.4889,-3.4851,-3.4813,-3.4756,-3.9067,-3.9658,-3.9677,-3.895,-3.7819,-3.7846,-3.7894,-3.7909,-3.7963,-3.7959,-3.8016,-3.8685,-3.9319,-3.9877,-3.9877,-3.9877,-3.988,-4.0079,-4.0145,-4.013,-4.0919,-4.1284,-4.1321,-4.1915,-4.2202,-4.2221,-4.2202,-4.2221,-4.2202,-4.2393,-4.2488,-4.2488,-4.2297,-4.2202,-4.2202,-4.2202,-4.2202,-4.2202,-4.2221,-4.2182,-4.2104,-4.2162,-4.1798,-4.1106,-4.109,-4.0765,-4.0115,-4.0036,-3.9996,-3.9975,-3.9914,-3.9889,-3.9889,-3.9889,0.0,0.0,0.0,0.0,0.0,0.0,0.0,0.0,0.0,-3.6803,-3.6803,0.0,-3.6538,0.0,-3.5287,-3.4908,-3.4908,-3.4908,0.0,0.0,-3.4908,-3.5154,-3.5799,-3.5874,-3.6121,-3.6746,-3.6803,-3.6723,-3.6531,-3.6682,-3.6721,-3.6509,-3.6132,-3.6102,-3.667,-3.6803,-3.6784,-3.6765,-3.6727,-3.6803,-3.6784,-3.6955,-3.7182,-3.7353,-3.7409,-3.739,-3.739,-3.739,-3.7315,-3.7144,-3.7106,-3.7011,-3.6803,-3.6803,-3.6784,-3.6708,-3.5799,-3.4908,-3.4908,-3.4927,-3.4927,-4.0978,-4.1453,-4.149,-4.0971,-4.0051,-3.9372,-3.9058,-3.9054,-3.9104,-3.9104,-3.9142,-3.9623,-4.0296,-4.1066,-4.1066,-4.1277,-4.1643,-4.1629,-4.1596,-4.1618,-4.2007,-4.2144,-4.2049,-4.2427,-4.2574,-4.2449,-4.2531,-4.2593,-4.2593,-4.3058,-4.3329,-4.3348,-4.3711,-4.3902,-4.3883,-4.3176,-4.2794,-4.2794,-4.2654,-4.2509,-4.2332,-4.2375,-4.2124,-4.1558,-4.1586,-4.1354,-4.0825,-4.0564,-4.0609,-4.0931,-4.0309,-4.0144,-4.0504,-4.0119,-3.9889,0.0,0.0,0.0,0.0,0.0,0.0,0.0,0.0,0.0,0.0,0.0,-3.722,-3.6765,-3.6291,-3.6007,-3.6007,-3.6007,-3.5967,-3.5866,-3.5947,-3.6176,-3.6526,-3.6666,-3.6898,-3.7334,-3.739,-3.7349,-3.7203,-3.7289,-3.7501,-3.7731,-3.7497,-3.7315,-3.7353,-3.739,-3.739,-3.739,-3.739,-3.7561,-3.7883,-3.7959,-3.8111,-3.8433,-3.8527,-3.8509,-3.8527,-3.8527,-3.8395,-3.8073,-3.7959,-3.7826,-3.7504,-3.739,-3.739,-3.7277,-3.667,-3.6083,-3.6007,-3.6026,-3.6007,-4.2833,-4.2907,-4.2979,-4.2996,-4.2881,-4.1459,-4.0841,-4.0816,-4.0835,-4.0816,-4.0816,-4.0816,-4.1239,-4.197,-4.197,-4.2374,-4.3085,-4.3032,-4.3015,-4.3035,-4.3022,-4.2948,-4.2768,-4.2737,-4.264,-4.2448,-4.2593,-4.2705,-4.2705,-4.3643,-4.4088,-4.4126,-4.4851,-4.5173,-4.5115,-4.3743,-4.3039,-4.3119,-4.2854,-4.2569,-4.234,-4.234,-4.2232,-4.201,-4.21,-4.2055,-4.1836,-4.1442,-4.1524,-4.2095,-4.0893,-4.0447,-4.1168,-4.0363,-3.9867,0.0,-3.9889,0.0,0.0,0.0,0.0,0.0,0.0,0.0,0.0,-3.7633,-3.7561,-3.7561,-3.7447,-3.739,-3.739,-3.739,-3.7308,-3.7073,-3.7265,-3.7345,-3.7243,-3.7435,-3.7599,-3.7671,-3.7692,-3.7692,-3.7583,-3.7629,-3.7974,-3.8486,-3.8622,-3.838,-3.7818,-3.7766,-3.7845,-3.7713,-3.7713,-3.8148,-3.8679,-3.885,-3.9058,-3.9681,-3.9757,-3.9889,-3.9794,-3.9794,-3.9665,-3.902,-3.885,-3.8603,-3.7826,-3.775,-3.7769,-3.7826,-3.779,-3.7638,-3.7334,-3.7239,-3.739,-4.2907,-4.2979,-4.3015,-4.3032,-4.303,-4.2742,-4.2604,-4.2604,-4.2604,-4.2604,-4.2604,-4.2604,-4.272,-4.2854,-4.2854,-4.2931,-4.3085,-4.3104,-4.2963,-4.2717,-4.3384,-4.3687,-4.3685,-4.4239,-4.4592,-4.4744,-4.4741,-4.4717,-4.4737,-4.4676,-4.4645,-4.4664,-4.4594,-4.4565,-4.4546,0.0,0.0,0.0,-4.4758,-4.4715,-4.4652,-4.4652,-4.4309,-4.3602,-4.3583,0.0,-4.261,-4.246,-4.2316,-4.2162,-4.1312,0.0,0.0,0.0,0.0,0.0,0.0,0.0,0.0,0.0,0.0,0.0,-3.9532,-3.9416,-3.9413,-3.885,-3.8433,-3.8454,-3.7807,-3.739,-3.739,-3.739,-3.737,-3.7349,-3.7389,-3.7635,-3.8277,-3.8412,-3.8596,-3.9053,-3.9286,-3.9114,-3.8479,-3.8768,-3.8933,-3.8674,-3.8785,-3.8864,-3.8686,-3.9039,-3.9359,-3.9437,-3.9261,-3.9416,-3.9665,-3.9624,-3.9624,-3.987,-3.9889,-3.9889,-3.9889,-3.9889,-3.9889,-3.9627,-3.9683,-3.9627,-3.9418,-3.9416,-3.9342,-3.9418,-3.9442,-3.9083,-3.7714,-3.739,-3.739,-4.4227,0.0,-4.4299,-4.4227,0.0,-4.4135,-4.4059,-4.3902,-4.3326,-4.3035,-4.2908,-4.3052,-4.3265,-4.3502,-4.3502,-4.3751,-4.4135,-4.4,-4.3939,-4.3899,-4.4338,-4.4548,-4.4548,-4.4702,-4.4795,-4.48,-4.4695,-4.4681,-4.4655,-4.4617,-4.4599,-4.458,-4.4465,-4.4402,-4.4402,-4.4402,-4.4565,-4.4838,-4.4838,-4.4838,-4.4862,-4.4838,-4.463,-4.4183,0.0,0.0,0.0,0.0,0.0,0.0,0.0,0.0,0.0,0.0,0.0,-4.0128,-3.9776,-3.9526,-3.9464,-3.9445,-3.9467,-3.9448,-3.9453,-3.958,-3.987,-3.9532,-3.9286,-3.9286,-3.8888,-3.8622,-3.8641,-3.8496,-3.8384,-3.823,-3.8206,-3.8327,-3.8646,-3.8839,-3.9094,-3.9339,-3.9477,-3.9357,-3.897,-3.9073,-3.9154,-3.8923,-3.9008,-3.9119,-3.9136,-3.9313,-3.9464,-3.9445,-3.9464,-3.9532,-3.967,-3.9693,-3.9758,-3.9848,-3.9889,-3.9889,-3.9889,-3.9889,-3.9889,-3.9889,-3.9889,-3.9911,-3.9933,-3.9933,-3.9911,-3.9975,-3.9996,-3.9787,-3.8876,-3.8703,-3.8683,-4.555,-4.5586,-4.5586,-4.5476,-4.5263,-4.5263,-4.5159,-4.4867,0.0,0.0,0.0,-4.3292,-4.3637,-4.405,-4.4111,-4.4532,-4.5182,-4.503,-4.503,-4.5201,-4.5201,-4.5161,-4.5096,-4.4776,-4.4474,-4.4231,-4.4121,-4.4079,-4.406,-4.425,-4.4318,-4.4318,-4.4289,-4.426,-4.4242,-4.4242,-4.427,-4.4318,-4.4374,-4.4402,-4.4402,-4.4402,-4.4355,-4.4318,-4.4374,-4.4402,-4.4383,-4.3957,-4.407,-4.4743,-4.3264,-4.2724,-4.3391,-4.1781,-4.0817,-4.0753,-4.0173,-3.9679,-3.944,-3.9421,-3.9345,-3.9222,-3.9133,-3.9294,-3.9724,-3.9743,-3.9781,-3.9826,-3.9781,-3.9762,-3.9826,-3.9647,-3.9408,-3.9117,-3.9144,-3.9099,-3.8943,-3.9154,-3.9357,-3.9324,-3.9298,-3.9237,-3.911,-3.9036,-3.8971,-3.9008,-3.8998,-3.9055,-3.9119,-3.91,-3.9154,-3.9136,-3.9163,-3.9189,-3.9383,-3.9477,-3.9551,-3.9735,-3.9758,-3.9781,-3.9781,-3.9826,-3.9867,-3.9848,-3.9889,-3.9954,-3.9996,-3.9975,-3.9994,-4.0077,-4.0077,-4.0057,-4.0077,-4.0038,-3.9941,-4.5605,-4.5586,-4.5586,-4.5586,-4.555,-4.555,-4.5513,-4.5419,-4.4827,-4.4531,-4.4507,-4.4531,-4.4588,-4.4659,-4.4906,-4.5086,-4.5222,-4.54,-4.5381,0.0,-4.5201,-4.5052,-4.4776,-4.4669,-4.4546,-4.4465,-4.4374,-4.4346,-4.4318,-4.4132,-4.4048,-4.4017,-4.3763,-4.3631,-4.3631,-4.3631,-4.3763,-4.4048,-4.4279,-4.4402,-4.4402,-4.4402,-4.4402,-4.4402,-4.4402,-4.4511,-4.4726,-4.4433,-4.4459,-4.4738,-4.3686,-4.3182,-4.3447,-4.2573,-4.2134,-4.2272,-4.2177,-4.1797,-4.1114,-4.1076,-4.0745,-4.0016,-3.9733,-3.947,-3.9164,-3.9104,-3.9242,-3.9508,-3.9338,-3.9242,-3.9508,-3.9551,-3.9508,-3.9508,-3.9739,-3.9807,-3.9513,-3.9717,-3.9693,-3.9324,-3.9502,-3.9383,-3.8933,-3.8884,-3.8815,-3.8603,-3.8634,-3.8572,-3.8646,-3.8952,-3.9227,-3.9272,-3.9272,-3.9279,-3.9305,-3.9324,-3.9383,-3.9376,-3.9452,-3.9502,-3.9502,-3.9647,-3.9781,-3.9739,-3.9892,-4.0036,-4.0077,-4.0096,-4.0096,-4.0117,-4.0137,-4.0157,-4.0117,-4.0137,-4.0157,-4.6951,-4.6971,-4.6951,-4.6877,-4.6722,-4.6447,-4.6215,-4.6063,-4.5811,-4.5367,-4.4838,-4.4962,-4.4919,-4.4843,-4.5074,-4.5201,-4.5201,-4.5011,-4.5033,-4.518,-4.4915,-4.4843,-4.4872,-4.4565,-4.4327,-4.4223,-4.4023,-4.3899,-4.3918,-4.3795,-4.3749,-4.3716,-4.3582,-4.3479,-4.3479,-4.3479,-4.36,-4.3749,-4.403,-4.425,-4.4402,-4.4402,-4.4402,-4.4402,-4.4402,-4.4438,-4.4572,-4.4484,-4.4438,-4.4591,-4.3962,-4.3679,-4.3727,-4.2866,-4.2313,-4.2352,-4.1969,-4.1549,-4.1129,-4.1057,-4.0884,-4.0502,-3.9946,-3.9555,-3.9332,-3.9346,-3.9371,-3.9401,-3.9364,-3.9389,-3.9383,-3.9272,-3.9219,-3.9237,-3.9208,-3.9154,-3.9054,-3.9154,-3.9154,-3.9017,-3.9008,-3.8933,-3.8658,-3.8634,-3.8603,-3.8478,-3.8496,-3.8546,-3.8564,-3.8792,-3.895,-3.8855,-3.8923,-3.91,-3.9272,-3.9452,-3.9575,-3.9712,-3.9735,-3.9717,-3.9735,-3.9867,-3.9867,-3.9739,-3.9933,-4.0036,-3.9994,-4.0036,-4.0117,-4.0215,-4.0196,-4.0196,-4.0215,-4.0234,-4.0196,-4.8105,-4.8105,-4.803,-4.7851,-4.7571,-4.7189,-4.6869,-4.6682,-4.6619,-4.6117,-4.5337,-4.5442,-4.5369,-4.5217,-4.5466,-4.5578,-4.5532,-4.5217,-4.5294,-4.5601,-4.5262,-4.5191,-4.5374,-4.4946,-4.4624,-4.4438,-4.4165,-4.403,-4.4048,-4.403,-4.403,-4.403,-4.4048,-4.3938,-4.3773,-4.3754,-4.3681,-4.355,-4.3749,-4.3968,-4.4202,-4.4184,-4.4184,-4.4202,-4.4202,-4.4231,-4.4289,-4.4231,-4.4242,-4.4355,-4.4151,-4.4036,-4.4042,-4.3267,-4.2756,-4.2636,-4.212,-4.1627,-4.1342,-4.1137,-4.1055,-4.1049,-4.0411,-4.0015,-4.0044,-4.0066,-3.9833,-3.9346,-3.9287,-3.9331,-3.9219,-3.9027,-3.8921,-3.8902,-3.8748,-3.8718,-3.8646,-3.8707,-3.8737,-3.8792,-3.8695,-3.8676,-3.8615,-3.8541,-3.8496,-3.8559,-3.8786,-3.8964,-3.8982,-3.9093,-3.9158,-3.9035,-3.8921,-3.8873,-3.9156,-3.9298,-3.9577,-3.9947,-4.0083,-4.0212,-4.0352,-4.0517,-4.0564,-4.0488,-4.0393,-4.0439,-4.026,-4.0131,-4.0214,-4.0253,-4.0253,-4.0253,-4.0272,-4.0291,-4.0253,-4.8125,-4.8049,-4.7907,-4.7567,-4.7397,-4.7318,-4.7284,-4.7211,-4.6995,-4.6832,-4.6692,-4.6489,-4.6376,-4.6382,-4.6588,-4.6695,-4.6742,-4.6936,-4.7004,-4.7055,-4.7061,-4.6854,-4.6405,-4.634,-4.616,-4.5733,-4.5626,-4.5535,-4.5535,-4.5571,-4.5645,-4.5681,-4.5663,-4.5278,-4.469,-4.4599,-4.4232,-4.3516,-4.3513,-4.3548,-4.3563,-4.3582,-4.3582,-4.3582,-4.3563,-4.373,-4.4017,-4.373,-4.3823,-4.4299,-4.4121,-4.4091,-4.4318,-4.4224,-4.4186,-4.4158,-4.4064,-4.3755,-4.2932,-4.221,-4.1817,-4.1769,-4.151,-4.1274,-4.1268,-4.1292,-4.0632,-3.9412,-3.875,-3.8835,-3.8873,-3.8987,-3.9042,-3.9127,-3.9268,-3.9305,-3.9166,-3.9272,-3.9305,-3.9092,-3.9174,-3.9064,-3.9116,-3.8994,-3.8786,-3.8933,-3.9428,-3.979,-3.9827,-4.0249,-4.0634,-4.0474,-3.9717,-3.8921,-3.8988,-3.8817,-3.9404,-3.9922,-4.015,-4.0578,-4.1132,-4.1669,-4.2109,-4.1552,-4.162,-4.1341,-4.1149,-4.0826,-4.0406,-4.0635,-4.0578,-4.0368,-4.0348,-4.0387,-4.0349,-4.9346,-4.9305,-4.9058,-4.8799,-4.856,-4.8531,-4.8423,-4.8209,-4.8151,-4.8068,-4.8087,-4.7973,-4.7467,-4.6794,-4.7015,-4.7127,-4.7127,-4.7071,-4.7154,-4.7254,-4.6909,-4.6651,-4.6589,-4.6368,-4.6133,-4.5938,-4.5902,-4.5902,-4.5902,-4.5902,-4.5902,-4.5902,-4.5902,-4.5736,-4.5424,-4.5406,-4.5021,-4.425,-4.4213,-4.3993,-4.3534,-4.3479,-4.3479,-4.3479,-4.3479,-4.3548,-4.3682,-4.3548,-4.3615,-4.3823,-4.3763,-4.3763,-4.3855,-4.3855,-4.3855,-4.3855,-4.3855,-4.3706,-4.3341,-4.3008,-4.2841,-4.2841,-4.229,-4.1977,-4.1941,-4.1558,-4.0922,-4.0394,-4.024,-4.0253,-4.0209,-4.0209,-4.0204,-4.0222,-4.0374,-4.0385,-4.032,-4.0355,-4.0374,-4.0302,-4.0271,-4.0253,-4.0271,-4.0184,-4.0139,-4.0139,-4.0451,-4.0598,-4.0653,-4.0928,-4.1075,-4.1038,-4.0487,-4.0289,-4.0265,-4.0502,-4.0709,-4.096,-4.1185,-4.1474,-4.1715,-4.2052,-4.2271,-4.2208,-4.2221,-4.2179,-4.2036,-4.2008,-4.1781,-4.1705,-4.1705,-4.1648,-4.1113,-4.0998,-4.0845,-5.0159,-5.0043,-4.9803,-4.951,-4.9289,-4.9257,-4.9108,-4.889,-4.889,-4.889,-4.889,-4.889,-4.8375,-4.7554,-4.7663,-4.7749,-4.774,-4.7534,-4.7545,-4.7663,-4.722,-4.7055,-4.7136,-4.6868,-4.6691,-4.6562,-4.6599,-4.6581,-4.6562,-4.6562,-4.6562,-4.6562,-4.6562,-4.6452,-4.625,-4.6232,-4.5828,-4.5094,-4.5039,-4.4635,-4.3956,-4.3809,-4.3718,-4.3516,-4.3479,-4.3479,-4.3479,-4.3479,-4.3479,-4.3479,-4.3479,-4.3479,-4.3479,-4.3479,-4.3497,-4.3513,-4.3532,-4.3548,-4.3584,-4.3584,-4.3584,-4.355,-4.2999,-4.272,-4.2598,-4.2173,-4.1875,-4.1871,-4.2026,-4.1915,-4.1195,-4.1176,-4.1176,-4.1176,-4.1144,-4.1144,-4.1089,-4.1111,-4.1056,-4.1097,-4.0965,-4.1097,-4.1111,-4.1056,-4.1001,-4.102,-4.1258,-4.1442,-4.1497,-4.1644,-4.1827,-4.1754,-4.1772,-4.1599,-4.1502,-4.1315,-4.1698,-4.2034,-4.1996,-4.2212,-4.2471,-4.28,-4.3061,-4.3493,-4.3219,-4.2978,-4.29,-4.2983,-4.2832,-4.2793,-4.2735,-4.2524,-4.1814,-4.172,-4.1491,-5.0043,-4.9803,-4.9529,-4.9239,-4.8943,-4.8925,-4.8925,-4.889,-4.889,-4.889,-4.889,-4.889,-4.8853,-4.872,-4.8714,-4.881,-4.881,-4.8736,-4.8699,-4.8699,-4.8635,-4.8584,-4.8531,-4.8421,-4.8272,-4.7994,-4.7976,-4.8031,-4.8086,-4.8141,-4.8196,-4.8159,-4.8067,-4.7774,-4.7168,-4.7058,-4.6673,-4.5938,-4.5847,-4.5461,-4.4727,-4.4635,-4.4232,-4.3644,-4.3497,-4.3479,-4.3479,-4.3479,-4.3479,-4.3479,-4.3479,-4.3479,-4.3479,-4.3479,-4.3532,-4.36,-4.3582,-4.3667,-4.3771,-4.3771,-4.376,-4.3784,-4.3667,-4.3679,-4.3586,-4.3494,-4.3439,-4.3605,-4.349,-4.2904,-4.1678,-4.1599,-4.1575,-4.1538,-4.1364,-4.1351,-4.1296,-4.1434,-4.1148,-4.124,-4.1332,-4.1405,-4.1258,-4.1097,-4.1295,-4.1442,-4.1827,-4.2249,-4.2323,-4.2837,-4.313,-4.3185,-4.3112,-4.2855,-4.1566,-4.1622,-4.183,-4.2134,-4.2681,-4.2925,-4.3736,-4.4371,-4.4531,-4.4531,-4.3952,-4.3662,-4.3702,-4.3538,-4.3214,-4.3059,-4.2974,-4.268,-4.2487,-4.2344,-4.2098,-4.951,-4.9201,-4.9108,-4.8993,-4.889,-4.889,-4.889,-4.889,-4.889,-4.889,-4.889,-4.889,-4.889,-4.889,-4.889,-4.889,-4.889,-4.889,-4.8874,-4.8804,-4.8732,-4.8624,-4.8513,-4.8457,-4.8344,-4.8324,-4.8324,-4.8324,-4.8324,-4.8324,-4.8324,-4.8324,-4.8324,-4.8141,-4.7921,-4.7884,-4.748,-4.6764,-4.6673,-4.6287,-4.5498,-4.4984,-4.4544,-4.4268,-4.3754,-4.3479,-4.3479,-4.3479,-4.3479,-4.3479,-4.3479,-4.3479,-4.3479,-4.3548,-4.3634,-4.3719,-4.3719,-4.3753,-4.3804,-4.3804,-4.3789,-4.3793,-4.3808,-4.3781,-4.3791,-4.3795,-4.3804,-4.3804,-4.3869,-4.3481,-4.3153,-4.295,-4.2936,-4.2936,-4.2867,-4.2779,-4.2853,-4.282,-4.2838,-4.2838,-4.2754,-4.2669,-4.2577,-4.2616,-4.2635,-4.2653,-4.2892,-4.3002,-4.3075,-4.3351,-4.3479,-4.3479,-4.3479,-4.3314,-4.2873,-4.2653,-4.2797,-4.2944,-4.3225,-4.3273,-4.3799,-4.4053,-4.4177,-4.4353,-4.4041,-4.4121,-4.4123,-4.4369,-4.3971,-4.4069,-4.3923,-4.343,-4.3251,-4.3104,-4.2801,-4.9127,-4.889,-4.889,-4.889,-4.889,-4.889,-4.889,-4.889,-4.889,-4.889,-4.889,-4.889,-4.889,-4.889,-4.889,-4.889,-4.889,-4.889,-4.8874,-4.8822,-4.8678,-4.8587,-4.8513,-4.8382,-4.8324,-4.8324,-4.8324,-4.8324,-4.8324,-4.8324,-4.8324,-4.8324,-4.8324,-4.8324,-4.8324,-4.8324,-4.8012,-4.7572,-4.7461,-4.7113,-4.6287,-4.5498,-4.4947,-4.4635,-4.3901,-4.3479,-4.3479,-4.3479,-4.3513,-4.3513,-4.3532,-4.3566,-4.3618,-4.3634,-4.3719,-4.3837,-4.3818,-4.3869,-4.3851,-4.3883,-4.3865,-4.3851,-4.3883,-4.386,-4.3881,-4.386,-4.3883,-4.3883,-4.3915,-4.3929,-4.3929,-4.3878,-4.3883,-4.3851,-4.3851,-4.3837,-4.3818,-4.3786,-4.3767,-4.3679,-4.3609,-4.3597,-4.3618,-4.3529,-4.3511,-4.3513,-4.3532,-4.3479,-4.3479,-4.3479,-4.3479,-4.3479,-4.3479,-4.3479,-4.3259,-4.3149,-4.3149,-4.333,-4.3367,-4.3477,-4.3582,-4.3781,-4.3923,-4.406,-4.4221,-4.4402,-4.4643,-4.4953,-4.5087,-4.5151,-4.4836,-4.426,-4.4051,-4.3838,-4.3504,-4.8909,-4.889,-4.889,-4.889,-4.889,-4.889,-4.889,-4.889,-4.889,-4.889,-4.889,-4.889,-4.889,-4.889,-4.889,-4.889,-4.889,-4.889,-4.8909,-4.8874,-4.8678,-4.8587,-4.855,-4.8382,-4.8324,-4.8324,-4.8324,-4.8324,-4.8324,-4.8324,-4.8324,-4.8324,-4.8324,-4.8324,-4.8324,-4.8306,-4.8306,-4.8214,-4.8177,-4.7865,-4.7131,-4.6324,-4.5553,-4.4819,-4.4011,-4.3552,-4.3497,-4.3479,-4.3513,-4.36,-4.3582,-4.3667,-4.3753,-4.3804,-4.3818,-4.3883,-4.3897,-4.3929,-4.3992,-4.3974,-4.3974,-4.3992,-4.3986,-4.3974,-4.3986,-4.3974,-4.3974,-4.3992,-4.3974,-4.4005,-4.4005,-4.3992,-4.3974,-4.4005,-4.3929,-4.3915,-4.3883,-4.3851,-4.3804,-4.3822,-4.3804,-4.3804,-4.3771,-4.3686,-4.3634,-4.3582,-4.3548,-4.3513,-4.3513,-4.3513,-4.3479,-4.3479,-4.3479,-4.3479,-4.3479,-4.3479,-4.3461,-4.3461,-4.3495,-4.3532,-4.3615,-4.3781,-4.3795,-4.3936,-4.403,-4.4221,-4.4346,-4.4617,-4.4819,-4.4887,-4.48,-4.4776,-4.4436,-4.4154,-4.4093,-4.889,-4.889,-4.889,-4.889,-4.889,-4.889,-4.889,-4.889,-4.889,-4.889,-4.889,-4.889,-4.889,-4.889,-4.889,-4.889,-4.889,-4.889,-4.8874,-4.8804,-4.8678,-4.8569,-4.8513,-4.8382,-4.8324,-4.8324,-4.8324,-4.8324,-4.8324,-4.8324,-4.8324,-4.8324,-4.8324,-4.8324,-4.8324,-4.8324,-4.8324,-4.8324,-4.8324,-4.8159,-4.7884,-4.715,-4.6342,-4.5553,-4.4745,-4.412,-4.3603,-4.3548,-4.3582,-4.3634,-4.3667,-4.3786,-4.3851,-4.3883,-4.3915,-4.3961,-4.3974,-4.3974,-4.4005,-4.4005,-4.4005,-4.4005,-4.4005,-4.4005,-4.4005,-4.4005,-4.4005,-4.4005,-4.4005,-4.4005,-4.4005,-4.4005,-4.4005,-4.4005,-4.3992,-4.3961,-4.3942,-4.3961,-4.3929,-4.3883,-4.3883,-4.3869,-4.3804,-4.3753,-4.3753,-4.3701,-4.3652,-4.3566,-4.3566,-4.3513,-4.3479,-4.3479,-4.3479,-4.3479,-4.3479,-4.3479,-4.3479,-4.3479,-4.3479,-4.3513,-4.3615,-4.3682,-4.3697,-4.3744,-4.3892,-4.3968,-4.4132,-4.4318,-4.4519,-4.4701,-4.4751,-4.465,-4.4465,-4.4346,-4.425,-4.889,-4.889,-4.889,-4.889,-4.889,-4.889,-4.889,-4.889,-4.889,-4.889,-4.889,-4.889,-4.889,-4.889,-4.889,-4.889,-4.889,-4.889,-4.8874,-4.8822,-4.8732,-4.8605,-4.8513,-4.8344,-4.8324,-4.8324,-4.8324,-4.8324,-4.8324,-4.8324,-4.8324,-4.8324,-4.8324,-4.8324,-4.8324,-4.8324,-4.8324,-4.8324,-4.8324,-4.8324,-4.8159,-4.7573,-4.6783,-4.6011,-4.522,-4.4481,-4.3741,-4.3701,-4.3716,-4.3734,-4.38,-4.3897,-4.3929,-4.3929,-4.3961,-4.3974,-4.4005,-4.4005,-4.4005,-4.4005,-4.4005,-4.4005,-4.4005,-4.4005,-4.4005,-4.4005,-4.4005,-4.4005,-4.4005,-4.4005,-4.4005,-4.4005,-4.4005,-4.4005,-4.4005,-4.4005,-4.4005,-4.4005,-4.3974,-4.3961,-4.3929,-4.3947,-4.3883,-4.3851,-4.3837,-4.3818,-4.3701,-4.36,-4.36,-4.3566,-4.3532,-4.3479,-4.3479,-4.3479,-4.3479,-4.3479,-4.3479,-4.3479,-4.3479,-4.3479,-4.3548,-4.3548,-4.3563,-4.3597,-4.3664,-4.3697,-4.3841,-4.4072,-4.4308,-4.4465,-4.4676,-4.4624,-4.4511,-4.443,-4.4318,-4.889,-4.889,-4.889,-4.889,-4.889,-4.889,-4.889,-4.889,-4.889,-4.889,-4.889,-4.889,-4.889,-4.889,-4.889,-4.889,-4.889,-4.889,-4.889,-4.8874,-4.8804,-4.8732,-4.8569,-4.8382,-4.8324,-4.8324,-4.8324,-4.8324,-4.8324,-4.8324,-4.8324,-4.8324,-4.8324,-4.8324,-4.8324,-4.8324,-4.8324,-4.8324,-4.8324,-4.8324,-4.8269,-4.7776,-4.6966,-4.6156,-4.5471,-4.4727,-4.3933,-4.3832,-4.3897,-4.3915,-4.3961,-4.3974,-4.4005,-4.4005,-4.4005,-4.4005,-4.4005,-4.4005,-4.4005,-4.4005,-4.4005,-4.4005,-4.4005,-4.4005,-4.4005,-4.4005,-4.4005,-4.4005,-4.4005,-4.4005,-4.4005,-4.4005,-4.4005,-4.4005,-4.4005,-4.4005,-4.4005,-4.4005,-4.4005,-4.4005,-4.4005,-4.4005,-4.3974,-4.3929,-4.3897,-4.3865,-4.3749,-4.3701,-4.3634,-4.36,-4.3532,-4.3497,-4.3479,-4.3479,-4.3479,-4.3479,-4.3479,-4.3479,-4.3479,-4.3479,-4.3479,-4.3479,-4.3479,-4.3513,-4.3513,-4.3513,-4.3582,-4.3809,-4.4091,-4.4308,-4.443,-4.4565,-4.4538,-4.4402,-4.4202,-4.889,-4.889,-4.889,-4.889,-4.889,-4.889,-4.889,-4.889,-4.889,-4.889,-4.889,-4.889,-4.889,-4.889,-4.889,-4.889,-4.889,-4.889,-4.889,-4.889,-4.8874,-4.8732,-4.855,-4.8401,-4.8324,-4.8324,-4.8324,-4.8324,-4.8324,-4.8324,-4.8324,-4.8324,-4.8324,-4.8324,-4.8324,-4.8324,-4.8324,-4.8324,-4.8324,-4.8306,-4.8288,-4.8236,-4.75,-4.6229,-4.593,-4.5149,-4.4068,-4.3929,-4.3992,-4.3974,-4.4023,-4.4005,-4.4005,-4.4005,-4.4005,-4.4005,-4.4005,-4.4005,-4.4005,-4.4005,-4.4005,-4.4005,-4.4005,-4.4005,-4.4005,-4.4005,-4.4005,-4.4005,-4.4005,-4.4005,-4.4005,-4.4005,-4.4005,-4.4005,-4.4005,-4.4005,-4.4005,-4.4005,-4.4005,-4.4005,-4.4005,-4.4005,-4.4005,-4.3974,-4.3974,-4.3961,-4.3897,-4.3767,-4.3701,-4.3615,-4.3548,-4.3513,-4.3479,-4.3479,-4.3479,-4.3479,-4.3479,-4.3479,-4.3479,-4.3479,-4.3479,-4.3479,-4.3479,-4.3479,-4.3513,-4.3513,-4.3513,-4.3597,-4.3841,-4.4091,-4.4162,-4.4279,-4.4318,-4.4279,-4.4011,-4.889,-4.889,-4.889,-4.889,-4.889,-4.889,-4.889,-4.889,-4.889,-4.889,-4.889,-4.889,-4.889,-4.889,-4.889,-4.889,-4.889,-4.889,-4.889,-4.8909,-4.8892,-4.8751,-4.855,-4.8438,-4.8363,-4.8324,-4.8324,-4.8324,-4.8324,-4.8324,-4.8324,-4.8324,-4.8324,-4.8324,-4.8324,-4.8324,-4.8324,-4.8324,-4.8363,-4.8363,-4.8401,-4.8182,-4.7443,-4.6352,-4.5978,-4.5175,-4.4146,-4.3974,-4.3974,-4.3992,-4.3992,-4.4005,-4.4005,-4.4005,-4.4005,-4.4005,-4.4005,-4.4005,-4.4005,-4.4005,-4.4005,-4.4005,-4.4005,-4.4005,-4.4005,-4.4005,-4.4005,-4.4005,-4.4005,-4.4005,-4.4005,-4.4005,-4.4005,-4.4005,-4.4005,-4.4005,-4.4005,-4.4005,-4.4005,-4.4005,-4.4005,-4.4005,-4.4005,-4.4005,-4.4005,-4.3992,-4.3929,-4.3883,-4.3786,-4.3667,-4.3563,-4.3513,-4.3479,-4.3479,-4.3479,-4.3479,-4.3479,-4.3479,-4.3479,-4.3479,-4.3479,-4.3479,-4.3479,-4.3479,-4.3479,-4.3479,-4.3479,-4.3479,-4.3597,-4.3795,-4.3892,-4.4017,-4.4121,-4.4102,-4.386,-4.889,-4.889,-4.889,-4.889,-4.889,-4.889,-4.889,-4.889,-4.889,-4.889,-4.889,-4.889,-4.889,-4.889,-4.889,-4.889,-4.889,-4.889,-4.889,-4.8874,-4.8839,-4.8732,-4.8642,-4.8532,-4.8457,-4.8363,-4.8324,-4.8324,-4.8324,-4.8324,-4.8306,-4.8306,-4.8324,-4.8306,-4.8324,-4.8324,-4.8306,-4.8363,-4.8419,-4.8365,-4.82,-4.7866,-4.7159,-4.6104,-4.5389,-4.4827,-4.4209,-4.4005,-4.3974,-4.3929,-4.3974,-4.4005,-4.4005,-4.4005,-4.4005,-4.4005,-4.4005,-4.4005,-4.4005,-4.4005,-4.4005,-4.4005,-4.4005,-4.4005,-4.4005,-4.4005,-4.4005,-4.4005,-4.4005,-4.4005,-4.4005,-4.4005,-4.4005,-4.4005,-4.4005,-4.4005,-4.4005,-4.4005,-4.4005,-4.4005,-4.4005,-4.4005,-4.4005,-4.4005,-4.4005,-4.4005,-4.3961,-4.3915,-4.3818,-4.3719,-4.36,-4.3513,-4.3479,-4.3479,-4.3479,-4.3479,-4.3479,-4.3479,-4.3479,-4.3479,-4.3479,-4.3479,-4.3479,-4.3479,-4.3479,-4.3479,-4.3479,-4.3513,-4.3548,-4.3649,-4.3846,-4.3942,-4.4005,-4.3923,-4.3697,-4.889,-4.889,-4.889,-4.889,-4.889,-4.889,-4.889,-4.889,-4.889,-4.889,-4.889,-4.889,-4.889,-4.889,-4.889,-4.889,-4.889,-4.889,-4.889,-4.889,-4.8874,-4.8839,-4.8732,-4.8606,-4.8513,-4.8457,-4.8363,-4.8306,-4.8306,-4.8401,-4.8401,-4.8306,-4.8363,-4.8401,-4.8306,-4.8324,-4.8363,-4.8438,-4.8494,-4.8237,-4.7849,-4.7642,-4.6897,-4.5564,-4.4735,-4.4283,-4.4079,-4.4005,-4.4005,-4.3955,-4.4005,-4.4005,-4.4005,-4.4005,-4.4005,-4.4005,-4.4005,-4.4005,-4.4005,-4.4005,-4.4005,-4.4005,-4.4005,-4.4005,-4.4005,-4.4061,-4.4042,-4.4005,-4.4005,-4.4191,-4.4209,-4.4079,-4.4098,-4.4116,-4.4061,-4.4005,-4.4005,-4.4005,-4.4005,-4.4005,-4.4005,-4.4005,-4.4005,-4.4005,-4.4005,-4.4005,-4.3992,-4.3929,-4.3851,-4.3771,-4.3652,-4.3513,-4.3479,-4.3479,-4.3479,-4.3479,-4.3479,-4.3479,-4.3479,-4.3479,-4.3479,-4.3479,-4.3479,-4.3479,-4.3479,-4.3479,-4.3479,-4.3513,-4.3513,-4.3649,-4.3749,-4.3781,-4.3814,-4.3716,-4.3649,-4.889,-4.889,-4.889,-4.889,-4.889,-4.889,-4.889,-4.889,-4.889,-4.889,-4.889,-4.889,-4.889,-4.889,-4.889,-4.889,-4.889,-4.889,-4.889,-4.889,-4.889,-4.8874,-4.8839,-4.8715,-4.8606,-4.855,-4.8513,-4.842,-4.8438,-4.8457,-4.8419,-4.8306,-4.8381,-4.8363,-4.8306,-4.8324,-4.8381,-4.8494,-4.8513,-4.8347,-4.8105,-4.7747,-4.6873,-4.5389,-4.4456,-4.4005,-4.4005,-4.4005,-4.4005,-4.4005,-4.4005,-4.4005,-4.4005,-4.4005,-4.4005,-4.4005,-4.4005,-4.4005,-4.4005,-4.4005,-4.4005,-4.4023,-4.4023,-4.4005,-4.4153,-4.4321,-4.4618,-4.4692,-4.4934,-4.5175,-4.5157,-4.4748,-4.4655,-4.4525,-4.4228,-4.4042,-4.4005,-4.4005,-4.4005,-4.4005,-4.4005,-4.4005,-4.4005,-4.4005,-4.4005,-4.4005,-4.3961,-4.3897,-4.3818,-4.3719,-4.3634,-4.3513,-4.3513,-4.3479,-4.3479,-4.3479,-4.3479,-4.3479,-4.3479,-4.3479,-4.3479,-4.3479,-4.3479,-4.3479,-4.3479,-4.3479,-4.3479,-4.3513,-4.3513,-4.3548,-4.3615,-4.3649,-4.3649,-4.3582,-4.3566,-4.889,-4.889,-4.889,-4.889,-4.889,-4.889,-4.889,-4.889,-4.889,-4.889,-4.889,-4.889,-4.889,-4.889,-4.889,-4.889,-4.889,-4.889,-4.889,-4.889,-4.889,-4.889,-4.8855,-4.8804,-4.8768,-4.8678,-4.8605,-4.855,-4.8532,-4.8532,-4.8476,-4.8363,-4.8344,-4.8382,-4.8363,-4.8363,-4.8419,-4.8569,-4.8624,-4.853,-4.8414,-4.789,-4.6903,-4.5472,-4.4469,-4.4042,-4.4005,-4.4005,-4.4005,-4.4005,-4.4005,-4.4005,-4.4005,-4.4005,-4.4005,-4.4005,-4.4005,-4.4005,-4.4005,-4.4023,-4.4042,-4.4116,-4.4228,-4.4358,-4.4599,-4.5082,-4.5379,-4.5639,-4.5881,-4.6271,-4.642,-4.5862,-4.5435,-4.5175,-4.4581,-4.4209,-4.4023,-4.4005,-4.4005,-4.4005,-4.4005,-4.4005,-4.4005,-4.3974,-4.3974,-4.3974,-4.3929,-4.3832,-4.3786,-4.3686,-4.36,-4.3513,-4.3513,-4.3479,-4.3479,-4.3479,-4.3479,-4.3479,-4.3479,-4.3479,-4.3479,-4.3479,-4.3479,-4.3479,-4.3479,-4.3479,-4.3479,-4.3479,-4.3479,-4.3479,-4.3513,-4.3548,-4.3548,-4.3497,-4.3428,-4.889,-4.889,-4.889,-4.889,-4.889,-4.889,-4.889,-4.889,-4.889,-4.889,-4.889,-4.889,-4.8855,-4.889,-4.889,-4.889,-4.8855,-4.8855,-4.8909,-4.889,-4.889,-4.889,-4.889,-4.8855,-4.8874,-4.882,-4.8695,-4.8605,-4.8624,-4.866,-4.8606,-4.8476,-4.8495,-4.8495,-4.8438,-4.8457,-4.8532,-4.8642,-4.864,-4.8398,-4.8057,-4.7664,-4.6884,-4.5417,-4.4525,-4.4135,-4.4023,-4.4005,-4.4005,-4.4005,-4.4005,-4.4005,-4.4005,-4.4005,-4.4005,-4.4005,-4.4005,-4.4005,-4.4005,-4.4061,-4.4432,-4.4859,-4.5064,-4.5403,-4.5848,-4.6182,-4.6327,-4.6438,-4.6513,-4.6605,-4.6513,-4.642,-4.5992,-4.5528,-4.5119,-4.4748,-4.4265,-4.4042,-4.4023,-4.4005,-4.4005,-4.4005,-4.4005,-4.3974,-4.3942,-4.391,-4.3832,-4.3767,-4.3701,-4.3634,-4.3582,-4.3513,-4.3479,-4.3479,-4.3479,-4.3479,-4.3479,-4.3479,-4.3479,-4.3479,-4.3479,-4.3479,-4.3479,-4.3479,-4.3479,-4.3479,-4.3479,-4.3479,-4.3479,-4.3479,-4.3479,-4.3479,-4.3463,-4.3463,-4.3411,-4.8731,-4.8768,-4.8804,-4.8839,-4.8857,-4.8874,-4.889,-4.8909,-4.8874,-4.8874,-4.8874,-4.8785,-4.882,-4.8855,-4.8767,-4.8785,-4.8839,-4.8839,-4.8874,-4.8909,-4.889,-4.889,-4.889,-4.889,-4.889,-4.8855,-4.8785,-4.8714,-4.8732,-4.8751,-4.8679,-4.8569,-4.8569,-4.8569,-4.8532,-4.8513,-4.8642,-4.8731,-4.8398,-4.8062,-4.7701,-4.7386,-4.642,-4.5528,-4.4896,-4.4469,-4.4042,-4.4005,-4.4005,-4.4005,-4.4005,-4.4005,-4.4005,-4.4005,-4.4005,-4.4005,-4.4005,-4.4005,-4.4135,-4.4358,-4.4915,-4.5249,-4.5639,-4.6048,-4.6498,-4.6795,-4.7237,-4.759,-4.7738,-4.7757,-4.7813,-4.7367,-4.694,-4.6513,-4.5881,-4.5194,-4.4711,-4.4321,-4.4172,-4.4135,-4.4061,-4.4061,-4.4005,-4.3942,-4.3897,-4.3832,-4.3786,-4.3701,-4.36,-4.3548,-4.3548,-4.3513,-4.3479,-4.3479,-4.3479,-4.3479,-4.3479,-4.3479,-4.3479,-4.3479,-4.3479,-4.3479,-4.3479,-4.3479,-4.3479,-4.3479,-4.3479,-4.3479,-4.3479,-4.3479,-4.3497,-4.3497,-4.3446,-4.3411,-4.334,-4.8623,-4.8642,-4.8751,-4.8787,-4.8787,-4.8839,-4.882,-4.8839,-4.8787,-4.8768,-4.882,-4.8695,-4.8695,-4.8785,-4.8714,-4.8697,-4.8787,-4.8787,-4.8822,-4.8892,-4.889,-4.889,-4.889,-4.889,-4.889,-4.889,-4.8909,-4.8874,-4.8804,-4.8822,-4.8715,-4.8642,-4.8605,-4.8605,-4.8606,-4.8624,-4.8751,-4.8583,-4.8248,-4.7893,-4.7757,-4.7144,-4.6457,-4.5751,-4.5491,-4.4934,-4.4451,-4.4098,-4.4023,-4.4005,-4.4005,-4.4005,-4.4005,-4.4005,-4.4005,-4.4005,-4.4005,-4.4005,-4.4209,-4.4785,-4.5287,-4.5658,-4.6327,-4.6717,-4.7144,-4.772,-4.8166,-4.876,-4.8816,-4.8742,-4.8574,-4.8296,-4.7868,-4.7423,-4.6531,-4.5695,-4.5454,-4.5119,-4.4679,-4.453,-4.4271,-4.4122,-4.4072,-4.3828,-4.3749,-4.3716,-4.3667,-4.3634,-4.3566,-4.3513,-4.3513,-4.3513,-4.3479,-4.3479,-4.3479,-4.3479,-4.3479,-4.3479,-4.3479,-4.3479,-4.3479,-4.3479,-4.3479,-4.3479,-4.3479,-4.3479,-4.3479,-4.3479,-4.3479,-4.3479,-4.3497,-4.3481,-4.3411,-4.3359,-4.3251,-4.8678,-4.8787,-4.8678,-4.8697,-4.8787,-4.8678,-4.8623,-4.8623,-4.8623,-4.8623,-4.866,-4.8587,-4.8587,-4.8642,-4.8623,-4.8587,-4.8642,-4.8751,-4.8787,-4.8822,-4.8839,-4.8855,-4.889,-4.889,-4.8874,-4.8909,-4.8909,-4.889,-4.8874,-4.8892,-4.8857,-4.8751,-4.8751,-4.8751,-4.8697,-4.8732,-4.8822,-4.8855,-4.8725,-4.863,-4.8463,-4.7813,-4.7441,-4.6921,-4.6178,-4.5305,-4.4989,-4.4488,-4.4116,-4.4005,-4.4005,-4.4005,-4.4005,-4.4005,-4.4005,-4.4005,-4.4005,-4.4023,-4.4135,-4.4915,-4.5658,-4.6215,-4.7033,-4.7813,-4.8203,-4.8426,-4.8686,-4.8816,-4.889,-4.889,-4.889,-4.8797,-4.8389,-4.798,-4.7404,-4.681,-4.6457,-4.5793,-4.5389,-4.5156,-4.499,-4.4471,-4.4161,-4.3878,-4.3615,-4.3582,-4.3582,-4.3513,-4.3513,-4.3479,-4.3479,-4.3479,-4.3479,-4.3479,-4.3479,-4.3479,-4.3479,-4.3479,-4.3479,-4.3479,-4.3479,-4.3479,-4.3479,-4.3479,-4.3479,-4.3479,-4.3479,-4.3479,-4.3479,-4.3497,-4.3481,-4.3446,-4.3429,-4.3287,-4.3196,-4.8458,-4.8495,-4.8532,-4.8569,-4.8606,-4.8605,-4.8569,-4.8587,-4.855,-4.8569,-4.855,-4.8476,-4.842,-4.8439,-4.8495,-4.855,-4.855,-4.8606,-4.8679,-4.8732,-4.875,-4.8785,-4.8874,-4.8874,-4.8857,-4.8857,-4.8892,-4.8874,-4.8874,-4.8892,-4.8874,-4.8822,-4.8804,-4.875,-4.8714,-4.8804,-4.8839,-4.8709,-4.8428,-4.7961,-4.7701,-4.7627,-4.7497,-4.7088,-4.6754,-4.6178,-4.5398,-4.5026,-4.4432,-4.4191,-4.4005,-4.4005,-4.4005,-4.4005,-4.4005,-4.4005,-4.4005,-4.4005,-4.4153,-4.5249,-4.5992,-4.668,-4.7553,-4.85,-4.8853,-4.889,-4.889,-4.889,-4.889,-4.889,-4.889,-4.889,-4.8723,-4.8407,-4.8017,-4.7667,-4.7132,-4.6576,-4.6079,-4.5867,-4.5614,-4.5115,-4.4561,-4.4033,-4.3729,-4.3582,-4.3548,-4.3513,-4.3479,-4.3479,-4.3479,-4.3479,-4.3479,-4.3479,-4.3479,-4.3479,-4.3479,-4.3479,-4.3479,-4.3479,-4.3479,-4.3479,-4.3479,-4.3479,-4.3479,-4.3479,-4.3479,-4.3479,-4.3497,-4.3428,-4.3429,-4.3359,-4.3287,-4.3215,-4.3104,-4.8324,-4.8306,-4.8419,-4.8475,-4.8494,-4.8495,-4.8514,-4.8514,-4.8476,-4.8476,-4.8476,-4.8382,-4.8324,-4.8324,-4.8401,-4.8438,-4.8438,-4.8457,-4.8569,-4.8624,-4.8678,-4.8714,-4.8804,-4.8822,-4.8768,-4.8787,-4.8804,-4.8804,-4.8822,-4.8857,-4.8857,-4.8822,-4.8857,-4.8804,-4.8714,-4.8768,-4.8839,-4.8802,-4.8391,-4.7906,-4.7553,-4.7831,-4.7664,-4.7478,-4.7311,-4.7051,-4.5825,-4.5305,-4.4859,-4.4191,-4.4005,-4.4005,-4.4005,-4.4005,-4.4005,-4.4005,-4.4005,-4.4005,-4.4469,-4.5324,-4.629,-4.6995,-4.785,-4.8816,-4.8872,-4.889,-4.889,-4.889,-4.889,-4.889,-4.889,-4.889,-4.8818,-4.8633,-4.8373,-4.8081,-4.7805,-4.7344,-4.6884,-4.6593,-4.6319,-4.588,-4.5236,-4.4391,-4.3915,-4.3621,-4.3513,-4.3479,-4.3479,-4.3479,-4.3479,-4.3479,-4.3479,-4.3479,-4.3479,-4.3479,-4.3479,-4.3479,-4.3479,-4.3479,-4.3479,-4.3479,-4.3479,-4.3479,-4.3479,-4.3463,-4.3463,-4.3463,-4.3463,-4.3411,-4.3359,-4.3251,-4.3196,-4.3104,-4.3067,-4.8324,-4.8324,-4.8324,-4.8401,-4.8457,-4.8344,-4.8344,-4.8344,-4.8306,-4.8363,-4.8344,-4.8306,-4.8324,-4.8324,-4.8324,-4.8324,-4.8324,-4.8457,-4.8494,-4.8513,-4.8569,-4.8642,-4.8732,-4.8732,-4.8678,-4.8732,-4.8732,-4.8732,-4.8787,-4.8768,-4.8839,-4.8874,-4.8857,-4.8822,-4.8751,-4.8732,-4.8804,-4.8804,-4.8651,-4.8651,-4.8484,-4.8649,-4.8612,-4.8481,-4.7999,-4.7293,-4.6438,-4.5807,-4.5064,-4.4246,-4.4061,-4.4005,-4.4005,-4.4005,-4.4005,-4.4005,-4.4005,-4.4005,-4.4376,-4.5324,-4.6308,-4.694,-4.7831,-4.889,-4.889,-4.889,-4.889,-4.889,-4.889,-4.889,-4.889,-4.889,-4.8839,-4.8765,-4.8581,-4.8455,-4.8291,-4.8309,-4.7831,-4.7389,-4.7021,-4.6636,-4.6011,-4.5148,-4.434,-4.4028,-4.3532,-4.3479,-4.3479,-4.3479,-4.3479,-4.3479,-4.3479,-4.3479,-4.3479,-4.3479,-4.3479,-4.3479,-4.3479,-4.3479,-4.3479,-4.3479,-4.3479,-4.3497,-4.3497,-4.3463,-4.3411,-4.3376,-4.334,-4.3359,-4.3287,-4.3178,-4.3086,-4.3012,-4.2994,-4.8324,-4.8324,-4.8324,-4.8306,-4.8363,-4.8306,-4.8324,-4.8324,-4.8324,-4.8324,-4.8324,-4.8324,-4.8324,-4.8324,-4.8324,-4.8324,-4.8324,-4.8363,-4.8419,-4.8457,-4.8476,-4.8532,-4.8605,-4.8642,-4.8623,-4.8678,-4.8697,-4.8697,-4.8697,-4.8697,-4.8732,-4.8787,-4.8787,-4.8732,-4.8697,-4.866,-4.866,-4.8714,-4.875,-4.875,-4.8839,-4.8857,-4.8857,-4.8834,-4.8723,-4.8017,-4.7256,-4.6475,-4.5658,-4.4915,-4.4339,-4.4135,-4.4061,-4.4061,-4.4005,-4.4005,-4.4005,-4.4005,-4.4172,-4.5175,-4.6122,-4.733,-4.8221,-4.889,-4.889,-4.889,-4.889,-4.889,-4.889,-4.8855,-4.8909,-4.8839,-4.8822,-4.8787,-4.8697,-4.8624,-4.8587,-4.855,-4.844,-4.7813,-4.7684,-4.7518,-4.6746,-4.5957,-4.5149,-4.4415,-4.3901,-4.3479,-4.3479,-4.3479,-4.3479,-4.3479,-4.3479,-4.3479,-4.3479,-4.3479,-4.3479,-4.3479,-4.3479,-4.3479,-4.3479,-4.3479,-4.3479,-4.3497,-4.3463,-4.3411,-4.334,-4.3287,-4.3251,-4.3215,-4.3178,-4.3104,-4.3012,-4.2938,-4.2938,-4.8324,-4.8324,-4.8324,-4.8324,-4.8324,-4.8324,-4.8324,-4.8324,-4.8324,-4.8324,-4.8324,-4.8324,-4.8324,-4.8324,-4.8324,-4.8324,-4.8324,-4.8324,-4.8363,-4.8363,-4.8401,-4.842,-4.8495,-4.8587,-4.8569,-4.8569,-4.8624,-4.8624,-4.8587,-4.8587,-4.866,-4.8697,-4.8715,-4.866,-4.8605,-4.855,-4.8513,-4.8587,-4.8623,-4.8623,-4.8732,-4.8732,-4.8787,-4.8785,-4.8765,-4.8373,-4.7705,-4.7036,-4.6475,-4.5658,-4.4989,-4.4488,-4.4321,-4.4172,-4.4042,-4.4023,-4.4023,-4.4042,-4.4265,-4.5133,-4.6248,-4.746,-4.837,-4.8797,-4.889,-4.8855,-4.8874,-4.8839,-4.8839,-4.882,-4.8802,-4.8768,-4.8715,-4.8679,-4.8642,-4.855,-4.8476,-4.8438,-4.8382,-4.8179,-4.8104,-4.7957,-4.7333,-4.6434,-4.5112,-4.436,-4.3809,-4.3479,-4.3479,-4.3479,-4.3479,-4.3479,-4.3479,-4.3479,-4.3479,-4.3479,-4.3479,-4.3479,-4.3479,-4.3479,-4.3479,-4.3479,-4.3463,-4.3428,-4.3411,-4.3359,-4.3287,-4.3178,-4.3141,-4.3104,-4.3049,-4.3012,-4.2994,-4.2938,-4.29,-4.8324,-4.8324,-4.8324,-4.8324,-4.8324,-4.8324,-4.8324,-4.8324,-4.8324,-4.8324,-4.8324,-4.8324,-4.8324,-4.8324,-4.8324,-4.8324,-4.8324,-4.8324,-4.8324,-4.8324,-4.8324,-4.8401,-4.8438,-4.8476,-4.8513,-4.8494,-4.8532,-4.8532,-4.8513,-4.8476,-4.855,-4.8587,-4.8587,-4.8569,-4.8587,-4.8513,-4.8513,-4.8587,-4.8587,-4.8587,-4.8587,-4.8605,-4.8642,-4.8678,-4.8714,-4.8379,-4.7951,-4.7559,-4.7003,-4.6409,-4.563,-4.524,-4.5148,-4.4623,-4.4363,-4.4289,-4.4215,-4.4141,-4.4191,-4.5597,-4.6657,-4.7293,-4.7834,-4.8373,-4.867,-4.8691,-4.8583,-4.8379,-4.8529,-4.8549,-4.8586,-4.8605,-4.8587,-4.8569,-4.8532,-4.8476,-4.8401,-4.8363,-4.8324,-4.8306,-4.8306,-4.8177,-4.7645,-4.6801,-4.5204,-4.425,-4.3699,-4.3479,-4.3479,-4.3479,-4.3479,-4.3479,-4.3479,-4.3479,-4.3479,-4.3479,-4.3479,-4.3479,-4.3479,-4.3479,-4.3497,-4.3463,-4.3428,-4.3411,-4.334,-4.3269,-4.3196,-4.3104,-4.3049,-4.3049,-4.2994,-4.2938,-4.29,-4.29,-4.29,-4.8324,-4.8324,-4.8324,-4.8324,-4.8324,-4.8324,-4.8324,-4.8324,-4.8324,-4.8324,-4.8324,-4.8324,-4.8324,-4.8324,-4.8324,-4.8324,-4.8324,-4.8324,-4.8324,-4.8324,-4.8324,-4.8306,-4.8363,-4.8457,-4.8513,-4.8513,-4.8513,-4.8513,-4.8513,-4.8401,-4.8438,-4.8476,-4.8476,-4.8494,-4.842,-4.8382,-4.8382,-4.842,-4.842,-4.842,-4.8513,-4.8513,-4.855,-4.8605,-4.8642,-4.8512,-4.8197,-4.7863,-4.7437,-4.7048,-4.6363,-4.5956,-4.5901,-4.5401,-4.5401,-4.5386,-4.5404,-4.546,-4.566,-4.6413,-4.6638,-4.6721,-4.6932,-4.7398,-4.721,-4.7104,-4.7328,-4.7755,-4.7885,-4.8051,-4.8421,-4.8514,-4.8532,-4.8494,-4.8457,-4.8401,-4.8306,-4.8324,-4.8324,-4.8324,-4.8306,-4.7517,-4.6893,-4.6581,-4.5296,-4.4176,-4.3589,-4.3479,-4.3479,-4.3479,-4.3479,-4.3479,-4.3479,-4.3479,-4.3479,-4.3479,-4.3479,-4.3497,-4.3479,-4.3479,-4.3497,-4.3428,-4.3411,-4.334,-4.3269,-4.3178,-4.3105,-4.3049,-4.2994,-4.2938,-4.29,-4.29,-4.29,-4.29,-4.29,-4.8324,-4.8324,-4.8324,-4.8324,-4.8324,-4.8324,-4.8324,-4.8324,-4.8324,-4.8324,-4.8324,-4.8324,-4.8324,-4.8324,-4.8324,-4.8324,-4.8324,-4.8324,-4.8324,-4.8324,-4.8324,-4.8306,-4.8363,-4.8419,-4.8457,-4.8457,-4.8475,-4.8475,-4.8419,-4.8363,-4.8344,-4.8401,-4.8419,-4.8401,-4.8344,-4.8306,-4.8306,-4.8324,-4.8344,-4.8363,-4.8401,-4.8438,-4.8438,-4.8495,-4.8532,-4.8532,-4.8421,-4.8162,-4.7793,-4.7571,-4.7165,-4.6631,-4.6557,-4.6354,-4.6262,-4.6188,-4.6188,-4.6151,-4.6313,-4.6445,-4.6416,-4.5982,-4.6292,-4.648,-4.6348,-4.6371,-4.6539,-4.6853,-4.7131,-4.7573,-4.8016,-4.8144,-4.8438,-4.8419,-4.8401,-4.8306,-4.8306,-4.8324,-4.8324,-4.8324,-4.8196,-4.726,-4.6269,-4.5883,-4.5296,-4.436,-4.3479,-4.3479,-4.3479,-4.3479,-4.3479,-4.3479,-4.3479,-4.3479,-4.3479,-4.3479,-4.3479,-4.3463,-4.3463,-4.3463,-4.3358,-4.3286,-4.3305,-4.3305,-4.3142,-4.3068,-4.3031,-4.2938,-4.2938,-4.2938,-4.29,-4.29,-4.29,-4.29,-4.29,-4.8233,-4.8269,-4.8251,-4.8251,-4.8306,-4.8324,-4.8324,-4.8324,-4.8324,-4.8324,-4.8324,-4.8324,-4.8324,-4.8324,-4.8324,-4.8324,-4.8324,-4.8324,-4.8324,-4.8324,-4.8324,-4.8324,-4.8324,-4.8419,-4.8401,-4.8363,-4.8401,-4.8419,-4.8306,-4.8306,-4.8306,-4.8306,-4.8324,-4.8324,-4.8324,-4.8324,-4.8324,-4.8324,-4.8324,-4.8324,-4.8363,-4.8324,-4.8363,-4.8382,-4.8438,-4.8476,-4.8421,-4.8347,-4.8403,-4.82,-4.7794,-4.7517,-4.7166,-4.6687,-4.6428,-4.6336,-4.6393,-4.6485,-4.6559,-4.6781,-4.6504,-4.635,-4.6833,-4.6796,-4.6428,-4.6153,-4.6303,-4.6562,-4.6948,-4.7114,-4.737,-4.7847,-4.8324,-4.8324,-4.8324,-4.8324,-4.8324,-4.8324,-4.8324,-4.8324,-4.8324,-4.759,-4.6324,-4.57,-4.5259,-4.4232,-4.3479,-4.3479,-4.3479,-4.3479,-4.3479,-4.3479,-4.3479,-4.3479,-4.3479,-4.3497,-4.3463,-4.3428,-4.3358,-4.3358,-4.3251,-4.3178,-4.3196,-4.316,-4.3031,-4.2956,-4.2938,-4.2938,-4.2938,-4.29,-4.29,-4.29,-4.29,-4.29,-4.29,-4.6911,-4.7443,-4.7462,-4.7774,-4.8288,-4.8324,-4.8324,-4.8324,-4.8324,-4.8324,-4.8324,-4.8324,-4.8324,-4.8324,-4.8324,-4.8324,-4.8324,-4.8324,-4.8324,-4.8324,-4.8324,-4.8324,-4.8324,-4.8363,-4.8363,-4.8324,-4.8363,-4.8363,-4.8324,-4.8324,-4.8324,-4.8324,-4.8324,-4.8324,-4.8324,-4.8324,-4.8324,-4.8324,-4.8324,-4.8324,-4.8324,-4.8324,-4.8324,-4.8324,-4.8363,-4.8363,-4.8401,-4.8401,-4.842,-4.8291,-4.8162,-4.8033,-4.7978,-4.7812,-4.7702,-4.772,-4.7739,-4.772,-4.7702,-4.7665,-4.7426,-4.6966,-4.7151,-4.6726,-4.6339,-4.6156,-4.6287,-4.6489,-4.6875,-4.7131,-4.7498,-4.7957,-4.8269,-4.8324,-4.8324,-4.8324,-4.8324,-4.8324,-4.8324,-4.8288,-4.8288,-4.7498,-4.6269,-4.57,-4.5168,-4.4085,-4.3479,-4.3479,-4.3479,-4.3479,-4.3479,-4.3479,-4.3479,-4.3479,-4.3463,-4.3481,-4.3446,-4.3376,-4.3305,-4.3269,-4.3214,-4.3142,-4.3123,-4.3068,-4.2994,-4.2938,-4.29,-4.29,-4.29,-4.29,-4.29,-4.29,-4.29,-4.29,-4.29,-4.6177,-4.6617,-4.6636,-4.7095,-4.781,-4.8177,-4.8324,-4.8324,-4.8324,-4.8324,-4.8324,-4.8324,-4.8324,-4.8324,-4.8324,-4.8324,-4.8324,-4.8324,-4.8324,-4.8324,-4.8324,-4.8324,-4.8324,-4.8324,-4.8324,-4.8324,-4.8324,-4.8324,-4.8324,-4.8324,-4.8324,-4.8324,-4.8324,-4.8324,-4.8324,-4.8324,-4.8324,-4.8324,-4.8324,-4.8324,-4.8324,-4.8324,-4.8324,-4.8324,-4.8324,-4.8324,-4.8324,-4.8324,-4.8324,-4.8324,-4.8324,-4.8306,-4.8306,-4.8269,-4.8269,-4.8196,-4.8196,-4.8159,-4.8141,-4.8196,-4.7957,-4.7719,-4.7553,-4.7389,-4.6856,-4.6544,-4.6416,-4.6397,-4.6856,-4.7278,-4.7719,-4.8086,-4.8214,-4.8324,-4.8324,-4.8324,-4.8324,-4.8324,-4.8288,-4.8251,-4.7792,-4.7095,-4.6397,-4.5828,-4.5094,-4.403,-4.3479,-4.3479,-4.3479,-4.3479,-4.3479,-4.3479,-4.3479,-4.3497,-4.3481,-4.3411,-4.334,-4.3305,-4.3215,-4.316,-4.3142,-4.3087,-4.3031,-4.2994,-4.2938,-4.2938,-4.29,-4.29,-4.29,-4.29,-4.29,-4.29,-4.29,-4.29,-4.29,-4.5736,-4.581,-4.5865,-4.6379,-4.7058,-4.7737,-4.8012,-4.8141,-4.8104,-4.8233,-4.8288,-4.8324,-4.8324,-4.8324,-4.8324,-4.8324,-4.8324,-4.8324,-4.8324,-4.8324,-4.8324,-4.8324,-4.8324,-4.8324,-4.8324,-4.8324,-4.8324,-4.8324,-4.8324,-4.8324,-4.8324,-4.8324,-4.8324,-4.8324,-4.8324,-4.8324,-4.8324,-4.8324,-4.8324,-4.8324,-4.8324,-4.8324,-4.8324,-4.8324,-4.8324,-4.8324,-4.8324,-4.8324,-4.8324,-4.8324,-4.8324,-4.8324,-4.8324,-4.8324,-4.8324,-4.8324,-4.8324,-4.8324,-4.8324,-4.8324,-4.8324,-4.8233,-4.8306,-4.8086,-4.7573,-4.7114,-4.6929,-4.6929,-4.737,-4.7553,-4.7902,-4.8141,-4.8269,-4.8324,-4.8324,-4.8324,-4.8324,-4.8159,-4.7884,-4.7737,-4.7241,-4.6544,-4.5828,-4.5204,-4.4746,-4.3846,-4.3463,-4.3463,-4.3444,-4.3444,-4.3444,-4.3479,-4.3479,-4.3463,-4.3411,-4.334,-4.3269,-4.3215,-4.3141,-4.3049,-4.3013,-4.2975,-4.2938,-4.2938,-4.2938,-4.2938,-4.29,-4.29,-4.29,-4.2882,-4.2882,-4.2882,-4.2882,-4.29,-4.29,-4.4433,-4.5039,-4.5645,-4.603,-4.6195,-4.6379,-4.6507,-4.6544,-4.7168,-4.77,-4.8214,-4.8288,-4.8324,-4.8324,-4.8324,-4.8324,-4.8324,-4.8324,-4.8324,-4.8324,-4.8324,-4.8324,-4.8324,-4.8324,-4.8324,-4.8324,-4.8324,-4.8324,-4.8324,-4.8324,-4.8324,-4.8324,-4.8324,-4.8324,-4.8324,-4.8324,-4.8324,-4.8324,-4.8324,-4.8324,-4.8324,-4.8324,-4.8324,-4.8324,-4.8324,-4.8324,-4.8324,-4.8324,-4.8324,-4.8324,-4.8324,-4.8324,-4.8324,-4.8324,-4.8324,-4.8324,-4.8324,-4.8324,-4.8324,-4.8324,-4.8324,-4.8324,-4.8324,-4.8324,-4.8159,-4.7865,-4.7719,-4.7755,-4.7792,-4.7902,-4.7994,-4.8177,-4.8324,-4.8324,-4.8233,-4.8233,-4.8214,-4.7829,-4.7425,-4.704,-4.6617,-4.5975,-4.5241,-4.4673,-4.4233,-4.3849,-4.3521,-4.3411,-4.3322,-4.3322,-4.3375,-4.341,-4.3497,-4.3463,-4.3376,-4.3305,-4.3196,-4.3123,-4.3049,-4.2956,-4.29,-4.29,-4.29,-4.29,-4.29,-4.29,-4.29,-4.29,-4.29,-4.29,-4.2862,-4.2824,-4.2824,-4.2824,-4.2862,-4.3754,-4.425,-4.5039,-4.5369,-4.5443,-4.5736,-4.5902,-4.5975,-4.6397,-4.6819,-4.737,-4.7921,-4.8306,-4.8306,-4.8324,-4.8324,-4.8324,-4.8324,-4.8324,-4.8324,-4.8324,-4.8324,-4.8324,-4.8324,-4.8324,-4.8324,-4.8324,-4.8324,-4.8324,-4.8324,-4.8324,-4.8324,-4.8324,-4.8324,-4.8324,-4.8324,-4.8324,-4.8324,-4.8324,-4.8324,-4.8324,-4.8324,-4.8324,-4.8324,-4.8324,-4.8324,-4.8324,-4.8324,-4.8324,-4.8324,-4.8324,-4.8324,-4.8324,-4.8324,-4.8324,-4.8324,-4.8324,-4.8324,-4.8324,-4.8324,-4.8324,-4.8324,-4.8324,-4.8324,-4.8324,-4.8067,-4.8067,-4.8086,-4.8086,-4.8159,-4.8159,-4.8306,-4.8324,-4.8324,-4.7829,-4.7517,-4.7205,-4.6783,-4.6581,-4.6452,-4.5957,-4.5369,-4.4691,-4.4198,-4.3796,-4.3686,-4.3412,-4.3286,-4.3214,-4.3178,-4.3251,-4.3304,-4.3339,-4.3322,-4.3233,-4.316,-4.3123,-4.3031,-4.2956,-4.2938,-4.29,-4.29,-4.29,-4.29,-4.29,-4.29,-4.29,-4.29,-4.288,-4.2842,-4.2804,-4.2822,-4.2765,-4.2765,-4.2765,-4.3463,-4.3626,-4.425,-4.4562,-4.4654,-4.5259,-4.5516,-4.5571,-4.5681,-4.5736,-4.5993,-4.7297,-4.7957,-4.8159,-4.8306,-4.8324,-4.8324,-4.8324,-4.8324,-4.8324,-4.8324,-4.8324,-4.8324,-4.8324,-4.8324,-4.8324,-4.8324,-4.8324,-4.8324,-4.8324,-4.8324,-4.8324,-4.8324,-4.8324,-4.8324,-4.8324,-4.8324,-4.8324,-4.8324,-4.8324,-4.8324,-4.8324,-4.8324,-4.8324,-4.8324,-4.8324,-4.8324,-4.8196,-4.8196,-4.8104,-4.8031,-4.8012,-4.8141,-4.8177,-4.8324,-4.8324,-4.8324,-4.8324,-4.8324,-4.8324,-4.8324,-4.8324,-4.8324,-4.8324,-4.8324,-4.8324,-4.8324,-4.8324,-4.8324,-4.8324,-4.8324,-4.8324,-4.8324,-4.8233,-4.7609,-4.7021,-4.6562,-4.6049,-4.592,-4.5847,-4.5241,-4.4672,-4.4216,-4.3722,-4.3541,-4.3395,-4.3305,-4.3214,-4.316,-4.3087,-4.3123,-4.3123,-4.316,-4.3105,-4.3104,-4.3104,-4.3049,-4.2994,-4.2938,-4.29,-4.29,-4.29,-4.29,-4.29,-4.29,-4.29,-4.29,-4.2862,-4.2842,-4.2783,-4.2706,-4.2667,-4.2688,-4.2649,-4.2706,-4.3322,-4.3448,-4.3646,-4.3736,-4.3773,-4.3938,-4.3938,-4.4066,-4.469,-4.4929,-4.515,-4.5865,-4.6654,-4.737,-4.8067,-4.8306,-4.8324,-4.8324,-4.8324,-4.8324,-4.8324,-4.8324,-4.8324,-4.8324,-4.8324,-4.8324,-4.8324,-4.8324,-4.8324,-4.8324,-4.8324,-4.8324,-4.8324,-4.8324,-4.8324,-4.8324,-4.8324,-4.8324,-4.8324,-4.8324,-4.8324,-4.8324,-4.8324,-4.8324,-4.8324,-4.8324,-4.8177,-4.7645,-4.7443,-4.7352,-4.737,-4.737,-4.7609,-4.7921,-4.8141,-4.8324,-4.8324,-4.8324,-4.8324,-4.8324,-4.8324,-4.8324,-4.8324,-4.8324,-4.8324,-4.8324,-4.8324,-4.8324,-4.8324,-4.8324,-4.8324,-4.8324,-4.8306,-4.8214,-4.7792,-4.7333,-4.6874,-4.6159,-4.5626,-4.5112,-4.4433,-4.4014,-4.3741,-4.3432,-4.336,-4.3251,-4.3178,-4.3068,-4.3013,-4.3013,-4.2975,-4.3013,-4.3013,-4.3031,-4.3067,-4.3067,-4.3049,-4.2956,-4.29,-4.29,-4.29,-4.29,-4.29,-4.29,-4.29,-4.29,-4.29,-4.2842,-4.2822,-4.2745,-4.2606,-4.2526,-4.2548,-4.257,-4.2588]}]]